<?xml version='1.0' encoding='UTF-8'?><gpx version="1.1" creator="JPX - https://github.com/jenetics/jpx" xmlns="http://www.topografix.com/GPX/1/1"><trk><trkseg><trkpt lat="44.2497340971268" lon="1.1320150577122552"><ele>127.99999999999999</ele><time>2026-03-22T13:39:33Z</time></trkpt><trkpt lat="44.24966539894535" lon="1.1320579650683555"><ele>128.0</ele><time>2026-03-22T13:39:34Z</time></trkpt><trkpt lat="44.24959910906354" lon="1.132121888680904"><ele>128.0</ele><time>2026-03-22T13:39:35Z</time></trkpt><trkpt lat="44.249549568007836" lon="1.1322039166089404"><ele>128.0</ele><time>2026-03-22T13:39:36Z</time></trkpt><trkpt lat="44.249496355823574" lon="1.132298095798754"><ele>127.99999999999999</ele><time>2026-03-22T13:39:37Z</time></trkpt><trkpt lat="44.24945377525976" lon="1.1324096097191956"><ele>128.0</ele><time>2026-03-22T13:39:38Z</time></trkpt><trkpt lat="44.24943029698945" lon="1.1325552387337814"><ele>127.80000000000001</ele><time>2026-03-22T13:39:39Z</time></trkpt><trkpt lat="44.24942663291368" lon="1.1327224711806847"><ele>127.60000000000001</ele><time>2026-03-22T13:39:40Z</time></trkpt><trkpt lat="44.249431153696776" lon="1.1328749973825694"><ele>127.39999999999999</ele><time>2026-03-22T13:39:40.999Z</time></trkpt><trkpt lat="44.24939645825194" lon="1.1330070298770627"><ele>127.19999999999999</ele><time>2026-03-22T13:39:41.999Z</time></trkpt><trkpt lat="44.24935309610442" lon="1.133138181036095"><ele>127.0</ele><time>2026-03-22T13:39:42.999Z</time></trkpt><trkpt lat="44.2492830132176" lon="1.1332635396661803"><ele>127.0</ele><time>2026-03-22T13:39:43.999Z</time></trkpt><trkpt lat="44.24920892347266" lon="1.133381134073518"><ele>127.0</ele><time>2026-03-22T13:39:44.999Z</time></trkpt><trkpt lat="44.24909612650323" lon="1.1334302473621454"><ele>127.0</ele><time>2026-03-22T13:39:45.999Z</time></trkpt><trkpt lat="44.248989904971026" lon="1.1334692187625792"><ele>127.0</ele><time>2026-03-22T13:39:46.999Z</time></trkpt><trkpt lat="44.24887484367178" lon="1.1334799204433819"><ele>124.25</ele><time>2026-03-22T13:39:47.999Z</time></trkpt><trkpt lat="44.24876194187007" lon="1.1334630159703951"><ele>121.5</ele><time>2026-03-22T13:39:48.999Z</time></trkpt><trkpt lat="44.24864818742124" lon="1.133422542366525"><ele>118.75</ele><time>2026-03-22T13:39:49.999Z</time></trkpt><trkpt lat="44.24852384673181" lon="1.1333446356906463"><ele>116.0</ele><time>2026-03-22T13:39:50.999Z</time></trkpt><trkpt lat="44.24841575516849" lon="1.1332683644538688"><ele>116.5</ele><time>2026-03-22T13:39:51.999Z</time></trkpt><trkpt lat="44.24832322551858" lon="1.13314358313549"><ele>117.0</ele><time>2026-03-22T13:39:52.999Z</time></trkpt><trkpt lat="44.248258075381294" lon="1.1329830011121824"><ele>117.5</ele><time>2026-03-22T13:39:53.999Z</time></trkpt><trkpt lat="44.24820528106568" lon="1.1328213653190198"><ele>118.0</ele><time>2026-03-22T13:39:54.999Z</time></trkpt><trkpt lat="44.248166447773286" lon="1.132638267306792"><ele>118.0</ele><time>2026-03-22T13:39:55.999Z</time></trkpt><trkpt lat="44.248129795438054" lon="1.132427360390025"><ele>118.0</ele><time>2026-03-22T13:39:56.999Z</time></trkpt><trkpt lat="44.24809626624349" lon="1.1322218194458955"><ele>118.0</ele><time>2026-03-22T13:39:57.999Z</time></trkpt><trkpt lat="44.248066701365076" lon="1.1320405802636238"><ele>118.0</ele><time>2026-03-22T13:39:58.999Z</time></trkpt><trkpt lat="44.248037449592374" lon="1.1318629259169153"><ele>115.5</ele><time>2026-03-22T13:39:59.999Z</time></trkpt><trkpt lat="44.247990811188885" lon="1.1316816408740302"><ele>113.0</ele><time>2026-03-22T13:40:00.999Z</time></trkpt><trkpt lat="44.24795919797936" lon="1.1314857526129605"><ele>110.5</ele><time>2026-03-22T13:40:01.999Z</time></trkpt><trkpt lat="44.247922679810806" lon="1.131282862630917"><ele>108.0</ele><time>2026-03-22T13:40:02.999Z</time></trkpt><trkpt lat="44.24790181505659" lon="1.131065806957658"><ele>108.0</ele><time>2026-03-22T13:40:03.999Z</time></trkpt><trkpt lat="44.247864491514825" lon="1.1308382790561362"><ele>108.0</ele><time>2026-03-22T13:40:04.999Z</time></trkpt><trkpt lat="44.24782097413914" lon="1.1305729929948487"><ele>108.0</ele><time>2026-03-22T13:40:05.999Z</time></trkpt><trkpt lat="44.247774736302524" lon="1.1302954746287115"><ele>108.0</ele><time>2026-03-22T13:40:06.999Z</time></trkpt><trkpt lat="44.24773272615754" lon="1.1300454330755243"><ele>108.0</ele><time>2026-03-22T13:40:07.999Z</time></trkpt><trkpt lat="44.24769308550921" lon="1.1298251443318332"><ele>108.0</ele><time>2026-03-22T13:40:08.999Z</time></trkpt><trkpt lat="44.24763651374062" lon="1.1296123501606086"><ele>108.0</ele><time>2026-03-22T13:40:09.999Z</time></trkpt><trkpt lat="44.24758634784406" lon="1.1293960420024545"><ele>108.0</ele><time>2026-03-22T13:40:10.999Z</time></trkpt><trkpt lat="44.247520861986594" lon="1.1291846840249675"><ele>108.0</ele><time>2026-03-22T13:40:11.999Z</time></trkpt><trkpt lat="44.24744415954557" lon="1.1289654622395047"><ele>107.25</ele><time>2026-03-22T13:40:12.999Z</time></trkpt><trkpt lat="44.24737647703256" lon="1.128778036993806"><ele>106.5</ele><time>2026-03-22T13:40:13.999Z</time></trkpt><trkpt lat="44.247304483478395" lon="1.128618157245467"><ele>105.75</ele><time>2026-03-22T13:40:14.999Z</time></trkpt><trkpt lat="44.24723706815055" lon="1.1284690802473243"><ele>105.0</ele><time>2026-03-22T13:40:15.999Z</time></trkpt><trkpt lat="44.247186756127604" lon="1.1283174060594605"><ele>104.6</ele><time>2026-03-22T13:40:16.999Z</time></trkpt><trkpt lat="44.24711511831828" lon="1.1282011765198947"><ele>104.2</ele><time>2026-03-22T13:40:17.999Z</time></trkpt><trkpt lat="44.2470495784656" lon="1.1280923286868287"><ele>103.80000000000001</ele><time>2026-03-22T13:40:18.999Z</time></trkpt><trkpt lat="44.24699026967775" lon="1.1279919146342663"><ele>103.4</ele><time>2026-03-22T13:40:19.999Z</time></trkpt><trkpt lat="44.24693618747995" lon="1.1279087910015266"><ele>103.0</ele><time>2026-03-22T13:40:20.999Z</time></trkpt><trkpt lat="44.24688375020709" lon="1.1278209325074415"><ele>103.0</ele><time>2026-03-22T13:40:21.999Z</time></trkpt><trkpt lat="44.24682381416784" lon="1.1277247762241556"><ele>103.0</ele><time>2026-03-22T13:40:22.999Z</time></trkpt><trkpt lat="44.24673924125046" lon="1.1275627496383158"><ele>103.0</ele><time>2026-03-22T13:40:23.999Z</time></trkpt><trkpt lat="44.24661525999841" lon="1.1273451443136377"><ele>103.0</ele><time>2026-03-22T13:40:24.999Z</time></trkpt><trkpt lat="44.24646092049688" lon="1.1270818780840608"><ele>101.5</ele><time>2026-03-22T13:40:25.999Z</time></trkpt><trkpt lat="44.246275168523965" lon="1.126774069136212"><ele>100.0</ele><time>2026-03-22T13:40:26.999Z</time></trkpt><trkpt lat="44.24610415519197" lon="1.1264854921391318"><ele>99.66666666666667</ele><time>2026-03-22T13:40:27.999Z</time></trkpt><trkpt lat="44.24595977067967" lon="1.126239621858524"><ele>99.33333333333334</ele><time>2026-03-22T13:40:28.999Z</time></trkpt><trkpt lat="44.245826066366334" lon="1.1260110156252379"><ele>99.0</ele><time>2026-03-22T13:40:29.999Z</time></trkpt><trkpt lat="44.24570021914853" lon="1.1257960024594258"><ele>99.0</ele><time>2026-03-22T13:40:30.999Z</time></trkpt><trkpt lat="44.24557908623684" lon="1.1255925113900411"><ele>99.0</ele><time>2026-03-22T13:40:31.999Z</time></trkpt><trkpt lat="44.24546177826123" lon="1.125393021028865"><ele>99.0</ele><time>2026-03-22T13:40:32.999Z</time></trkpt><trkpt lat="44.245345349397674" lon="1.125191731697135"><ele>99.0</ele><time>2026-03-22T13:40:33.999Z</time></trkpt><trkpt lat="44.2452247335689" lon="1.1249874421156016"><ele>99.0</ele><time>2026-03-22T13:40:34.999Z</time></trkpt><trkpt lat="44.24510513188151" lon="1.1247774704758875"><ele>99.0</ele><time>2026-03-22T13:40:35.999Z</time></trkpt><trkpt lat="44.244981423954066" lon="1.124575105699889"><ele>99.0</ele><time>2026-03-22T13:40:36.999Z</time></trkpt><trkpt lat="44.24486399777308" lon="1.1243486277505632"><ele>99.0</ele><time>2026-03-22T13:40:37.999Z</time></trkpt><trkpt lat="44.24473310960264" lon="1.1241287594162261"><ele>99.0</ele><time>2026-03-22T13:40:38.999Z</time></trkpt><trkpt lat="44.24460578226694" lon="1.1239148724172012"><ele>99.0</ele><time>2026-03-22T13:40:39.999Z</time></trkpt><trkpt lat="44.24449073019357" lon="1.1237201808912456"><ele>99.0</ele><time>2026-03-22T13:40:40.999Z</time></trkpt><trkpt lat="44.244382226964845" lon="1.1235350156848638"><ele>99.0</ele><time>2026-03-22T13:40:41.999Z</time></trkpt><trkpt lat="44.244279877736496" lon="1.1233603527087281"><ele>98.66666666666666</ele><time>2026-03-22T13:40:42.999Z</time></trkpt><trkpt lat="44.24417795394394" lon="1.1231864157110198"><ele>98.33333333333333</ele><time>2026-03-22T13:40:43.999Z</time></trkpt><trkpt lat="44.24407412697931" lon="1.1230092309515616"><ele>98.0</ele><time>2026-03-22T13:40:44.999Z</time></trkpt><trkpt lat="44.243957948597014" lon="1.1228463326742046"><ele>98.0</ele><time>2026-03-22T13:40:45.999Z</time></trkpt><trkpt lat="44.24386586970211" lon="1.1226541123314524"><ele>98.0</ele><time>2026-03-22T13:40:46.999Z</time></trkpt><trkpt lat="44.24375977919751" lon="1.1224735573788422"><ele>98.0</ele><time>2026-03-22T13:40:47.999Z</time></trkpt><trkpt lat="44.24365497157175" lon="1.1222951859367047"><ele>98.33333333333333</ele><time>2026-03-22T13:40:48.998Z</time></trkpt><trkpt lat="44.243550061851295" lon="1.1221166405843788"><ele>98.66666666666666</ele><time>2026-03-22T13:40:49.998Z</time></trkpt><trkpt lat="44.24344489209884" lon="1.1219376526416818"><ele>99.0</ele><time>2026-03-22T13:40:50.998Z</time></trkpt><trkpt lat="44.243325789957545" lon="1.1217714939818086"><ele>99.0</ele><time>2026-03-22T13:40:51.999Z</time></trkpt><trkpt lat="44.24321663453416" lon="1.1215825733622888"><ele>99.0</ele><time>2026-03-22T13:40:52.999Z</time></trkpt><trkpt lat="44.24311270685169" lon="1.1213931038465383"><ele>99.0</ele><time>2026-03-22T13:40:53.999Z</time></trkpt><trkpt lat="44.24300301157394" lon="1.1212066319049638"><ele>99.0</ele><time>2026-03-22T13:40:54.999Z</time></trkpt><trkpt lat="44.24289929464943" lon="1.1210251863834197"><ele>99.0</ele><time>2026-03-22T13:40:55.999Z</time></trkpt><trkpt lat="44.24281572541229" lon="1.12082529589788"><ele>99.0</ele><time>2026-03-22T13:40:56.999Z</time></trkpt><trkpt lat="44.24273294446314" lon="1.1206300759055028"><ele>99.0</ele><time>2026-03-22T13:40:57.999Z</time></trkpt><trkpt lat="44.242660001254606" lon="1.1204241286601158"><ele>99.0</ele><time>2026-03-22T13:40:58.999Z</time></trkpt><trkpt lat="44.2425954079515" lon="1.1201922046640702"><ele>99.0</ele><time>2026-03-22T13:40:59.999Z</time></trkpt><trkpt lat="44.24254046869213" lon="1.1199316386069456"><ele>99.0</ele><time>2026-03-22T13:41:00.999Z</time></trkpt><trkpt lat="44.24250304021473" lon="1.1196801361413546"><ele>99.0</ele><time>2026-03-22T13:41:01.999Z</time></trkpt><trkpt lat="44.24248300875147" lon="1.1194349909310624"><ele>99.0</ele><time>2026-03-22T13:41:02.999Z</time></trkpt><trkpt lat="44.24247770552589" lon="1.119194586695141"><ele>99.33333333333334</ele><time>2026-03-22T13:41:03.999Z</time></trkpt><trkpt lat="44.242480979602476" lon="1.1189513150539834"><ele>99.66666666666667</ele><time>2026-03-22T13:41:04.999Z</time></trkpt><trkpt lat="44.24249608661064" lon="1.1187042820839415"><ele>100.0</ele><time>2026-03-22T13:41:05.999Z</time></trkpt><trkpt lat="44.24251074299776" lon="1.1184568690434769"><ele>100.0</ele><time>2026-03-22T13:41:06.999Z</time></trkpt><trkpt lat="44.242524340498164" lon="1.118213644273019"><ele>100.0</ele><time>2026-03-22T13:41:07.999Z</time></trkpt><trkpt lat="44.242533263823056" lon="1.1179768690221081"><ele>100.0</ele><time>2026-03-22T13:41:08.999Z</time></trkpt><trkpt lat="44.24253786828402" lon="1.1177688501584375"><ele>100.0</ele><time>2026-03-22T13:41:09.999Z</time></trkpt><trkpt lat="44.242536932684" lon="1.1175662252364247"><ele>100.0</ele><time>2026-03-22T13:41:10.999Z</time></trkpt><trkpt lat="44.242524607331454" lon="1.1173668806086416"><ele>100.0</ele><time>2026-03-22T13:41:11.999Z</time></trkpt><trkpt lat="44.24250455160537" lon="1.1171646536186455"><ele>100.0</ele><time>2026-03-22T13:41:12.999Z</time></trkpt><trkpt lat="44.24247549394601" lon="1.1169615952994632"><ele>99.66666666666667</ele><time>2026-03-22T13:41:13.999Z</time></trkpt><trkpt lat="44.24242616625502" lon="1.11674479044797"><ele>99.33333333333334</ele><time>2026-03-22T13:41:14.999Z</time></trkpt><trkpt lat="44.24235684346199" lon="1.1165090717042498"><ele>99.0</ele><time>2026-03-22T13:41:15.999Z</time></trkpt><trkpt lat="44.242247693800834" lon="1.1162524800511435"><ele>100.0</ele><time>2026-03-22T13:41:16.999Z</time></trkpt><trkpt lat="44.24215988742544" lon="1.115967175501575"><ele>101.0</ele><time>2026-03-22T13:41:17.999Z</time></trkpt><trkpt lat="44.24204803421789" lon="1.1156713608977917"><ele>101.0</ele><time>2026-03-22T13:41:18.999Z</time></trkpt><trkpt lat="44.241925243428916" lon="1.1153530516034655"><ele>101.0</ele><time>2026-03-22T13:41:19.999Z</time></trkpt><trkpt lat="44.24178950266267" lon="1.1149998357199993"><ele>101.0</ele><time>2026-03-22T13:41:20.999Z</time></trkpt><trkpt lat="44.241662683229144" lon="1.1146696070586457"><ele>101.0</ele><time>2026-03-22T13:41:21.999Z</time></trkpt><trkpt lat="44.241550299788784" lon="1.1143759221324558"><ele>100.0</ele><time>2026-03-22T13:41:22.999Z</time></trkpt><trkpt lat="44.2414371529882" lon="1.1140783354902624"><ele>99.0</ele><time>2026-03-22T13:41:23.999Z</time></trkpt><trkpt lat="44.24132247707481" lon="1.113776726960704"><ele>99.0</ele><time>2026-03-22T13:41:24.999Z</time></trkpt><trkpt lat="44.241207810793995" lon="1.1134751438562478"><ele>99.0</ele><time>2026-03-22T13:41:25.999Z</time></trkpt><trkpt lat="44.24109580166773" lon="1.113180549374957"><ele>99.5</ele><time>2026-03-22T13:41:26.999Z</time></trkpt><trkpt lat="44.240985372849536" lon="1.1128901111190737"><ele>100.0</ele><time>2026-03-22T13:41:27.999Z</time></trkpt><trkpt lat="44.24087147525561" lon="1.112594002189023"><ele>101.0</ele><time>2026-03-22T13:41:28.999Z</time></trkpt><trkpt lat="44.2407514347985" lon="1.1122833158848289"><ele>102.0</ele><time>2026-03-22T13:41:29.999Z</time></trkpt><trkpt lat="44.24063322013932" lon="1.1119734374893213"><ele>101.5</ele><time>2026-03-22T13:41:30.999Z</time></trkpt><trkpt lat="44.24051692559809" lon="1.1116697379643874"><ele>101.0</ele><time>2026-03-22T13:41:31.999Z</time></trkpt><trkpt lat="44.240404446375244" lon="1.1113780863877452"><ele>101.0</ele><time>2026-03-22T13:41:32.999Z</time></trkpt><trkpt lat="44.240295534905066" lon="1.111094403342781"><ele>101.0</ele><time>2026-03-22T13:41:33.999Z</time></trkpt><trkpt lat="44.24018698739856" lon="1.1108099531982403"><ele>101.5</ele><time>2026-03-22T13:41:34.999Z</time></trkpt><trkpt lat="44.24007575334348" lon="1.110518462950616"><ele>102.0</ele><time>2026-03-22T13:41:35.999Z</time></trkpt><trkpt lat="44.239962694371634" lon="1.1102267851148109"><ele>102.0</ele><time>2026-03-22T13:41:36.999Z</time></trkpt><trkpt lat="44.23984744899235" lon="1.1099393671184496"><ele>102.0</ele><time>2026-03-22T13:41:37.999Z</time></trkpt><trkpt lat="44.2397349492336" lon="1.1096484378815061"><ele>102.0</ele><time>2026-03-22T13:41:38.999Z</time></trkpt><trkpt lat="44.239623365299224" lon="1.1093577234538265"><ele>102.0</ele><time>2026-03-22T13:41:39.999Z</time></trkpt><trkpt lat="44.23951256157592" lon="1.1090686948884945"><ele>102.0</ele><time>2026-03-22T13:41:40.999Z</time></trkpt><trkpt lat="44.239402187468784" lon="1.108780786991254"><ele>102.0</ele><time>2026-03-22T13:41:41.999Z</time></trkpt><trkpt lat="44.23929168544344" lon="1.1084930151489039"><ele>102.0</ele><time>2026-03-22T13:41:42.999Z</time></trkpt><trkpt lat="44.23917985422243" lon="1.1082007118598176"><ele>102.0</ele><time>2026-03-22T13:41:43.999Z</time></trkpt><trkpt lat="44.23906985145041" lon="1.107912552289738"><ele>101.5</ele><time>2026-03-22T13:41:44.999Z</time></trkpt><trkpt lat="44.23896027584752" lon="1.1076255118996141"><ele>101.0</ele><time>2026-03-22T13:41:45.999Z</time></trkpt><trkpt lat="44.23884836584314" lon="1.1073360865816164"><ele>101.0</ele><time>2026-03-22T13:41:46.999Z</time></trkpt><trkpt lat="44.238733615456994" lon="1.107037465254723"><ele>101.0</ele><time>2026-03-22T13:41:47.999Z</time></trkpt><trkpt lat="44.23862109921543" lon="1.106743225566741"><ele>100.5</ele><time>2026-03-22T13:41:48.999Z</time></trkpt><trkpt lat="44.23850674695895" lon="1.1064447207480397"><ele>100.0</ele><time>2026-03-22T13:41:49.999Z</time></trkpt><trkpt lat="44.23839037943901" lon="1.1061420764960868"><ele>100.0</ele><time>2026-03-22T13:41:50.999Z</time></trkpt><trkpt lat="44.23827521490565" lon="1.1058425607739437"><ele>100.0</ele><time>2026-03-22T13:41:51.999Z</time></trkpt><trkpt lat="44.238163233001735" lon="1.1055494735574252"><ele>99.5</ele><time>2026-03-22T13:41:52.999Z</time></trkpt><trkpt lat="44.238055809490625" lon="1.1052679469619704"><ele>99.0</ele><time>2026-03-22T13:41:53.999Z</time></trkpt><trkpt lat="44.237951530188354" lon="1.1049946607193213"><ele>99.66666666666666</ele><time>2026-03-22T13:41:54.999Z</time></trkpt><trkpt lat="44.23785558046786" lon="1.104743203516878"><ele>100.33333333333333</ele><time>2026-03-22T13:41:55.999Z</time></trkpt><trkpt lat="44.237766220932095" lon="1.1044980395911035"><ele>101.0</ele><time>2026-03-22T13:41:56.999Z</time></trkpt><trkpt lat="44.23769430111103" lon="1.1042311314924276"><ele>101.5</ele><time>2026-03-22T13:41:57.999Z</time></trkpt><trkpt lat="44.237637275140905" lon="1.1039327519013151"><ele>102.0</ele><time>2026-03-22T13:41:58.999Z</time></trkpt><trkpt lat="44.23759292963795" lon="1.1036076316318755"><ele>102.0</ele><time>2026-03-22T13:41:59.999Z</time></trkpt><trkpt lat="44.237555981920195" lon="1.1032735916297198"><ele>102.0</ele><time>2026-03-22T13:42:00.999Z</time></trkpt><trkpt lat="44.23750736295911" lon="1.1029449530011473"><ele>101.5</ele><time>2026-03-22T13:42:01.999Z</time></trkpt><trkpt lat="44.2374906886998" lon="1.1026187356755297"><ele>101.0</ele><time>2026-03-22T13:42:02.999Z</time></trkpt><trkpt lat="44.23745963724887" lon="1.1023015202913338"><ele>100.5</ele><time>2026-03-22T13:42:03.999Z</time></trkpt><trkpt lat="44.23742729853697" lon="1.1019806482339212"><ele>100.0</ele><time>2026-03-22T13:42:04.999Z</time></trkpt><trkpt lat="44.23739447236178" lon="1.1016698683589772"><ele>101.0</ele><time>2026-03-22T13:42:05.999Z</time></trkpt><trkpt lat="44.237362249436345" lon="1.1013647998393736"><ele>102.0</ele><time>2026-03-22T13:42:06.999Z</time></trkpt><trkpt lat="44.23732967874269" lon="1.101056434305457"><ele>103.0</ele><time>2026-03-22T13:42:07.999Z</time></trkpt><trkpt lat="44.23728091466888" lon="1.1007489728305022"><ele>99.0</ele><time>2026-03-22T13:42:08.999Z</time></trkpt><trkpt lat="44.23726342348644" lon="1.1004291469437673"><ele>95.0</ele><time>2026-03-22T13:42:09.999Z</time></trkpt><trkpt lat="44.23721229053555" lon="1.100116728488163"><ele>95.5</ele><time>2026-03-22T13:42:10.999Z</time></trkpt><trkpt lat="44.237177839661776" lon="1.0997945007662293"><ele>96.0</ele><time>2026-03-22T13:42:11.999Z</time></trkpt><trkpt lat="44.23714665510539" lon="1.0994692908775932"><ele>96.0</ele><time>2026-03-22T13:42:12.999Z</time></trkpt><trkpt lat="44.237114884406" lon="1.0991445509274682"><ele>96.0</ele><time>2026-03-22T13:42:13.999Z</time></trkpt><trkpt lat="44.23708206615998" lon="1.0988182530939097"><ele>96.5</ele><time>2026-03-22T13:42:14.999Z</time></trkpt><trkpt lat="44.23704922209961" lon="1.0984907011632752"><ele>97.0</ele><time>2026-03-22T13:42:15.999Z</time></trkpt><trkpt lat="44.237015952867836" lon="1.0981599850005028"><ele>99.0</ele><time>2026-03-22T13:42:16.999Z</time></trkpt><trkpt lat="44.236981412181855" lon="1.0978308745575374"><ele>101.0</ele><time>2026-03-22T13:42:17.999Z</time></trkpt><trkpt lat="44.236945893774866" lon="1.0975016602343566"><ele>101.0</ele><time>2026-03-22T13:42:18.999Z</time></trkpt><trkpt lat="44.236906003844894" lon="1.0971647331465004"><ele>101.0</ele><time>2026-03-22T13:42:19.999Z</time></trkpt><trkpt lat="44.23686956346041" lon="1.0968263531015314"><ele>100.0</ele><time>2026-03-22T13:42:20.999Z</time></trkpt><trkpt lat="44.23682919013624" lon="1.0964829193338324"><ele>99.0</ele><time>2026-03-22T13:42:21.999Z</time></trkpt><trkpt lat="44.236798743752345" lon="1.0961463948714723"><ele>99.0</ele><time>2026-03-22T13:42:22.999Z</time></trkpt><trkpt lat="44.23676810046197" lon="1.0958217491312146"><ele>99.0</ele><time>2026-03-22T13:42:23.999Z</time></trkpt><trkpt lat="44.236731801971125" lon="1.0955273510161088"><ele>99.0</ele><time>2026-03-22T13:42:24.999Z</time></trkpt><trkpt lat="44.23668672786053" lon="1.0952561172729631"><ele>98.66666666666666</ele><time>2026-03-22T13:42:25.999Z</time></trkpt><trkpt lat="44.23661000628296" lon="1.0949958876262615"><ele>98.33333333333333</ele><time>2026-03-22T13:42:26.999Z</time></trkpt><trkpt lat="44.23650127591468" lon="1.0947535778007527"><ele>98.0</ele><time>2026-03-22T13:42:27.999Z</time></trkpt><trkpt lat="44.23637607325739" lon="1.094527045963924"><ele>98.0</ele><time>2026-03-22T13:42:28.999Z</time></trkpt><trkpt lat="44.23623395971172" lon="1.094314975444202"><ele>98.0</ele><time>2026-03-22T13:42:29.999Z</time></trkpt><trkpt lat="44.23609399761458" lon="1.0940947435042627"><ele>98.0</ele><time>2026-03-22T13:42:30.999Z</time></trkpt><trkpt lat="44.235979152925744" lon="1.0938405016577621"><ele>99.0</ele><time>2026-03-22T13:42:31.999Z</time></trkpt><trkpt lat="44.23588361696433" lon="1.0935312721291455"><ele>100.0</ele><time>2026-03-22T13:42:32.999Z</time></trkpt><trkpt lat="44.235791348786826" lon="1.0931869734516302"><ele>101.0</ele><time>2026-03-22T13:42:33.999Z</time></trkpt><trkpt lat="44.23570370356142" lon="1.0928274562984812"><ele>102.0</ele><time>2026-03-22T13:42:34.999Z</time></trkpt><trkpt lat="44.235628098865135" lon="1.092483627416938"><ele>98.5</ele><time>2026-03-22T13:42:35.999Z</time></trkpt><trkpt lat="44.235553064901836" lon="1.0921473144186185"><ele>95.0</ele><time>2026-03-22T13:42:36.999Z</time></trkpt><trkpt lat="44.235474485694475" lon="1.0918202126103245"><ele>95.5</ele><time>2026-03-22T13:42:37.999Z</time></trkpt><trkpt lat="44.23539385635587" lon="1.0914980499734914"><ele>96.0</ele><time>2026-03-22T13:42:38.999Z</time></trkpt><trkpt lat="44.23532009329875" lon="1.0911803069416104"><ele>96.0</ele><time>2026-03-22T13:42:39.999Z</time></trkpt><trkpt lat="44.23524039323301" lon="1.0908588379535487"><ele>96.0</ele><time>2026-03-22T13:42:40.999Z</time></trkpt><trkpt lat="44.23516266171375" lon="1.0905380611996083"><ele>97.0</ele><time>2026-03-22T13:42:41.999Z</time></trkpt><trkpt lat="44.23508349779713" lon="1.0902153992195918"><ele>98.0</ele><time>2026-03-22T13:42:42.999Z</time></trkpt><trkpt lat="44.23500994723532" lon="1.0898947956901706"><ele>99.0</ele><time>2026-03-22T13:42:43.999Z</time></trkpt><trkpt lat="44.2349547716793" lon="1.0895642266566035"><ele>100.0</ele><time>2026-03-22T13:42:44.999Z</time></trkpt><trkpt lat="44.2349208829297" lon="1.0892285716233348"><ele>101.0</ele><time>2026-03-22T13:42:45.999Z</time></trkpt><trkpt lat="44.234900860248864" lon="1.0888939380793874"><ele>102.0</ele><time>2026-03-22T13:42:46.999Z</time></trkpt><trkpt lat="44.234894512183" lon="1.0885801085536009"><ele>102.0</ele><time>2026-03-22T13:42:47.999Z</time></trkpt><trkpt lat="44.23489103295399" lon="1.0882933855333992"><ele>102.0</ele><time>2026-03-22T13:42:48.999Z</time></trkpt><trkpt lat="44.23487746104008" lon="1.0880308914491477"><ele>102.0</ele><time>2026-03-22T13:42:49.999Z</time></trkpt><trkpt lat="44.23484504142526" lon="1.0877753356116981"><ele>101.33333333333334</ele><time>2026-03-22T13:42:50.999Z</time></trkpt><trkpt lat="44.23476134830101" lon="1.0875316825363168"><ele>100.66666666666667</ele><time>2026-03-22T13:42:51.999Z</time></trkpt><trkpt lat="44.23465760138724" lon="1.0872891629826476"><ele>100.0</ele><time>2026-03-22T13:42:52.999Z</time></trkpt><trkpt lat="44.23453144155699" lon="1.0870504640803245"><ele>99.5</ele><time>2026-03-22T13:42:53.999Z</time></trkpt><trkpt lat="44.234383958363196" lon="1.0868197391110594"><ele>99.0</ele><time>2026-03-22T13:42:55Z</time></trkpt><trkpt lat="44.23421418124687" lon="1.0866049458056442"><ele>97.5</ele><time>2026-03-22T13:42:56Z</time></trkpt><trkpt lat="44.2340395293345" lon="1.0863883382059056"><ele>96.0</ele><time>2026-03-22T13:42:57Z</time></trkpt><trkpt lat="44.23387168721957" lon="1.086155751768482"><ele>96.0</ele><time>2026-03-22T13:42:58Z</time></trkpt><trkpt lat="44.2337224016857" lon="1.085887528411441"><ele>96.0</ele><time>2026-03-22T13:42:59Z</time></trkpt><trkpt lat="44.23358124284125" lon="1.0855884942554261"><ele>100.0</ele><time>2026-03-22T13:43:00Z</time></trkpt><trkpt lat="44.233443957014686" lon="1.0852773423344826"><ele>104.0</ele><time>2026-03-22T13:43:01Z</time></trkpt><trkpt lat="44.233306364017224" lon="1.0849715116161047"><ele>106.0</ele><time>2026-03-22T13:43:02Z</time></trkpt><trkpt lat="44.233164826331524" lon="1.0846765755421308"><ele>108.0</ele><time>2026-03-22T13:43:03Z</time></trkpt><trkpt lat="44.23302444602011" lon="1.084413565893641"><ele>106.33333333333334</ele><time>2026-03-22T13:43:04Z</time></trkpt><trkpt lat="44.232886929783255" lon="1.084179678319684"><ele>104.66666666666667</ele><time>2026-03-22T13:43:05Z</time></trkpt><trkpt lat="44.232742370508106" lon="1.0839511017622974"><ele>103.0</ele><time>2026-03-22T13:43:06Z</time></trkpt><trkpt lat="44.23258478336477" lon="1.08372749868493"><ele>103.0</ele><time>2026-03-22T13:43:07Z</time></trkpt><trkpt lat="44.23242364304076" lon="1.0835005976817036"><ele>103.0</ele><time>2026-03-22T13:43:08Z</time></trkpt><trkpt lat="44.23226937604928" lon="1.0832725198644766"><ele>101.0</ele><time>2026-03-22T13:43:09Z</time></trkpt><trkpt lat="44.23211414720022" lon="1.0830308393495125"><ele>99.0</ele><time>2026-03-22T13:43:10Z</time></trkpt><trkpt lat="44.231954277253955" lon="1.082794225901173"><ele>99.0</ele><time>2026-03-22T13:43:11Z</time></trkpt><trkpt lat="44.23178119719186" lon="1.0825727360294217"><ele>99.0</ele><time>2026-03-22T13:43:12Z</time></trkpt><trkpt lat="44.231611303304625" lon="1.0823311078035371"><ele>96.5</ele><time>2026-03-22T13:43:13Z</time></trkpt><trkpt lat="44.23143955735784" lon="1.0821002462413463"><ele>94.0</ele><time>2026-03-22T13:43:14Z</time></trkpt><trkpt lat="44.231286391687526" lon="1.0818414408490002"><ele>94.0</ele><time>2026-03-22T13:43:15Z</time></trkpt><trkpt lat="44.231106807480515" lon="1.0816209769366019"><ele>94.0</ele><time>2026-03-22T13:43:16Z</time></trkpt><trkpt lat="44.23094351323463" lon="1.081389741859005"><ele>94.0</ele><time>2026-03-22T13:43:17Z</time></trkpt><trkpt lat="44.230779351493204" lon="1.081163327307958"><ele>94.0</ele><time>2026-03-22T13:43:18Z</time></trkpt><trkpt lat="44.230611478232994" lon="1.0809284431131208"><ele>96.0</ele><time>2026-03-22T13:43:19Z</time></trkpt><trkpt lat="44.230444942094316" lon="1.0806929300651598"><ele>98.0</ele><time>2026-03-22T13:43:20Z</time></trkpt><trkpt lat="44.230290223488716" lon="1.0804337074694537"><ele>98.0</ele><time>2026-03-22T13:43:21Z</time></trkpt><trkpt lat="44.23012264996986" lon="1.0801836177764141"><ele>98.0</ele><time>2026-03-22T13:43:22Z</time></trkpt><trkpt lat="44.22995758085558" lon="1.0799200850522008"><ele>96.5</ele><time>2026-03-22T13:43:23Z</time></trkpt><trkpt lat="44.22978492493101" lon="1.0796299743900208"><ele>95.0</ele><time>2026-03-22T13:43:24Z</time></trkpt><trkpt lat="44.229600641967146" lon="1.079347685964295"><ele>96.5</ele><time>2026-03-22T13:43:25Z</time></trkpt><trkpt lat="44.22944992865641" lon="1.0790685826851465"><ele>98.0</ele><time>2026-03-22T13:43:26Z</time></trkpt><trkpt lat="44.229294335148886" lon="1.0788071814554279"><ele>98.0</ele><time>2026-03-22T13:43:27Z</time></trkpt><trkpt lat="44.22913928509183" lon="1.0785466098920204"><ele>98.0</ele><time>2026-03-22T13:43:28Z</time></trkpt><trkpt lat="44.22898097931833" lon="1.0782782906813055"><ele>96.5</ele><time>2026-03-22T13:43:29Z</time></trkpt><trkpt lat="44.22881036263793" lon="1.0779952163187774"><ele>95.0</ele><time>2026-03-22T13:43:30Z</time></trkpt><trkpt lat="44.228625171322456" lon="1.0776884883675364"><ele>96.5</ele><time>2026-03-22T13:43:31Z</time></trkpt><trkpt lat="44.22844546589891" lon="1.0773466484732455"><ele>98.0</ele><time>2026-03-22T13:43:32Z</time></trkpt><trkpt lat="44.228241834615915" lon="1.0770008458985554"><ele>96.0</ele><time>2026-03-22T13:43:33Z</time></trkpt><trkpt lat="44.22804293814366" lon="1.076663083489235"><ele>94.0</ele><time>2026-03-22T13:43:34Z</time></trkpt><trkpt lat="44.22786684164664" lon="1.0763610972990043"><ele>94.0</ele><time>2026-03-22T13:43:35Z</time></trkpt><trkpt lat="44.227700911938875" lon="1.0760767940517393"><ele>94.0</ele><time>2026-03-22T13:43:36Z</time></trkpt><trkpt lat="44.22753542063961" lon="1.0758276620580738"><ele>94.66666666666666</ele><time>2026-03-22T13:43:37Z</time></trkpt><trkpt lat="44.227404196276396" lon="1.0755636855920332"><ele>95.33333333333333</ele><time>2026-03-22T13:43:38Z</time></trkpt><trkpt lat="44.22725482196467" lon="1.0753522509958884"><ele>96.0</ele><time>2026-03-22T13:43:39Z</time></trkpt><trkpt lat="44.227115408785465" lon="1.0751603137250403"><ele>96.0</ele><time>2026-03-22T13:43:40Z</time></trkpt><trkpt lat="44.2269588293919" lon="1.0750082363090225"><ele>96.0</ele><time>2026-03-22T13:43:41Z</time></trkpt><trkpt lat="44.22677613088807" lon="1.0748856676972212"><ele>96.0</ele><time>2026-03-22T13:43:42Z</time></trkpt><trkpt lat="44.22656846892697" lon="1.0747779769638162"><ele>95.66666666666667</ele><time>2026-03-22T13:43:43Z</time></trkpt><trkpt lat="44.226368875553916" lon="1.0746600355230282"><ele>95.33333333333334</ele><time>2026-03-22T13:43:44Z</time></trkpt><trkpt lat="44.22618102519585" lon="1.0745493718817913"><ele>95.0</ele><time>2026-03-22T13:43:45Z</time></trkpt><trkpt lat="44.22600401527664" lon="1.0744108983659006"><ele>95.0</ele><time>2026-03-22T13:43:46Z</time></trkpt><trkpt lat="44.22583010926042" lon="1.0742344045002212"><ele>95.0</ele><time>2026-03-22T13:43:47Z</time></trkpt><trkpt lat="44.22567041789615" lon="1.0740096652375875"><ele>95.0</ele><time>2026-03-22T13:43:48Z</time></trkpt><trkpt lat="44.225501297379594" lon="1.0737445856693886"><ele>94.5</ele><time>2026-03-22T13:43:49Z</time></trkpt><trkpt lat="44.22531513708885" lon="1.0734639026797306"><ele>94.0</ele><time>2026-03-22T13:43:50Z</time></trkpt><trkpt lat="44.22514049093417" lon="1.073190832473795"><ele>93.0</ele><time>2026-03-22T13:43:51Z</time></trkpt><trkpt lat="44.22496842680685" lon="1.0729375862521253"><ele>92.0</ele><time>2026-03-22T13:43:52Z</time></trkpt><trkpt lat="44.22481001724178" lon="1.0727019553472095"><ele>92.0</ele><time>2026-03-22T13:43:53Z</time></trkpt><trkpt lat="44.224659502032836" lon="1.072471171882956"><ele>92.0</ele><time>2026-03-22T13:43:54Z</time></trkpt><trkpt lat="44.22451613301714" lon="1.0722539499302244"><ele>92.0</ele><time>2026-03-22T13:43:55Z</time></trkpt><trkpt lat="44.22438155321443" lon="1.0720461765674165"><ele>91.66666666666667</ele><time>2026-03-22T13:43:56Z</time></trkpt><trkpt lat="44.22424787132258" lon="1.0718319511724215"><ele>91.33333333333333</ele><time>2026-03-22T13:43:57Z</time></trkpt><trkpt lat="44.22410984718339" lon="1.0716174085542784"><ele>91.0</ele><time>2026-03-22T13:43:58Z</time></trkpt><trkpt lat="44.22396774496478" lon="1.0713986989888287"><ele>91.0</ele><time>2026-03-22T13:43:59Z</time></trkpt><trkpt lat="44.223824407110705" lon="1.0711774134510363"><ele>91.0</ele><time>2026-03-22T13:44:00Z</time></trkpt><trkpt lat="44.223677068772766" lon="1.0709596859099104"><ele>91.0</ele><time>2026-03-22T13:44:01Z</time></trkpt><trkpt lat="44.22352239055766" lon="1.0707477080245915"><ele>91.33333333333333</ele><time>2026-03-22T13:44:02Z</time></trkpt><trkpt lat="44.22335957904222" lon="1.0705419157797813"><ele>91.66666666666667</ele><time>2026-03-22T13:44:03Z</time></trkpt><trkpt lat="44.22319359783931" lon="1.0703395519155823"><ele>92.0</ele><time>2026-03-22T13:44:04Z</time></trkpt><trkpt lat="44.223024112189776" lon="1.0701375218814662"><ele>92.0</ele><time>2026-03-22T13:44:05Z</time></trkpt><trkpt lat="44.22285341681535" lon="1.0699327334122455"><ele>92.0</ele><time>2026-03-22T13:44:06Z</time></trkpt><trkpt lat="44.222685715239464" lon="1.069726150254581"><ele>92.0</ele><time>2026-03-22T13:44:07Z</time></trkpt><trkpt lat="44.222520442690964" lon="1.0695213224779714"><ele>92.0</ele><time>2026-03-22T13:44:08Z</time></trkpt><trkpt lat="44.222354650028024" lon="1.0693256362007102"><ele>92.0</ele><time>2026-03-22T13:44:09Z</time></trkpt><trkpt lat="44.22218810393985" lon="1.0691260055742633"><ele>92.0</ele><time>2026-03-22T13:44:10Z</time></trkpt><trkpt lat="44.222018526817955" lon="1.0689188519615613"><ele>91.66666666666667</ele><time>2026-03-22T13:44:11Z</time></trkpt><trkpt lat="44.22184843696823" lon="1.0687107636533415"><ele>91.33333333333333</ele><time>2026-03-22T13:44:12Z</time></trkpt><trkpt lat="44.22168224728853" lon="1.0685064686193033"><ele>91.0</ele><time>2026-03-22T13:44:13Z</time></trkpt><trkpt lat="44.221523117208356" lon="1.068311668031071"><ele>90.66666666666666</ele><time>2026-03-22T13:44:14Z</time></trkpt><trkpt lat="44.22136589928522" lon="1.068119746549734"><ele>90.33333333333333</ele><time>2026-03-22T13:44:15Z</time></trkpt><trkpt lat="44.22122289340743" lon="1.0679136499581479"><ele>90.0</ele><time>2026-03-22T13:44:16Z</time></trkpt><trkpt lat="44.22106016372476" lon="1.0677429988550828"><ele>90.0</ele><time>2026-03-22T13:44:17Z</time></trkpt><trkpt lat="44.22090939271413" lon="1.0675600972993349"><ele>90.0</ele><time>2026-03-22T13:44:18Z</time></trkpt><trkpt lat="44.22076554536249" lon="1.0673896383440549"><ele>90.0</ele><time>2026-03-22T13:44:19Z</time></trkpt><trkpt lat="44.220633428710805" lon="1.067229407903458"><ele>90.33333333333333</ele><time>2026-03-22T13:44:20Z</time></trkpt><trkpt lat="44.22050606634621" lon="1.0670737667307442"><ele>90.66666666666666</ele><time>2026-03-22T13:44:21Z</time></trkpt><trkpt lat="44.22038691194541" lon="1.0669259549724668"><ele>91.0</ele><time>2026-03-22T13:44:22Z</time></trkpt><trkpt lat="44.22027751347185" lon="1.0667886786831409"><ele>91.0</ele><time>2026-03-22T13:44:23Z</time></trkpt><trkpt lat="44.220175979458304" lon="1.066664826228526"><ele>91.0</ele><time>2026-03-22T13:44:24Z</time></trkpt><trkpt lat="44.22007077606652" lon="1.0665458050956143"><ele>91.0</ele><time>2026-03-22T13:44:25Z</time></trkpt><trkpt lat="44.21996701913535" lon="1.0664346352693055"><ele>91.0</ele><time>2026-03-22T13:44:26Z</time></trkpt><trkpt lat="44.21987199234339" lon="1.0663375176298573"><ele>90.75</ele><time>2026-03-22T13:44:27Z</time></trkpt><trkpt lat="44.219779253015716" lon="1.066241955373868"><ele>90.5</ele><time>2026-03-22T13:44:28Z</time></trkpt><trkpt lat="44.219688417184" lon="1.066137244639525"><ele>90.25</ele><time>2026-03-22T13:44:29Z</time></trkpt><trkpt lat="44.21959951403761" lon="1.066036695619681"><ele>90.0</ele><time>2026-03-22T13:44:30Z</time></trkpt><trkpt lat="44.21952947170601" lon="1.0659298791565843"><ele>90.0</ele><time>2026-03-22T13:44:31Z</time></trkpt><trkpt lat="44.21948566134381" lon="1.0658272905950361"><ele>90.0</ele><time>2026-03-22T13:44:32Z</time></trkpt><trkpt lat="44.21943677369179" lon="1.0657631309031361"><ele>90.0</ele><time>2026-03-22T13:44:33Z</time></trkpt><trkpt lat="44.21930819367428" lon="1.0657606975461562"><ele>90.0</ele><time>2026-03-22T13:44:35Z</time></trkpt><trkpt lat="44.21924434777312" lon="1.0658114557251281"><ele>90.0</ele><time>2026-03-22T13:44:36Z</time></trkpt><trkpt lat="44.21918117734776" lon="1.0658976598030556"><ele>90.0</ele><time>2026-03-22T13:44:37Z</time></trkpt><trkpt lat="44.21906361344734" lon="1.066010737511679"><ele>89.66666666666667</ele><time>2026-03-22T13:44:38Z</time></trkpt><trkpt lat="44.218900291144124" lon="1.0661128942169964"><ele>89.33333333333334</ele><time>2026-03-22T13:44:39Z</time></trkpt><trkpt lat="44.21870080113605" lon="1.066241044102711"><ele>89.0</ele><time>2026-03-22T13:44:40Z</time></trkpt><trkpt lat="44.218479183852594" lon="1.0664007148069703"><ele>89.0</ele><time>2026-03-22T13:44:41Z</time></trkpt><trkpt lat="44.21823065510629" lon="1.0665656310928415"><ele>89.0</ele><time>2026-03-22T13:44:42Z</time></trkpt><trkpt lat="44.21798814585208" lon="1.0667189337873602"><ele>88.0</ele><time>2026-03-22T13:44:43Z</time></trkpt><trkpt lat="44.21776433395736" lon="1.066889237938508"><ele>87.0</ele><time>2026-03-22T13:44:44Z</time></trkpt><trkpt lat="44.21754323246703" lon="1.067076401466886"><ele>87.0</ele><time>2026-03-22T13:44:45Z</time></trkpt><trkpt lat="44.21733439326183" lon="1.0672626283098907"><ele>87.0</ele><time>2026-03-22T13:44:46Z</time></trkpt><trkpt lat="44.217139745582784" lon="1.067432760981227"><ele>87.0</ele><time>2026-03-22T13:44:47Z</time></trkpt><trkpt lat="44.21695068145615" lon="1.0675245377534937"><ele>87.0</ele><time>2026-03-22T13:44:48Z</time></trkpt><trkpt lat="44.21676697601698" lon="1.0675234601457728"><ele>87.0</ele><time>2026-03-22T13:44:49Z</time></trkpt><trkpt lat="44.21659013444702" lon="1.0675671592274565"><ele>87.33333333333333</ele><time>2026-03-22T13:44:50Z</time></trkpt><trkpt lat="44.216392460704654" lon="1.0676394459406515"><ele>87.66666666666666</ele><time>2026-03-22T13:44:51Z</time></trkpt><trkpt lat="44.21617570925846" lon="1.0676913541833946"><ele>88.0</ele><time>2026-03-22T13:44:52Z</time></trkpt><trkpt lat="44.21593272777086" lon="1.0677469355038023"><ele>88.0</ele><time>2026-03-22T13:44:53Z</time></trkpt><trkpt lat="44.215708447304465" lon="1.0678004095548843"><ele>88.0</ele><time>2026-03-22T13:44:54Z</time></trkpt><trkpt lat="44.215509671683456" lon="1.067846963299573"><ele>88.0</ele><time>2026-03-22T13:44:55Z</time></trkpt><trkpt lat="44.21532084445417" lon="1.0678667513189188"><ele>88.66666666666666</ele><time>2026-03-22T13:44:56Z</time></trkpt><trkpt lat="44.21514722028905" lon="1.0678402917941086"><ele>89.33333333333333</ele><time>2026-03-22T13:44:57Z</time></trkpt><trkpt lat="44.214977317105124" lon="1.0677667942618903"><ele>90.0</ele><time>2026-03-22T13:44:58Z</time></trkpt><trkpt lat="44.21479339352618" lon="1.0676369154702339"><ele>91.0</ele><time>2026-03-22T13:44:59Z</time></trkpt><trkpt lat="44.21459933230216" lon="1.0674701383373333"><ele>92.0</ele><time>2026-03-22T13:45:00Z</time></trkpt><trkpt lat="44.21439365171526" lon="1.067281402733007"><ele>92.0</ele><time>2026-03-22T13:45:01.001Z</time></trkpt><trkpt lat="44.21417333914752" lon="1.0670739102855524"><ele>92.0</ele><time>2026-03-22T13:45:02.001Z</time></trkpt><trkpt lat="44.21393285803948" lon="1.0668583907856788"><ele>91.5</ele><time>2026-03-22T13:45:03.001Z</time></trkpt><trkpt lat="44.21367538259533" lon="1.0666418813577816"><ele>91.0</ele><time>2026-03-22T13:45:04.001Z</time></trkpt><trkpt lat="44.2134140577542" lon="1.0664261422050914"><ele>91.0</ele><time>2026-03-22T13:45:05.001Z</time></trkpt><trkpt lat="44.21318216517127" lon="1.0662338597155894"><ele>91.0</ele><time>2026-03-22T13:45:06Z</time></trkpt><trkpt lat="44.21296724764847" lon="1.0660538893884428"><ele>90.5</ele><time>2026-03-22T13:45:07Z</time></trkpt><trkpt lat="44.212756417451835" lon="1.0658760776050327"><ele>90.0</ele><time>2026-03-22T13:45:08Z</time></trkpt><trkpt lat="44.212549589051996" lon="1.0656976038836172"><ele>90.0</ele><time>2026-03-22T13:45:09Z</time></trkpt><trkpt lat="44.212354565956126" lon="1.065530926321083"><ele>90.0</ele><time>2026-03-22T13:45:10Z</time></trkpt><trkpt lat="44.21216610093049" lon="1.0653791130469032"><ele>90.0</ele><time>2026-03-22T13:45:11Z</time></trkpt><trkpt lat="44.21196254496489" lon="1.0652429808111599"><ele>91.0</ele><time>2026-03-22T13:45:12Z</time></trkpt><trkpt lat="44.211729104468574" lon="1.0651132010799516"><ele>92.0</ele><time>2026-03-22T13:45:13Z</time></trkpt><trkpt lat="44.21146697781658" lon="1.0649891493811987"><ele>90.5</ele><time>2026-03-22T13:45:14Z</time></trkpt><trkpt lat="44.21118254288943" lon="1.0648550953013873"><ele>89.0</ele><time>2026-03-22T13:45:15Z</time></trkpt><trkpt lat="44.210904302113434" lon="1.064706700655279"><ele>89.0</ele><time>2026-03-22T13:45:16Z</time></trkpt><trkpt lat="44.21065991148922" lon="1.0645733521930285"><ele>89.0</ele><time>2026-03-22T13:45:17Z</time></trkpt><trkpt lat="44.21043507478038" lon="1.0644554853341957"><ele>90.0</ele><time>2026-03-22T13:45:18Z</time></trkpt><trkpt lat="44.210211351775065" lon="1.0643611882952337"><ele>91.0</ele><time>2026-03-22T13:45:19Z</time></trkpt><trkpt lat="44.20997319560478" lon="1.064292006050386"><ele>91.0</ele><time>2026-03-22T13:45:20Z</time></trkpt><trkpt lat="44.209710099486735" lon="1.0642470362141228"><ele>91.0</ele><time>2026-03-22T13:45:21Z</time></trkpt><trkpt lat="44.20941831878933" lon="1.0642144822407174"><ele>91.0</ele><time>2026-03-22T13:45:22Z</time></trkpt><trkpt lat="44.209104075117416" lon="1.064179363956059"><ele>91.0</ele><time>2026-03-22T13:45:23Z</time></trkpt><trkpt lat="44.20877404401162" lon="1.0641315548877535"><ele>90.0</ele><time>2026-03-22T13:45:24Z</time></trkpt><trkpt lat="44.20845374961125" lon="1.0640807031302375"><ele>89.0</ele><time>2026-03-22T13:45:25Z</time></trkpt><trkpt lat="44.20816992503087" lon="1.0640348165259588"><ele>89.0</ele><time>2026-03-22T13:45:26Z</time></trkpt><trkpt lat="44.20790103623648" lon="1.0639934606956407"><ele>89.0</ele><time>2026-03-22T13:45:27Z</time></trkpt><trkpt lat="44.20764819875408" lon="1.0639532703314871"><ele>89.0</ele><time>2026-03-22T13:45:28Z</time></trkpt><trkpt lat="44.207410027027585" lon="1.0639154681424072"><ele>89.0</ele><time>2026-03-22T13:45:29Z</time></trkpt><trkpt lat="44.20718454704601" lon="1.0638814609000802"><ele>88.66666666666667</ele><time>2026-03-22T13:45:30Z</time></trkpt><trkpt lat="44.206973642612134" lon="1.0638559119419702"><ele>88.33333333333333</ele><time>2026-03-22T13:45:31Z</time></trkpt><trkpt lat="44.20678541252676" lon="1.0638677002320946"><ele>88.0</ele><time>2026-03-22T13:45:32Z</time></trkpt><trkpt lat="44.20659304696269" lon="1.0639288221637249"><ele>88.0</ele><time>2026-03-22T13:45:33Z</time></trkpt><trkpt lat="44.206384548064364" lon="1.0640367082946087"><ele>88.0</ele><time>2026-03-22T13:45:34Z</time></trkpt><trkpt lat="44.206153654299506" lon="1.0641763210137236"><ele>88.5</ele><time>2026-03-22T13:45:35Z</time></trkpt><trkpt lat="44.205908023126625" lon="1.0643393815734326"><ele>89.0</ele><time>2026-03-22T13:45:36Z</time></trkpt><trkpt lat="44.20564397830393" lon="1.064524724455014"><ele>88.0</ele><time>2026-03-22T13:45:37Z</time></trkpt><trkpt lat="44.20535681507387" lon="1.064714533971872"><ele>87.0</ele><time>2026-03-22T13:45:38Z</time></trkpt><trkpt lat="44.20504298263122" lon="1.0648979476143277"><ele>87.5</ele><time>2026-03-22T13:45:39Z</time></trkpt><trkpt lat="44.20471922250738" lon="1.0650876850425866"><ele>88.0</ele><time>2026-03-22T13:45:40Z</time></trkpt><trkpt lat="44.20443820356365" lon="1.0652684781926212"><ele>88.0</ele><time>2026-03-22T13:45:41Z</time></trkpt><trkpt lat="44.20421251445926" lon="1.0654100217212077"><ele>88.0</ele><time>2026-03-22T13:45:42Z</time></trkpt><trkpt lat="44.20399973229505" lon="1.065548048671414"><ele>87.5</ele><time>2026-03-22T13:45:43Z</time></trkpt><trkpt lat="44.20378961137171" lon="1.0656812499258386"><ele>87.0</ele><time>2026-03-22T13:45:44Z</time></trkpt><trkpt lat="44.20358465120767" lon="1.0658101285474744"><ele>87.0</ele><time>2026-03-22T13:45:45Z</time></trkpt><trkpt lat="44.203387576665904" lon="1.0659313538877737"><ele>87.0</ele><time>2026-03-22T13:45:46Z</time></trkpt><trkpt lat="44.20319704081495" lon="1.066050391747717"><ele>87.0</ele><time>2026-03-22T13:45:47Z</time></trkpt><trkpt lat="44.20301044257136" lon="1.0661699656592458"><ele>86.66666666666667</ele><time>2026-03-22T13:45:48Z</time></trkpt><trkpt lat="44.202823784523964" lon="1.0662899688762275"><ele>86.33333333333334</ele><time>2026-03-22T13:45:49Z</time></trkpt><trkpt lat="44.2026318078978" lon="1.0664096603734947"><ele>86.0</ele><time>2026-03-22T13:45:50Z</time></trkpt><trkpt lat="44.20243756466162" lon="1.0665293020235096"><ele>86.0</ele><time>2026-03-22T13:45:51Z</time></trkpt><trkpt lat="44.202240593111995" lon="1.0666484237339273"><ele>86.0</ele><time>2026-03-22T13:45:52Z</time></trkpt><trkpt lat="44.20204737303602" lon="1.066770573353111"><ele>86.0</ele><time>2026-03-22T13:45:53Z</time></trkpt><trkpt lat="44.20186029040829" lon="1.0668894089083016"><ele>86.0</ele><time>2026-03-22T13:45:54Z</time></trkpt><trkpt lat="44.201682490164536" lon="1.0670011328061964"><ele>86.0</ele><time>2026-03-22T13:45:55Z</time></trkpt><trkpt lat="44.20151546202324" lon="1.0671006314109674"><ele>86.0</ele><time>2026-03-22T13:45:56Z</time></trkpt><trkpt lat="44.20135958853353" lon="1.067184705153729"><ele>86.0</ele><time>2026-03-22T13:45:57Z</time></trkpt><trkpt lat="44.20121446930428" lon="1.0672641582938682"><ele>86.0</ele><time>2026-03-22T13:45:58Z</time></trkpt><trkpt lat="44.20106528498572" lon="1.0673314869823378"><ele>86.0</ele><time>2026-03-22T13:45:59Z</time></trkpt><trkpt lat="44.20090206639408" lon="1.067359138521634"><ele>86.0</ele><time>2026-03-22T13:46:00Z</time></trkpt><trkpt lat="44.20070373966831" lon="1.0673274483991604"><ele>86.0</ele><time>2026-03-22T13:46:01Z</time></trkpt><trkpt lat="44.20047885742734" lon="1.0672812167924943"><ele>86.0</ele><time>2026-03-22T13:46:02Z</time></trkpt><trkpt lat="44.200225252718525" lon="1.0672546601866961"><ele>86.0</ele><time>2026-03-22T13:46:03Z</time></trkpt><trkpt lat="44.19999962908419" lon="1.0672488997795793"><ele>86.0</ele><time>2026-03-22T13:46:04Z</time></trkpt><trkpt lat="44.19978870121504" lon="1.0672276514742347"><ele>86.0</ele><time>2026-03-22T13:46:05Z</time></trkpt><trkpt lat="44.199590633140005" lon="1.0672095569570097"><ele>86.0</ele><time>2026-03-22T13:46:06Z</time></trkpt><trkpt lat="44.19941049075342" lon="1.0671895522805654"><ele>86.0</ele><time>2026-03-22T13:46:07Z</time></trkpt><trkpt lat="44.199242096440265" lon="1.0671697302537078"><ele>86.0</ele><time>2026-03-22T13:46:08Z</time></trkpt><trkpt lat="44.19907472999774" lon="1.0671490107341455"><ele>87.5</ele><time>2026-03-22T13:46:09Z</time></trkpt><trkpt lat="44.19891275514155" lon="1.0671322730069261"><ele>89.0</ele><time>2026-03-22T13:46:10Z</time></trkpt><trkpt lat="44.19876648094714" lon="1.0671192741159712"><ele>90.5</ele><time>2026-03-22T13:46:11Z</time></trkpt><trkpt lat="44.19864671095065" lon="1.067123019736874"><ele>92.0</ele><time>2026-03-22T13:46:12Z</time></trkpt><trkpt lat="44.19853791923762" lon="1.0671546489449801"><ele>92.0</ele><time>2026-03-22T13:46:13Z</time></trkpt><trkpt lat="44.198439259428724" lon="1.0672201194759467"><ele>92.0</ele><time>2026-03-22T13:46:14Z</time></trkpt><trkpt lat="44.19833770921598" lon="1.0673180671676137"><ele>92.0</ele><time>2026-03-22T13:46:15Z</time></trkpt><trkpt lat="44.198279225887234" lon="1.0674902133314557"><ele>92.0</ele><time>2026-03-22T13:46:16Z</time></trkpt><trkpt lat="44.19819606987822" lon="1.067649247056505"><ele>93.6</ele><time>2026-03-22T13:46:17Z</time></trkpt><trkpt lat="44.1981270143494" lon="1.0678065760367166"><ele>95.19999999999999</ele><time>2026-03-22T13:46:18Z</time></trkpt><trkpt lat="44.1980774891669" lon="1.067919409092161"><ele>96.8</ele><time>2026-03-22T13:46:19Z</time></trkpt><trkpt lat="44.19814198516934" lon="1.0681054120549796"><ele>98.4</ele><time>2026-03-22T13:46:20Z</time></trkpt><trkpt lat="44.1981166656598" lon="1.0681993813558646"><ele>100.0</ele><time>2026-03-22T13:46:21Z</time></trkpt><trkpt lat="44.19808282403292" lon="1.068291270307026"><ele>100.0</ele><time>2026-03-22T13:46:22Z</time></trkpt><trkpt lat="44.19805070379341" lon="1.0683788149861402"><ele>100.0</ele><time>2026-03-22T13:46:23Z</time></trkpt><trkpt lat="44.19802189803468" lon="1.0684580680172633"><ele>100.0</ele><time>2026-03-22T13:46:24Z</time></trkpt><trkpt lat="44.197970018941575" lon="1.0685975677659494"><ele>100.0</ele><time>2026-03-22T13:46:26Z</time></trkpt><trkpt lat="44.19791607706776" lon="1.0687334587896755"><ele>100.0</ele><time>2026-03-22T13:46:27Z</time></trkpt><trkpt lat="44.19783475050454" lon="1.0689119086034866"><ele>99.33333333333334</ele><time>2026-03-22T13:46:28Z</time></trkpt><trkpt lat="44.19772150063203" lon="1.0691284722520635"><ele>98.66666666666666</ele><time>2026-03-22T13:46:29Z</time></trkpt><trkpt lat="44.19757427982185" lon="1.0693792039664511"><ele>98.0</ele><time>2026-03-22T13:46:30Z</time></trkpt><trkpt lat="44.1974384725176" lon="1.069592784799688"><ele>100.5</ele><time>2026-03-22T13:46:31Z</time></trkpt><trkpt lat="44.197318786208776" lon="1.06976580423364"><ele>103.0</ele><time>2026-03-22T13:46:32Z</time></trkpt><trkpt lat="44.1972222039111" lon="1.069923109906355"><ele>105.5</ele><time>2026-03-22T13:46:33Z</time></trkpt><trkpt lat="44.19716073618495" lon="1.070071612840061"><ele>108.0</ele><time>2026-03-22T13:46:34Z</time></trkpt><trkpt lat="44.19714542517421" lon="1.0702319862927334"><ele>108.5</ele><time>2026-03-22T13:46:35Z</time></trkpt><trkpt lat="44.19716736517139" lon="1.0704096453532372"><ele>109.0</ele><time>2026-03-22T13:46:36Z</time></trkpt><trkpt lat="44.19722751799464" lon="1.0706127933754401"><ele>109.5</ele><time>2026-03-22T13:46:37Z</time></trkpt><trkpt lat="44.1973142878457" lon="1.070803684319572"><ele>110.0</ele><time>2026-03-22T13:46:38Z</time></trkpt><trkpt lat="44.19737819032128" lon="1.07096234988589"><ele>110.33333333333333</ele><time>2026-03-22T13:46:39Z</time></trkpt><trkpt lat="44.1973960484402" lon="1.0711478159397487"><ele>110.66666666666666</ele><time>2026-03-22T13:46:40Z</time></trkpt><trkpt lat="44.197347819880385" lon="1.0713644601253614"><ele>111.0</ele><time>2026-03-22T13:46:41Z</time></trkpt><trkpt lat="44.19728585949532" lon="1.071581640076983"><ele>112.0</ele><time>2026-03-22T13:46:42Z</time></trkpt><trkpt lat="44.197196317728455" lon="1.0718088705275952"><ele>113.0</ele><time>2026-03-22T13:46:43Z</time></trkpt><trkpt lat="44.1970659251373" lon="1.0720450934614536"><ele>114.0</ele><time>2026-03-22T13:46:44Z</time></trkpt><trkpt lat="44.19693056975939" lon="1.0722598234473868"><ele>114.0</ele><time>2026-03-22T13:46:45Z</time></trkpt><trkpt lat="44.19681134739875" lon="1.072438273499884"><ele>114.0</ele><time>2026-03-22T13:46:46Z</time></trkpt><trkpt lat="44.19669937757027" lon="1.0725828168151157"><ele>114.0</ele><time>2026-03-22T13:46:47Z</time></trkpt><trkpt lat="44.19658064564938" lon="1.0726760113968863"><ele>113.75</ele><time>2026-03-22T13:46:48Z</time></trkpt><trkpt lat="44.19645384716055" lon="1.0727361761993464"><ele>113.5</ele><time>2026-03-22T13:46:49Z</time></trkpt><trkpt lat="44.196314812917706" lon="1.0727480651372614"><ele>113.25</ele><time>2026-03-22T13:46:50Z</time></trkpt><trkpt lat="44.19617641665525" lon="1.0727037517800424"><ele>113.0</ele><time>2026-03-22T13:46:51Z</time></trkpt><trkpt lat="44.19604925314678" lon="1.0726112326705097"><ele>113.0</ele><time>2026-03-22T13:46:52Z</time></trkpt><trkpt lat="44.19593516177507" lon="1.0724663084314665"><ele>113.0</ele><time>2026-03-22T13:46:53Z</time></trkpt><trkpt lat="44.19582758449915" lon="1.072256355462788"><ele>113.0</ele><time>2026-03-22T13:46:54Z</time></trkpt><trkpt lat="44.195729573328876" lon="1.0720211031785145"><ele>116.25</ele><time>2026-03-22T13:46:55Z</time></trkpt><trkpt lat="44.19565544136207" lon="1.0718443062397285"><ele>119.5</ele><time>2026-03-22T13:46:56Z</time></trkpt><trkpt lat="44.19557285158446" lon="1.0717023627068716"><ele>122.75</ele><time>2026-03-22T13:46:57Z</time></trkpt><trkpt lat="44.19547801950603" lon="1.0715943355398605"><ele>126.0</ele><time>2026-03-22T13:46:58Z</time></trkpt><trkpt lat="44.19534464133571" lon="1.071530776179548"><ele>126.0</ele><time>2026-03-22T13:46:59Z</time></trkpt><trkpt lat="44.19519469692449" lon="1.0715247711450246"><ele>126.0</ele><time>2026-03-22T13:47:00Z</time></trkpt><trkpt lat="44.19507230379902" lon="1.0715780536808814"><ele>126.0</ele><time>2026-03-22T13:47:01Z</time></trkpt><trkpt lat="44.19498331304191" lon="1.0716851607644773"><ele>126.0</ele><time>2026-03-22T13:47:01.999Z</time></trkpt><trkpt lat="44.19492087536253" lon="1.0718402682446975"><ele>126.0</ele><time>2026-03-22T13:47:02.999Z</time></trkpt><trkpt lat="44.194897376932055" lon="1.0720258556453752"><ele>126.0</ele><time>2026-03-22T13:47:03.999Z</time></trkpt><trkpt lat="44.194879688156526" lon="1.0722423406565742"><ele>126.0</ele><time>2026-03-22T13:47:04.999Z</time></trkpt><trkpt lat="44.194844349755705" lon="1.072341417291181"><ele>126.0</ele><time>2026-03-22T13:47:05.999Z</time></trkpt><trkpt lat="44.19476856493811" lon="1.0725081630586595"><ele>128.0</ele><time>2026-03-22T13:47:07Z</time></trkpt><trkpt lat="44.19465321651978" lon="1.072661955875329"><ele>130.0</ele><time>2026-03-22T13:47:08Z</time></trkpt><trkpt lat="44.19450721865204" lon="1.0727856604653352"><ele>132.0</ele><time>2026-03-22T13:47:09Z</time></trkpt><trkpt lat="44.19432950629506" lon="1.0728759186227004"><ele>132.0</ele><time>2026-03-22T13:47:10Z</time></trkpt><trkpt lat="44.194141748169216" lon="1.072932542128863"><ele>132.0</ele><time>2026-03-22T13:47:11Z</time></trkpt><trkpt lat="44.194005403015176" lon="1.0729833914038622"><ele>132.0</ele><time>2026-03-22T13:47:12Z</time></trkpt><trkpt lat="44.193870210722224" lon="1.0729620514330809"><ele>131.0</ele><time>2026-03-22T13:47:13Z</time></trkpt><trkpt lat="44.193745679777386" lon="1.0728782850509782"><ele>130.0</ele><time>2026-03-22T13:47:14Z</time></trkpt><trkpt lat="44.193655434847074" lon="1.0727319299196407"><ele>129.0</ele><time>2026-03-22T13:47:15Z</time></trkpt><trkpt lat="44.19359241437073" lon="1.0725381759643065"><ele>128.0</ele><time>2026-03-22T13:47:16Z</time></trkpt><trkpt lat="44.19354959813705" lon="1.0722967095202642"><ele>132.66666666666666</ele><time>2026-03-22T13:47:17Z</time></trkpt><trkpt lat="44.19350534101441" lon="1.0720431551403369"><ele>137.33333333333334</ele><time>2026-03-22T13:47:18Z</time></trkpt><trkpt lat="44.193418920606135" lon="1.0718208654235746"><ele>142.0</ele><time>2026-03-22T13:47:19Z</time></trkpt><trkpt lat="44.193295851632854" lon="1.0716426675337016"><ele>146.75</ele><time>2026-03-22T13:47:20Z</time></trkpt><trkpt lat="44.193174515729325" lon="1.071535039857124"><ele>151.5</ele><time>2026-03-22T13:47:21Z</time></trkpt><trkpt lat="44.19304506949265" lon="1.0714833770999452"><ele>156.25</ele><time>2026-03-22T13:47:22Z</time></trkpt><trkpt lat="44.192901484765684" lon="1.071487221726162"><ele>161.0</ele><time>2026-03-22T13:47:23Z</time></trkpt><trkpt lat="44.19276353080432" lon="1.0715557525884079"><ele>158.0</ele><time>2026-03-22T13:47:24Z</time></trkpt><trkpt lat="44.19264623983263" lon="1.0716700232015108"><ele>155.0</ele><time>2026-03-22T13:47:25Z</time></trkpt><trkpt lat="44.192555837023335" lon="1.0718309720808163"><ele>152.0</ele><time>2026-03-22T13:47:26Z</time></trkpt><trkpt lat="44.19246913755854" lon="1.0720483210501048"><ele>152.0</ele><time>2026-03-22T13:47:27Z</time></trkpt><trkpt lat="44.19239785014845" lon="1.0722909967103846"><ele>152.0</ele><time>2026-03-22T13:47:28Z</time></trkpt><trkpt lat="44.19232500798948" lon="1.0724696921957724"><ele>152.0</ele><time>2026-03-22T13:47:29Z</time></trkpt><trkpt lat="44.19224099821433" lon="1.0725792116802193"><ele>151.25</ele><time>2026-03-22T13:47:30Z</time></trkpt><trkpt lat="44.19214378403127" lon="1.0726486445525212"><ele>150.5</ele><time>2026-03-22T13:47:31Z</time></trkpt><trkpt lat="44.19203346287525" lon="1.072653525192737"><ele>149.75</ele><time>2026-03-22T13:47:32Z</time></trkpt><trkpt lat="44.19190862457898" lon="1.0725934891716833"><ele>149.0</ele><time>2026-03-22T13:47:33Z</time></trkpt><trkpt lat="44.1917698907844" lon="1.0724587501279224"><ele>156.0</ele><time>2026-03-22T13:47:34Z</time></trkpt><trkpt lat="44.191579630490075" lon="1.0722387192215044"><ele>163.0</ele><time>2026-03-22T13:47:35Z</time></trkpt><trkpt lat="44.19137545567365" lon="1.0720491854892071"><ele>163.0</ele><time>2026-03-22T13:47:36Z</time></trkpt><trkpt lat="44.19116413223833" lon="1.0718751173660708"><ele>163.0</ele><time>2026-03-22T13:47:37Z</time></trkpt><trkpt lat="44.19098496230818" lon="1.0717503960889188"><ele>163.0</ele><time>2026-03-22T13:47:38Z</time></trkpt><trkpt lat="44.19083607550223" lon="1.0716641223824124"><ele>163.0</ele><time>2026-03-22T13:47:39Z</time></trkpt><trkpt lat="44.19071984839187" lon="1.0716072082673016"><ele>163.0</ele><time>2026-03-22T13:47:40Z</time></trkpt><trkpt lat="44.19063151151282" lon="1.071624374641417"><ele>163.0</ele><time>2026-03-22T13:47:41Z</time></trkpt><trkpt lat="44.19054914363273" lon="1.0716850936173943"><ele>163.0</ele><time>2026-03-22T13:47:42Z</time></trkpt><trkpt lat="44.190441726600824" lon="1.0717996729812969"><ele>163.0</ele><time>2026-03-22T13:47:43Z</time></trkpt><trkpt lat="44.1903137940129" lon="1.0719644283940752"><ele>164.0</ele><time>2026-03-22T13:47:44Z</time></trkpt><trkpt lat="44.19021657180827" lon="1.0721376734358132"><ele>165.0</ele><time>2026-03-22T13:47:45Z</time></trkpt><trkpt lat="44.19016405819582" lon="1.0723359960317385"><ele>166.0</ele><time>2026-03-22T13:47:46Z</time></trkpt><trkpt lat="44.19014661201758" lon="1.0725520043530143"><ele>166.0</ele><time>2026-03-22T13:47:47Z</time></trkpt><trkpt lat="44.1901063389527" lon="1.0728013562242609"><ele>166.0</ele><time>2026-03-22T13:47:48Z</time></trkpt><trkpt lat="44.190033941739514" lon="1.0730593386074936"><ele>166.0</ele><time>2026-03-22T13:47:49Z</time></trkpt><trkpt lat="44.189953289448695" lon="1.0732416929458415"><ele>164.75</ele><time>2026-03-22T13:47:50Z</time></trkpt><trkpt lat="44.18986906305646" lon="1.073378567684193"><ele>163.5</ele><time>2026-03-22T13:47:51Z</time></trkpt><trkpt lat="44.1897534625952" lon="1.0734836874187905"><ele>162.25</ele><time>2026-03-22T13:47:52Z</time></trkpt><trkpt lat="44.18959246809083" lon="1.0735733572879314"><ele>161.0</ele><time>2026-03-22T13:47:53Z</time></trkpt><trkpt lat="44.18940110387633" lon="1.0736451949628998"><ele>167.33333333333331</ele><time>2026-03-22T13:47:54Z</time></trkpt><trkpt lat="44.189242358311915" lon="1.0737279999852738"><ele>173.66666666666666</ele><time>2026-03-22T13:47:55Z</time></trkpt><trkpt lat="44.189102320849635" lon="1.0738902887163284"><ele>180.0</ele><time>2026-03-22T13:47:56Z</time></trkpt><trkpt lat="44.18895609854102" lon="1.0741361554783349"><ele>183.0</ele><time>2026-03-22T13:47:57Z</time></trkpt><trkpt lat="44.188808599759014" lon="1.0744288008324068"><ele>186.0</ele><time>2026-03-22T13:47:58Z</time></trkpt><trkpt lat="44.18868079906975" lon="1.0746853360719697"><ele>186.0</ele><time>2026-03-22T13:47:59Z</time></trkpt><trkpt lat="44.18858831627317" lon="1.0749171941816882"><ele>186.0</ele><time>2026-03-22T13:48:00Z</time></trkpt><trkpt lat="44.188517380785854" lon="1.0751342245764997"><ele>186.0</ele><time>2026-03-22T13:48:01Z</time></trkpt><trkpt lat="44.18846466475172" lon="1.0753695513306507"><ele>184.66666666666666</ele><time>2026-03-22T13:48:02Z</time></trkpt><trkpt lat="44.18842905063701" lon="1.0756223945355974"><ele>183.33333333333331</ele><time>2026-03-22T13:48:03Z</time></trkpt><trkpt lat="44.18840687446085" lon="1.0758803003227022"><ele>182.0</ele><time>2026-03-22T13:48:04Z</time></trkpt><trkpt lat="44.1883859808666" lon="1.076117438761045"><ele>181.66666666666666</ele><time>2026-03-22T13:48:05Z</time></trkpt><trkpt lat="44.18835239627126" lon="1.0763462089054852"><ele>181.33333333333334</ele><time>2026-03-22T13:48:06Z</time></trkpt><trkpt lat="44.1882867977165" lon="1.0765688659615824"><ele>181.0</ele><time>2026-03-22T13:48:07Z</time></trkpt><trkpt lat="44.18820165764379" lon="1.0767830343419655"><ele>182.33333333333334</ele><time>2026-03-22T13:48:08Z</time></trkpt><trkpt lat="44.188101545018135" lon="1.076981829469463"><ele>183.66666666666666</ele><time>2026-03-22T13:48:09Z</time></trkpt><trkpt lat="44.1879933140604" lon="1.077145298307233"><ele>185.0</ele><time>2026-03-22T13:48:10Z</time></trkpt><trkpt lat="44.18788341590636" lon="1.0772660955800875"><ele>185.0</ele><time>2026-03-22T13:48:11Z</time></trkpt><trkpt lat="44.187774118267434" lon="1.077357376322149"><ele>185.0</ele><time>2026-03-22T13:48:12Z</time></trkpt><trkpt lat="44.18767019782751" lon="1.077423807870581"><ele>185.0</ele><time>2026-03-22T13:48:13Z</time></trkpt><trkpt lat="44.1875778901251" lon="1.077477256317127"><ele>185.0</ele><time>2026-03-22T13:48:14Z</time></trkpt><trkpt lat="44.187488547226785" lon="1.077532596466603"><ele>185.0</ele><time>2026-03-22T13:48:15Z</time></trkpt><trkpt lat="44.18740190359206" lon="1.0775847647611847"><ele>184.6</ele><time>2026-03-22T13:48:16Z</time></trkpt><trkpt lat="44.18733472441418" lon="1.0776191317436394"><ele>184.2</ele><time>2026-03-22T13:48:17Z</time></trkpt><trkpt lat="44.18723532573496" lon="1.0776485901897352"><ele>183.8</ele><time>2026-03-22T13:48:19Z</time></trkpt><trkpt lat="44.187114765336815" lon="1.0776639677928175"><ele>183.4</ele><time>2026-03-22T13:48:21Z</time></trkpt><trkpt lat="44.18703876064643" lon="1.0776839182035056"><ele>183.0</ele><time>2026-03-22T13:48:22Z</time></trkpt><trkpt lat="44.18695343396245" lon="1.0777109616512204"><ele>183.0</ele><time>2026-03-22T13:48:23Z</time></trkpt><trkpt lat="44.186858269661556" lon="1.0777311471858195"><ele>183.0</ele><time>2026-03-22T13:48:24Z</time></trkpt><trkpt lat="44.18677583532087" lon="1.0777566205032612"><ele>183.0</ele><time>2026-03-22T13:48:25Z</time></trkpt><trkpt lat="44.1866988346893" lon="1.0778002292279656"><ele>183.0</ele><time>2026-03-22T13:48:26Z</time></trkpt><trkpt lat="44.186608489719795" lon="1.0778758684582628"><ele>183.0</ele><time>2026-03-22T13:48:27Z</time></trkpt><trkpt lat="44.18651869281177" lon="1.0779600111794019"><ele>182.25</ele><time>2026-03-22T13:48:28Z</time></trkpt><trkpt lat="44.18642419292977" lon="1.0780443900908792"><ele>181.5</ele><time>2026-03-22T13:48:29Z</time></trkpt><trkpt lat="44.18632323113879" lon="1.0781267873205242"><ele>180.75</ele><time>2026-03-22T13:48:30Z</time></trkpt><trkpt lat="44.1862229798141" lon="1.0782082411096576"><ele>180.0</ele><time>2026-03-22T13:48:31Z</time></trkpt><trkpt lat="44.18613695980666" lon="1.0783071445727852"><ele>182.5</ele><time>2026-03-22T13:48:32Z</time></trkpt><trkpt lat="44.186064984019026" lon="1.0784265661853538"><ele>185.0</ele><time>2026-03-22T13:48:33Z</time></trkpt><trkpt lat="44.185975835079255" lon="1.0785362234771303"><ele>187.5</ele><time>2026-03-22T13:48:34Z</time></trkpt><trkpt lat="44.1858566928691" lon="1.0786273966853848"><ele>190.0</ele><time>2026-03-22T13:48:35Z</time></trkpt><trkpt lat="44.1857342111407" lon="1.0787100540911898"><ele>189.5</ele><time>2026-03-22T13:48:36Z</time></trkpt><trkpt lat="44.185626938491914" lon="1.0788046895877734"><ele>189.0</ele><time>2026-03-22T13:48:37Z</time></trkpt><trkpt lat="44.185527834754986" lon="1.0789226370564218"><ele>188.5</ele><time>2026-03-22T13:48:38Z</time></trkpt><trkpt lat="44.18544177947267" lon="1.079060794591455"><ele>188.0</ele><time>2026-03-22T13:48:39Z</time></trkpt><trkpt lat="44.18536104426214" lon="1.0792236801067672"><ele>188.0</ele><time>2026-03-22T13:48:40Z</time></trkpt><trkpt lat="44.18528432386222" lon="1.0794101839132288"><ele>188.0</ele><time>2026-03-22T13:48:41Z</time></trkpt><trkpt lat="44.18522654211766" lon="1.0796168024190054"><ele>188.0</ele><time>2026-03-22T13:48:42Z</time></trkpt><trkpt lat="44.18520364579259" lon="1.079861154627524"><ele>187.33333333333331</ele><time>2026-03-22T13:48:43Z</time></trkpt><trkpt lat="44.185183065717275" lon="1.0801431426968269"><ele>186.66666666666666</ele><time>2026-03-22T13:48:44Z</time></trkpt><trkpt lat="44.185154158802014" lon="1.0804073162157053"><ele>186.0</ele><time>2026-03-22T13:48:45Z</time></trkpt><trkpt lat="44.18510564549375" lon="1.080641543503473"><ele>185.66666666666666</ele><time>2026-03-22T13:48:45.999Z</time></trkpt><trkpt lat="44.18503701141594" lon="1.0808793716315346"><ele>185.33333333333331</ele><time>2026-03-22T13:48:46.999Z</time></trkpt><trkpt lat="44.18494472053409" lon="1.0810897209636896"><ele>185.0</ele><time>2026-03-22T13:48:47.999Z</time></trkpt><trkpt lat="44.184831023781264" lon="1.0812775634736647"><ele>184.66666666666666</ele><time>2026-03-22T13:48:48.999Z</time></trkpt><trkpt lat="44.184698549350664" lon="1.0814591145027173"><ele>184.33333333333334</ele><time>2026-03-22T13:48:49.999Z</time></trkpt><trkpt lat="44.18455364363931" lon="1.0816506200803806"><ele>184.0</ele><time>2026-03-22T13:48:50.999Z</time></trkpt><trkpt lat="44.18440602431012" lon="1.0818520409154313"><ele>184.0</ele><time>2026-03-22T13:48:51.999Z</time></trkpt><trkpt lat="44.184270376264394" lon="1.0820476625359865"><ele>184.0</ele><time>2026-03-22T13:48:52.999Z</time></trkpt><trkpt lat="44.184141607425055" lon="1.082241080227316"><ele>184.0</ele><time>2026-03-22T13:48:53.999Z</time></trkpt><trkpt lat="44.184022923297505" lon="1.0824383736876138"><ele>185.33333333333334</ele><time>2026-03-22T13:48:54.999Z</time></trkpt><trkpt lat="44.183899713922045" lon="1.0826328820112165"><ele>186.66666666666666</ele><time>2026-03-22T13:48:55.999Z</time></trkpt><trkpt lat="44.18377568433871" lon="1.0828290940117098"><ele>188.0</ele><time>2026-03-22T13:48:56.999Z</time></trkpt><trkpt lat="44.18365245660253" lon="1.083021336196591"><ele>188.0</ele><time>2026-03-22T13:48:57.999Z</time></trkpt><trkpt lat="44.18352310635002" lon="1.0832146757244723"><ele>188.0</ele><time>2026-03-22T13:48:58.999Z</time></trkpt><trkpt lat="44.18341237647467" lon="1.083408365455441"><ele>188.0</ele><time>2026-03-22T13:48:59.999Z</time></trkpt><trkpt lat="44.18333297973803" lon="1.0836316764130414"><ele>188.0</ele><time>2026-03-22T13:49:00.999Z</time></trkpt><trkpt lat="44.18327507128571" lon="1.0838818140022204"><ele>188.0</ele><time>2026-03-22T13:49:01.999Z</time></trkpt><trkpt lat="44.18323152510874" lon="1.0841490236442142"><ele>188.0</ele><time>2026-03-22T13:49:02.999Z</time></trkpt><trkpt lat="44.18319124862119" lon="1.0844079765876906"><ele>186.33333333333331</ele><time>2026-03-22T13:49:03.999Z</time></trkpt><trkpt lat="44.18314436101972" lon="1.0846586669161986"><ele>184.66666666666666</ele><time>2026-03-22T13:49:04.999Z</time></trkpt><trkpt lat="44.18309420864779" lon="1.0849073228310582"><ele>183.0</ele><time>2026-03-22T13:49:05.999Z</time></trkpt><trkpt lat="44.1830362855508" lon="1.0851526197041164"><ele>183.0</ele><time>2026-03-22T13:49:06.999Z</time></trkpt><trkpt lat="44.182969899449084" lon="1.085393419264036"><ele>183.0</ele><time>2026-03-22T13:49:07.999Z</time></trkpt><trkpt lat="44.18288767273175" lon="1.0856241075211734"><ele>183.0</ele><time>2026-03-22T13:49:08.999Z</time></trkpt><trkpt lat="44.18279288519467" lon="1.0858471715004885"><ele>184.33333333333334</ele><time>2026-03-22T13:49:09.999Z</time></trkpt><trkpt lat="44.182691656686046" lon="1.086064628205293"><ele>185.66666666666669</ele><time>2026-03-22T13:49:10.999Z</time></trkpt><trkpt lat="44.18259978482635" lon="1.08628275468485"><ele>187.0</ele><time>2026-03-22T13:49:11.999Z</time></trkpt><trkpt lat="44.18250739429684" lon="1.086491639297876"><ele>187.33333333333334</ele><time>2026-03-22T13:49:13Z</time></trkpt><trkpt lat="44.18241732721189" lon="1.0867107849712168"><ele>187.66666666666666</ele><time>2026-03-22T13:49:14Z</time></trkpt><trkpt lat="44.18232415772887" lon="1.0869345847497562"><ele>188.0</ele><time>2026-03-22T13:49:15Z</time></trkpt><trkpt lat="44.18222482155662" lon="1.087167803725016"><ele>187.66666666666666</ele><time>2026-03-22T13:49:16Z</time></trkpt><trkpt lat="44.182123791015904" lon="1.0874017268895115"><ele>187.33333333333334</ele><time>2026-03-22T13:49:17Z</time></trkpt><trkpt lat="44.18200729319314" lon="1.087613789221909"><ele>187.0</ele><time>2026-03-22T13:49:18Z</time></trkpt><trkpt lat="44.18188058774465" lon="1.08783077666458"><ele>187.0</ele><time>2026-03-22T13:49:19Z</time></trkpt><trkpt lat="44.181760626208956" lon="1.0880562322019962"><ele>187.0</ele><time>2026-03-22T13:49:20Z</time></trkpt><trkpt lat="44.1816295242326" lon="1.088252332142913"><ele>187.0</ele><time>2026-03-22T13:49:21Z</time></trkpt><trkpt lat="44.1815039519332" lon="1.0884410491344125"><ele>187.0</ele><time>2026-03-22T13:49:22Z</time></trkpt><trkpt lat="44.181379276252386" lon="1.0886323918464826"><ele>187.0</ele><time>2026-03-22T13:49:23Z</time></trkpt><trkpt lat="44.181251430715356" lon="1.088817053991045"><ele>187.0</ele><time>2026-03-22T13:49:24Z</time></trkpt><trkpt lat="44.18109977783329" lon="1.0889531715558778"><ele>187.0</ele><time>2026-03-22T13:49:25Z</time></trkpt><trkpt lat="44.18094024953827" lon="1.0890604559207056"><ele>187.0</ele><time>2026-03-22T13:49:26Z</time></trkpt><trkpt lat="44.18076863002295" lon="1.089136699285825"><ele>187.0</ele><time>2026-03-22T13:49:27Z</time></trkpt><trkpt lat="44.18058544794397" lon="1.0891789222684929"><ele>186.66666666666669</ele><time>2026-03-22T13:49:28Z</time></trkpt><trkpt lat="44.18039810306689" lon="1.0891772839637435"><ele>186.33333333333334</ele><time>2026-03-22T13:49:29Z</time></trkpt><trkpt lat="44.18020686157527" lon="1.0891204671398762"><ele>186.0</ele><time>2026-03-22T13:49:30Z</time></trkpt><trkpt lat="44.18001028510854" lon="1.0890157233273658"><ele>186.5</ele><time>2026-03-22T13:49:31Z</time></trkpt><trkpt lat="44.17979337537744" lon="1.0889009450837293"><ele>187.0</ele><time>2026-03-22T13:49:32Z</time></trkpt><trkpt lat="44.1795480387959" lon="1.0887318656287472"><ele>187.0</ele><time>2026-03-22T13:49:33Z</time></trkpt><trkpt lat="44.17930756942587" lon="1.0885698479777293"><ele>187.0</ele><time>2026-03-22T13:49:34Z</time></trkpt><trkpt lat="44.179097075010404" lon="1.088437826266413"><ele>186.66666666666669</ele><time>2026-03-22T13:49:35Z</time></trkpt><trkpt lat="44.1789052178442" lon="1.088313738866719"><ele>186.33333333333334</ele><time>2026-03-22T13:49:36Z</time></trkpt><trkpt lat="44.17872247710965" lon="1.0882015957903375"><ele>186.0</ele><time>2026-03-22T13:49:37Z</time></trkpt><trkpt lat="44.17854221235439" lon="1.0880826252379574"><ele>186.0</ele><time>2026-03-22T13:49:38Z</time></trkpt><trkpt lat="44.17835576964481" lon="1.0879710668517664"><ele>186.0</ele><time>2026-03-22T13:49:39Z</time></trkpt><trkpt lat="44.17817791053739" lon="1.0878489369693158"><ele>186.0</ele><time>2026-03-22T13:49:40Z</time></trkpt><trkpt lat="44.17801052890762" lon="1.0877386503474005"><ele>186.0</ele><time>2026-03-22T13:49:41Z</time></trkpt><trkpt lat="44.17784941507172" lon="1.0876327012493405"><ele>186.0</ele><time>2026-03-22T13:49:42Z</time></trkpt><trkpt lat="44.17770075793022" lon="1.0875486621242687"><ele>186.0</ele><time>2026-03-22T13:49:43Z</time></trkpt><trkpt lat="44.17755313165054" lon="1.087499205511413"><ele>186.0</ele><time>2026-03-22T13:49:44Z</time></trkpt><trkpt lat="44.17739903807918" lon="1.087508035982287"><ele>186.0</ele><time>2026-03-22T13:49:45Z</time></trkpt><trkpt lat="44.17722663247463" lon="1.087560884838796"><ele>186.0</ele><time>2026-03-22T13:49:46Z</time></trkpt><trkpt lat="44.17703845047642" lon="1.0876448324799395"><ele>188.0</ele><time>2026-03-22T13:49:47Z</time></trkpt><trkpt lat="44.17682711406561" lon="1.0877607577530881"><ele>190.0</ele><time>2026-03-22T13:49:48Z</time></trkpt><trkpt lat="44.17660064798213" lon="1.0878835113256218"><ele>189.66666666666669</ele><time>2026-03-22T13:49:49Z</time></trkpt><trkpt lat="44.17640318923684" lon="1.0879895489049827"><ele>189.33333333333334</ele><time>2026-03-22T13:49:50Z</time></trkpt><trkpt lat="44.17621712200843" lon="1.0880875664081073"><ele>189.0</ele><time>2026-03-22T13:49:51Z</time></trkpt><trkpt lat="44.17603534970347" lon="1.0881747592226254"><ele>187.66666666666666</ele><time>2026-03-22T13:49:52Z</time></trkpt><trkpt lat="44.17585060664834" lon="1.0882681635222153"><ele>186.33333333333331</ele><time>2026-03-22T13:49:53Z</time></trkpt><trkpt lat="44.17565694454046" lon="1.0883629920205133"><ele>185.0</ele><time>2026-03-22T13:49:54Z</time></trkpt><trkpt lat="44.175458228592824" lon="1.0884537049655225"><ele>184.33333333333331</ele><time>2026-03-22T13:49:55Z</time></trkpt><trkpt lat="44.175255470755616" lon="1.0885321568502182"><ele>183.66666666666666</ele><time>2026-03-22T13:49:56Z</time></trkpt><trkpt lat="44.175049974369884" lon="1.0885856366066935"><ele>183.0</ele><time>2026-03-22T13:49:57Z</time></trkpt><trkpt lat="44.17483762803337" lon="1.088607360105946"><ele>182.0</ele><time>2026-03-22T13:49:58Z</time></trkpt><trkpt lat="44.17462324888442" lon="1.0886164306345678"><ele>181.0</ele><time>2026-03-22T13:49:59Z</time></trkpt><trkpt lat="44.174408293531634" lon="1.0886295011185512"><ele>180.0</ele><time>2026-03-22T13:50:00Z</time></trkpt><trkpt lat="44.17420806081763" lon="1.0886498984826736"><ele>179.0</ele><time>2026-03-22T13:50:01Z</time></trkpt><trkpt lat="44.1740159406575" lon="1.0886736059404236"><ele>178.0</ele><time>2026-03-22T13:50:02Z</time></trkpt><trkpt lat="44.17381844933485" lon="1.0886984823600323"><ele>177.0</ele><time>2026-03-22T13:50:03Z</time></trkpt><trkpt lat="44.173618419530705" lon="1.08869413896902"><ele>177.0</ele><time>2026-03-22T13:50:04Z</time></trkpt><trkpt lat="44.17341922611362" lon="1.0887255906581108"><ele>177.0</ele><time>2026-03-22T13:50:05Z</time></trkpt><trkpt lat="44.173217884476266" lon="1.0887329655785383"><ele>177.0</ele><time>2026-03-22T13:50:06Z</time></trkpt><trkpt lat="44.17301239324768" lon="1.088739640135872"><ele>176.33333333333334</ele><time>2026-03-22T13:50:07Z</time></trkpt><trkpt lat="44.17279959449282" lon="1.0887257692731096"><ele>175.66666666666669</ele><time>2026-03-22T13:50:08Z</time></trkpt><trkpt lat="44.17257856376813" lon="1.0886766697356447"><ele>175.0</ele><time>2026-03-22T13:50:09Z</time></trkpt><trkpt lat="44.172360542461774" lon="1.0886089521622586"><ele>174.66666666666669</ele><time>2026-03-22T13:50:10Z</time></trkpt><trkpt lat="44.17215175460235" lon="1.0885363948893456"><ele>174.33333333333334</ele><time>2026-03-22T13:50:11Z</time></trkpt><trkpt lat="44.1719554259348" lon="1.0884798283363477"><ele>174.0</ele><time>2026-03-22T13:50:12Z</time></trkpt><trkpt lat="44.17175377215587" lon="1.0884351562582417"><ele>174.0</ele><time>2026-03-22T13:50:13Z</time></trkpt><trkpt lat="44.17154676469766" lon="1.0884095562482143"><ele>174.0</ele><time>2026-03-22T13:50:14Z</time></trkpt><trkpt lat="44.171336783169544" lon="1.088400637357197"><ele>174.0</ele><time>2026-03-22T13:50:15Z</time></trkpt><trkpt lat="44.171122621727434" lon="1.0884057088175227"><ele>173.33333333333334</ele><time>2026-03-22T13:50:16Z</time></trkpt><trkpt lat="44.17090938702704" lon="1.0884139433201259"><ele>172.66666666666669</ele><time>2026-03-22T13:50:17Z</time></trkpt><trkpt lat="44.1706986068159" lon="1.0884131671714203"><ele>172.0</ele><time>2026-03-22T13:50:18Z</time></trkpt><trkpt lat="44.17048968597001" lon="1.0884050974168018"><ele>172.0</ele><time>2026-03-22T13:50:19Z</time></trkpt><trkpt lat="44.17028210908763" lon="1.0884015641498976"><ele>172.0</ele><time>2026-03-22T13:50:20Z</time></trkpt><trkpt lat="44.17007694831562" lon="1.0884030891143601"><ele>172.0</ele><time>2026-03-22T13:50:21Z</time></trkpt><trkpt lat="44.16987599843515" lon="1.0884065002673309"><ele>173.0</ele><time>2026-03-22T13:50:22Z</time></trkpt><trkpt lat="44.16968438819234" lon="1.0883981659495794"><ele>174.0</ele><time>2026-03-22T13:50:23Z</time></trkpt><trkpt lat="44.16950156336765" lon="1.0883602316954273"><ele>175.0</ele><time>2026-03-22T13:50:24Z</time></trkpt><trkpt lat="44.1693231354369" lon="1.0882886540943875"><ele>174.66666666666669</ele><time>2026-03-22T13:50:25Z</time></trkpt><trkpt lat="44.169153627788596" lon="1.088191647667843"><ele>174.33333333333334</ele><time>2026-03-22T13:50:26Z</time></trkpt><trkpt lat="44.16899789114072" lon="1.0880660550826218"><ele>174.0</ele><time>2026-03-22T13:50:27Z</time></trkpt><trkpt lat="44.16884740703258" lon="1.0879082327548617"><ele>174.66666666666666</ele><time>2026-03-22T13:50:28Z</time></trkpt><trkpt lat="44.168700228696274" lon="1.0877220219658152"><ele>175.33333333333331</ele><time>2026-03-22T13:50:29Z</time></trkpt><trkpt lat="44.16857003843653" lon="1.0875398269385161"><ele>176.0</ele><time>2026-03-22T13:50:30Z</time></trkpt><trkpt lat="44.168458100145216" lon="1.0873793290539393"><ele>177.0</ele><time>2026-03-22T13:50:31Z</time></trkpt><trkpt lat="44.16834729995437" lon="1.087240713179067"><ele>178.0</ele><time>2026-03-22T13:50:32Z</time></trkpt><trkpt lat="44.16823014932104" lon="1.0871269749262933"><ele>179.0</ele><time>2026-03-22T13:50:33Z</time></trkpt><trkpt lat="44.16810405333589" lon="1.087059279930746"><ele>180.0</ele><time>2026-03-22T13:50:34Z</time></trkpt><trkpt lat="44.16796660417728" lon="1.0870354564407183"><ele>180.33333333333334</ele><time>2026-03-22T13:50:35Z</time></trkpt><trkpt lat="44.16782153709231" lon="1.087070178201847"><ele>180.66666666666669</ele><time>2026-03-22T13:50:36Z</time></trkpt><trkpt lat="44.16766461804883" lon="1.087144926841973"><ele>181.0</ele><time>2026-03-22T13:50:37Z</time></trkpt><trkpt lat="44.16749018731957" lon="1.0872588039679618"><ele>180.0</ele><time>2026-03-22T13:50:38Z</time></trkpt><trkpt lat="44.16730746329608" lon="1.0874075650248975"><ele>179.0</ele><time>2026-03-22T13:50:39Z</time></trkpt><trkpt lat="44.167123551704094" lon="1.0875685151656045"><ele>178.0</ele><time>2026-03-22T13:50:40Z</time></trkpt><trkpt lat="44.166943440474846" lon="1.0877808337778971"><ele>178.0</ele><time>2026-03-22T13:50:41Z</time></trkpt><trkpt lat="44.16674285235769" lon="1.0880613895522402"><ele>178.0</ele><time>2026-03-22T13:50:42Z</time></trkpt><trkpt lat="44.16652840371904" lon="1.0883725327419804"><ele>179.0</ele><time>2026-03-22T13:50:43Z</time></trkpt><trkpt lat="44.166289613977845" lon="1.0886978883523577"><ele>180.0</ele><time>2026-03-22T13:50:44Z</time></trkpt><trkpt lat="44.16602293105469" lon="1.0890142485904972"><ele>180.5</ele><time>2026-03-22T13:50:45Z</time></trkpt><trkpt lat="44.16578527301345" lon="1.0892983263804772"><ele>181.0</ele><time>2026-03-22T13:50:45.999Z</time></trkpt><trkpt lat="44.16556282014157" lon="1.0895658063398923"><ele>181.5</ele><time>2026-03-22T13:50:46.999Z</time></trkpt><trkpt lat="44.165345159427076" lon="1.0898252773798387"><ele>182.0</ele><time>2026-03-22T13:50:47.999Z</time></trkpt><trkpt lat="44.165126017580576" lon="1.0900691229402495"><ele>182.0</ele><time>2026-03-22T13:50:48.999Z</time></trkpt><trkpt lat="44.16488878341441" lon="1.0903031518855248"><ele>182.0</ele><time>2026-03-22T13:50:49.999Z</time></trkpt><trkpt lat="44.16463407831787" lon="1.0905286882613485"><ele>182.0</ele><time>2026-03-22T13:50:50.999Z</time></trkpt><trkpt lat="44.16439855834834" lon="1.0907315480541466"><ele>182.0</ele><time>2026-03-22T13:50:51.999Z</time></trkpt><trkpt lat="44.164187946324695" lon="1.0909346832587972"><ele>179.5</ele><time>2026-03-22T13:50:52.999Z</time></trkpt><trkpt lat="44.163992971897855" lon="1.0911513925811522"><ele>177.0</ele><time>2026-03-22T13:50:53.999Z</time></trkpt><trkpt lat="44.16380181736201" lon="1.091383673338904"><ele>178.0</ele><time>2026-03-22T13:50:54.999Z</time></trkpt><trkpt lat="44.16361578471589" lon="1.0916251887043293"><ele>179.0</ele><time>2026-03-22T13:50:55.999Z</time></trkpt><trkpt lat="44.16342796042819" lon="1.0918731748252"><ele>179.0</ele><time>2026-03-22T13:50:56.999Z</time></trkpt><trkpt lat="44.16322092004658" lon="1.0921172741801708"><ele>179.0</ele><time>2026-03-22T13:50:57.999Z</time></trkpt><trkpt lat="44.16298413148923" lon="1.0923628893697854"><ele>178.5</ele><time>2026-03-22T13:50:58.999Z</time></trkpt><trkpt lat="44.16273440683344" lon="1.0926275088516062"><ele>178.0</ele><time>2026-03-22T13:50:59.999Z</time></trkpt><trkpt lat="44.162483058706336" lon="1.092900080365516"><ele>178.5</ele><time>2026-03-22T13:51:00.999Z</time></trkpt><trkpt lat="44.162251817015175" lon="1.0931492366531106"><ele>179.0</ele><time>2026-03-22T13:51:01.999Z</time></trkpt><trkpt lat="44.162039490619705" lon="1.0933765114679226"><ele>179.0</ele><time>2026-03-22T13:51:02.999Z</time></trkpt><trkpt lat="44.16184067412414" lon="1.0935878142292859"><ele>179.0</ele><time>2026-03-22T13:51:03.999Z</time></trkpt><trkpt lat="44.161654973588405" lon="1.0937862828976952"><ele>179.33333333333331</ele><time>2026-03-22T13:51:04.999Z</time></trkpt><trkpt lat="44.16148222418846" lon="1.0939687530326574"><ele>179.66666666666666</ele><time>2026-03-22T13:51:05.999Z</time></trkpt><trkpt lat="44.161321711606405" lon="1.0941334397237605"><ele>180.0</ele><time>2026-03-22T13:51:06.999Z</time></trkpt><trkpt lat="44.16117076054567" lon="1.0943014079125712"><ele>180.0</ele><time>2026-03-22T13:51:07.999Z</time></trkpt><trkpt lat="44.16102905164369" lon="1.0945012982966391"><ele>180.0</ele><time>2026-03-22T13:51:08.999Z</time></trkpt><trkpt lat="44.16089058937182" lon="1.094762016591525"><ele>180.0</ele><time>2026-03-22T13:51:09.999Z</time></trkpt><trkpt lat="44.16074276345221" lon="1.0950709044925953"><ele>179.5</ele><time>2026-03-22T13:51:10.999Z</time></trkpt><trkpt lat="44.16056382523699" lon="1.0953958970608502"><ele>179.0</ele><time>2026-03-22T13:51:11.999Z</time></trkpt><trkpt lat="44.160445299904424" lon="1.0958347593125848"><ele>179.0</ele><time>2026-03-22T13:51:12.999Z</time></trkpt><trkpt lat="44.1602905160805" lon="1.096248630832545"><ele>179.0</ele><time>2026-03-22T13:51:13.999Z</time></trkpt><trkpt lat="44.1601528558678" lon="1.0966055511958501"><ele>179.5</ele><time>2026-03-22T13:51:14.999Z</time></trkpt><trkpt lat="44.16002227315482" lon="1.0969241647374002"><ele>180.0</ele><time>2026-03-22T13:51:15.999Z</time></trkpt><trkpt lat="44.15990092790636" lon="1.0972111754288878"><ele>179.66666666666666</ele><time>2026-03-22T13:51:16.999Z</time></trkpt><trkpt lat="44.15980240471647" lon="1.0974442060987775"><ele>179.33333333333331</ele><time>2026-03-22T13:51:17.999Z</time></trkpt><trkpt lat="44.15972356063245" lon="1.0976288686911944"><ele>179.0</ele><time>2026-03-22T13:51:19Z</time></trkpt><trkpt lat="44.15965580518192" lon="1.0977824671196643"><ele>179.0</ele><time>2026-03-22T13:51:20Z</time></trkpt><trkpt lat="44.15958596090661" lon="1.0979114119846118"><ele>179.0</ele><time>2026-03-22T13:51:21Z</time></trkpt><trkpt lat="44.15949945017577" lon="1.0980129353544195"><ele>179.0</ele><time>2026-03-22T13:51:22Z</time></trkpt><trkpt lat="44.15938256017972" lon="1.0980764264034437"><ele>179.0</ele><time>2026-03-22T13:51:23Z</time></trkpt><trkpt lat="44.159197663129476" lon="1.0981103261458605"><ele>178.66666666666666</ele><time>2026-03-22T13:51:24Z</time></trkpt><trkpt lat="44.15898268780701" lon="1.0981482664942244"><ele>178.33333333333334</ele><time>2026-03-22T13:51:25Z</time></trkpt><trkpt lat="44.1587690466148" lon="1.0982038562482903"><ele>178.0</ele><time>2026-03-22T13:51:26Z</time></trkpt><trkpt lat="44.15856013981085" lon="1.098267169711079"><ele>178.0</ele><time>2026-03-22T13:51:27Z</time></trkpt><trkpt lat="44.15836107399271" lon="1.0983014203927872"><ele>178.0</ele><time>2026-03-22T13:51:28Z</time></trkpt><trkpt lat="44.158144508172654" lon="1.0982935418944872"><ele>178.0</ele><time>2026-03-22T13:51:29Z</time></trkpt><trkpt lat="44.1579044503462" lon="1.098246798460108"><ele>178.5</ele><time>2026-03-22T13:51:30Z</time></trkpt><trkpt lat="44.157646583536206" lon="1.0981801768716006"><ele>179.0</ele><time>2026-03-22T13:51:31Z</time></trkpt><trkpt lat="44.15739160725797" lon="1.098082716184794"><ele>178.0</ele><time>2026-03-22T13:51:32Z</time></trkpt><trkpt lat="44.157153493672006" lon="1.0979680399849743"><ele>177.0</ele><time>2026-03-22T13:51:33Z</time></trkpt><trkpt lat="44.15690976112799" lon="1.0978312192491886"><ele>177.0</ele><time>2026-03-22T13:51:34Z</time></trkpt><trkpt lat="44.15665778936817" lon="1.0976947471183287"><ele>177.0</ele><time>2026-03-22T13:51:35Z</time></trkpt><trkpt lat="44.156430782390736" lon="1.097562466218269"><ele>175.33333333333334</ele><time>2026-03-22T13:51:36Z</time></trkpt><trkpt lat="44.156224529769844" lon="1.0974255560890427"><ele>173.66666666666669</ele><time>2026-03-22T13:51:37Z</time></trkpt><trkpt lat="44.156034201336986" lon="1.0972860862040503"><ele>172.0</ele><time>2026-03-22T13:51:38Z</time></trkpt><trkpt lat="44.155864863695896" lon="1.0971677491177076"><ele>171.75</ele><time>2026-03-22T13:51:39Z</time></trkpt><trkpt lat="44.15571994141207" lon="1.0970765699416656"><ele>171.5</ele><time>2026-03-22T13:51:40Z</time></trkpt><trkpt lat="44.15559039795497" lon="1.0970003717793986"><ele>171.25</ele><time>2026-03-22T13:51:41Z</time></trkpt><trkpt lat="44.155456728107474" lon="1.0969652966456604"><ele>171.0</ele><time>2026-03-22T13:51:42Z</time></trkpt><trkpt lat="44.1553003539016" lon="1.0969817799692765"><ele>168.0</ele><time>2026-03-22T13:51:43Z</time></trkpt><trkpt lat="44.155126669204876" lon="1.0970679873877356"><ele>165.0</ele><time>2026-03-22T13:51:44Z</time></trkpt><trkpt lat="44.154942878948276" lon="1.0971690147534126"><ele>162.0</ele><time>2026-03-22T13:51:45Z</time></trkpt><trkpt lat="44.15475053686203" lon="1.097321891316402"><ele>159.0</ele><time>2026-03-22T13:51:46Z</time></trkpt><trkpt lat="44.15454508083733" lon="1.0975166394109368"><ele>156.0</ele><time>2026-03-22T13:51:47Z</time></trkpt><trkpt lat="44.15434378425254" lon="1.0977321412563188"><ele>156.0</ele><time>2026-03-22T13:51:48Z</time></trkpt><trkpt lat="44.15416290650016" lon="1.0979061751048316"><ele>156.0</ele><time>2026-03-22T13:51:49Z</time></trkpt><trkpt lat="44.153964973915095" lon="1.0980413264186661"><ele>156.0</ele><time>2026-03-22T13:51:50Z</time></trkpt><trkpt lat="44.15372162733169" lon="1.0981600504546003"><ele>156.5</ele><time>2026-03-22T13:51:51Z</time></trkpt><trkpt lat="44.1534375889847" lon="1.098252048004164"><ele>157.0</ele><time>2026-03-22T13:51:52Z</time></trkpt><trkpt lat="44.15318903303097" lon="1.0983129108039857"><ele>157.0</ele><time>2026-03-22T13:51:53Z</time></trkpt><trkpt lat="44.152963796163284" lon="1.0983701486989288"><ele>157.0</ele><time>2026-03-22T13:51:54Z</time></trkpt><trkpt lat="44.15275579792297" lon="1.098442933184095"><ele>157.0</ele><time>2026-03-22T13:51:55Z</time></trkpt><trkpt lat="44.15255803919852" lon="1.0985579203950462"><ele>157.0</ele><time>2026-03-22T13:51:56Z</time></trkpt><trkpt lat="44.152377764177054" lon="1.0986897307639916"><ele>157.0</ele><time>2026-03-22T13:51:57Z</time></trkpt><trkpt lat="44.15221202237928" lon="1.0988031835294323"><ele>157.0</ele><time>2026-03-22T13:51:58Z</time></trkpt><trkpt lat="44.15204793607445" lon="1.09887853036248"><ele>156.33333333333334</ele><time>2026-03-22T13:51:59Z</time></trkpt><trkpt lat="44.15188165808282" lon="1.098912014657585"><ele>155.66666666666666</ele><time>2026-03-22T13:52:00Z</time></trkpt><trkpt lat="44.15169521611641" lon="1.0989079430045225"><ele>155.0</ele><time>2026-03-22T13:52:01Z</time></trkpt><trkpt lat="44.15149806666988" lon="1.0988618227808042"><ele>153.66666666666666</ele><time>2026-03-22T13:52:02Z</time></trkpt><trkpt lat="44.15131705625362" lon="1.0987942297900237"><ele>152.33333333333334</ele><time>2026-03-22T13:52:03Z</time></trkpt><trkpt lat="44.15116187775329" lon="1.0987445679492585"><ele>151.0</ele><time>2026-03-22T13:52:04Z</time></trkpt><trkpt lat="44.15102231086605" lon="1.0987471591806652"><ele>151.0</ele><time>2026-03-22T13:52:05Z</time></trkpt><trkpt lat="44.150876578907784" lon="1.098783773459806"><ele>151.0</ele><time>2026-03-22T13:52:06Z</time></trkpt><trkpt lat="44.150735432149084" lon="1.0988617362556299"><ele>151.0</ele><time>2026-03-22T13:52:07Z</time></trkpt><trkpt lat="44.15060505628791" lon="1.0989875207695339"><ele>151.33333333333334</ele><time>2026-03-22T13:52:08Z</time></trkpt><trkpt lat="44.15047678697068" lon="1.0991565594239043"><ele>151.66666666666666</ele><time>2026-03-22T13:52:09Z</time></trkpt><trkpt lat="44.15034423987166" lon="1.0993747820248598"><ele>152.0</ele><time>2026-03-22T13:52:10Z</time></trkpt><trkpt lat="44.15019060155357" lon="1.0996416160256197"><ele>152.0</ele><time>2026-03-22T13:52:11Z</time></trkpt><trkpt lat="44.15004679538687" lon="1.0998945625064371"><ele>152.0</ele><time>2026-03-22T13:52:12Z</time></trkpt><trkpt lat="44.14991101020543" lon="1.1001126930963283"><ele>152.0</ele><time>2026-03-22T13:52:13Z</time></trkpt><trkpt lat="44.14977683660918" lon="1.1003000123981608"><ele>150.0</ele><time>2026-03-22T13:52:14Z</time></trkpt><trkpt lat="44.14963398347257" lon="1.1004498944134669"><ele>148.0</ele><time>2026-03-22T13:52:15Z</time></trkpt><trkpt lat="44.14946627702687" lon="1.1005716339732041"><ele>146.0</ele><time>2026-03-22T13:52:16Z</time></trkpt><trkpt lat="44.14926859500255" lon="1.1006731747577103"><ele>146.0</ele><time>2026-03-22T13:52:17Z</time></trkpt><trkpt lat="44.1490698045962" lon="1.1007176730931751"><ele>146.0</ele><time>2026-03-22T13:52:18Z</time></trkpt><trkpt lat="44.14890113934232" lon="1.1007998550917675"><ele>146.0</ele><time>2026-03-22T13:52:19Z</time></trkpt><trkpt lat="44.148735662625036" lon="1.1008189702546691"><ele>143.33333333333331</ele><time>2026-03-22T13:52:20Z</time></trkpt><trkpt lat="44.1485790034588" lon="1.100802365400792"><ele>140.66666666666666</ele><time>2026-03-22T13:52:21Z</time></trkpt><trkpt lat="44.14843430302431" lon="1.1007507050997234"><ele>138.0</ele><time>2026-03-22T13:52:22Z</time></trkpt><trkpt lat="44.14829878289359" lon="1.1006597044685689"><ele>135.0</ele><time>2026-03-22T13:52:23Z</time></trkpt><trkpt lat="44.14816790144743" lon="1.1005207494717004"><ele>132.0</ele><time>2026-03-22T13:52:24Z</time></trkpt><trkpt lat="44.148043217366855" lon="1.1003368245372345"><ele>129.0</ele><time>2026-03-22T13:52:25Z</time></trkpt><trkpt lat="44.147923847991514" lon="1.1001881544194103"><ele>129.0</ele><time>2026-03-22T13:52:26Z</time></trkpt><trkpt lat="44.14780567537302" lon="1.1000544792249534"><ele>129.0</ele><time>2026-03-22T13:52:27Z</time></trkpt><trkpt lat="44.14768344421234" lon="1.0999504674249063"><ele>129.0</ele><time>2026-03-22T13:52:28Z</time></trkpt><trkpt lat="44.147550398656804" lon="1.099883108742623"><ele>129.0</ele><time>2026-03-22T13:52:29Z</time></trkpt><trkpt lat="44.1474007518926" lon="1.0998663823999972"><ele>129.25</ele><time>2026-03-22T13:52:30Z</time></trkpt><trkpt lat="44.147267661602044" lon="1.0999075641336058"><ele>129.5</ele><time>2026-03-22T13:52:31Z</time></trkpt><trkpt lat="44.1471386386897" lon="1.0999999110188665"><ele>129.75</ele><time>2026-03-22T13:52:32Z</time></trkpt><trkpt lat="44.147021679148985" lon="1.1001423710817673"><ele>130.0</ele><time>2026-03-22T13:52:33Z</time></trkpt><trkpt lat="44.146913052630886" lon="1.1003334493775991"><ele>130.0</ele><time>2026-03-22T13:52:34Z</time></trkpt><trkpt lat="44.146805053270455" lon="1.100528725435684"><ele>130.0</ele><time>2026-03-22T13:52:35Z</time></trkpt><trkpt lat="44.14667067036001" lon="1.1006863304159538"><ele>130.0</ele><time>2026-03-22T13:52:36Z</time></trkpt><trkpt lat="44.14650435549476" lon="1.1008187538024032"><ele>125.5</ele><time>2026-03-22T13:52:37Z</time></trkpt><trkpt lat="44.14629931296072" lon="1.1009377699391372"><ele>121.0</ele><time>2026-03-22T13:52:38Z</time></trkpt><trkpt lat="44.14605352916614" lon="1.1010257527367906"><ele>121.0</ele><time>2026-03-22T13:52:39Z</time></trkpt><trkpt lat="44.14579890637106" lon="1.1011465935947051"><ele>121.0</ele><time>2026-03-22T13:52:40Z</time></trkpt><trkpt lat="44.1455678169837" lon="1.1012068109724897"><ele>120.33333333333334</ele><time>2026-03-22T13:52:40.999Z</time></trkpt><trkpt lat="44.14535363280237" lon="1.101250630272225"><ele>119.66666666666666</ele><time>2026-03-22T13:52:41.999Z</time></trkpt><trkpt lat="44.145149185604055" lon="1.1012887785998637"><ele>119.0</ele><time>2026-03-22T13:52:42.999Z</time></trkpt><trkpt lat="44.14497215779405" lon="1.1013403348923132"><ele>118.66666666666666</ele><time>2026-03-22T13:52:43.999Z</time></trkpt><trkpt lat="44.144820058486594" lon="1.1014209695477668"><ele>118.33333333333334</ele><time>2026-03-22T13:52:44.999Z</time></trkpt><trkpt lat="44.14467825151229" lon="1.101537072697858"><ele>118.0</ele><time>2026-03-22T13:52:45.999Z</time></trkpt><trkpt lat="44.144538128385115" lon="1.1016963406208575"><ele>116.33333333333334</ele><time>2026-03-22T13:52:46.999Z</time></trkpt><trkpt lat="44.144384741300215" lon="1.1018774903278625"><ele>114.66666666666666</ele><time>2026-03-22T13:52:47.999Z</time></trkpt><trkpt lat="44.144215398809244" lon="1.102034661593194"><ele>113.0</ele><time>2026-03-22T13:52:48.999Z</time></trkpt><trkpt lat="44.144025811872474" lon="1.102153034889317"><ele>111.5</ele><time>2026-03-22T13:52:49.999Z</time></trkpt><trkpt lat="44.14380862801079" lon="1.102249315523689"><ele>110.0</ele><time>2026-03-22T13:52:50.999Z</time></trkpt><trkpt lat="44.143554522546445" lon="1.1023345917991574"><ele>106.5</ele><time>2026-03-22T13:52:51.999Z</time></trkpt><trkpt lat="44.143268944843975" lon="1.1024227515136533"><ele>103.0</ele><time>2026-03-22T13:52:52.999Z</time></trkpt><trkpt lat="44.143019323736475" lon="1.1025019379117718"><ele>102.0</ele><time>2026-03-22T13:52:53.999Z</time></trkpt><trkpt lat="44.14278701971507" lon="1.102582392141284"><ele>101.0</ele><time>2026-03-22T13:52:54.999Z</time></trkpt><trkpt lat="44.14258171228194" lon="1.1026519669411567"><ele>101.0</ele><time>2026-03-22T13:52:55.999Z</time></trkpt><trkpt lat="44.14239271951727" lon="1.1026953978364178"><ele>101.0</ele><time>2026-03-22T13:52:56.999Z</time></trkpt><trkpt lat="44.14220195536138" lon="1.1026950147979953"><ele>101.0</ele><time>2026-03-22T13:52:57.999Z</time></trkpt><trkpt lat="44.14200529278758" lon="1.1026577291718727"><ele>99.0</ele><time>2026-03-22T13:52:58.999Z</time></trkpt><trkpt lat="44.141815975162544" lon="1.102593134430441"><ele>97.0</ele><time>2026-03-22T13:52:59.999Z</time></trkpt><trkpt lat="44.14164755397725" lon="1.1025499783631485"><ele>95.0</ele><time>2026-03-22T13:53:00.999Z</time></trkpt><trkpt lat="44.14148791445195" lon="1.1025422233979565"><ele>94.25</ele><time>2026-03-22T13:53:01.999Z</time></trkpt><trkpt lat="44.14133832170153" lon="1.102558509711108"><ele>93.5</ele><time>2026-03-22T13:53:02.999Z</time></trkpt><trkpt lat="44.14120437600582" lon="1.102623047933687"><ele>92.75</ele><time>2026-03-22T13:53:03.999Z</time></trkpt><trkpt lat="44.14107122272884" lon="1.102725589004283"><ele>92.0</ele><time>2026-03-22T13:53:04.999Z</time></trkpt><trkpt lat="44.1409469333513" lon="1.102862661381988"><ele>92.0</ele><time>2026-03-22T13:53:05.999Z</time></trkpt><trkpt lat="44.140816653912864" lon="1.1029917972432317"><ele>92.0</ele><time>2026-03-22T13:53:06.999Z</time></trkpt><trkpt lat="44.1406808823734" lon="1.1030996111416067"><ele>92.0</ele><time>2026-03-22T13:53:07.999Z</time></trkpt><trkpt lat="44.14053590634192" lon="1.1031854481545655"><ele>92.0</ele><time>2026-03-22T13:53:08.999Z</time></trkpt><trkpt lat="44.14037616260623" lon="1.1032330049281347"><ele>92.0</ele><time>2026-03-22T13:53:09.999Z</time></trkpt><trkpt lat="44.140187898184855" lon="1.1032450381493195"><ele>92.0</ele><time>2026-03-22T13:53:10.999Z</time></trkpt><trkpt lat="44.1399639968397" lon="1.1032273348245236"><ele>93.5</ele><time>2026-03-22T13:53:11.999Z</time></trkpt><trkpt lat="44.13972809269433" lon="1.1032231513000543"><ele>95.0</ele><time>2026-03-22T13:53:12.999Z</time></trkpt><trkpt lat="44.13948404441995" lon="1.1032333105233765"><ele>95.0</ele><time>2026-03-22T13:53:13.999Z</time></trkpt><trkpt lat="44.13923595234698" lon="1.1032437690972083"><ele>95.0</ele><time>2026-03-22T13:53:14.999Z</time></trkpt><trkpt lat="44.13898834240012" lon="1.103253027572571"><ele>93.5</ele><time>2026-03-22T13:53:15.999Z</time></trkpt><trkpt lat="44.13873640765295" lon="1.1032574243901552"><ele>92.0</ele><time>2026-03-22T13:53:16.999Z</time></trkpt><trkpt lat="44.13848700084553" lon="1.1032619578639722"><ele>92.0</ele><time>2026-03-22T13:53:17.999Z</time></trkpt><trkpt lat="44.138258568352754" lon="1.103256339931909"><ele>92.0</ele><time>2026-03-22T13:53:18.999Z</time></trkpt><trkpt lat="44.138035488794046" lon="1.1032556475321784"><ele>95.5</ele><time>2026-03-22T13:53:19.999Z</time></trkpt><trkpt lat="44.13780961281195" lon="1.1032467652425961"><ele>99.0</ele><time>2026-03-22T13:53:20.999Z</time></trkpt><trkpt lat="44.13758316857668" lon="1.1032468866908511"><ele>96.66666666666667</ele><time>2026-03-22T13:53:21.999Z</time></trkpt><trkpt lat="44.13736279690909" lon="1.1032600552593979"><ele>94.33333333333334</ele><time>2026-03-22T13:53:22.999Z</time></trkpt><trkpt lat="44.13714835770306" lon="1.10326555385393"><ele>92.0</ele><time>2026-03-22T13:53:23.999Z</time></trkpt><trkpt lat="44.13693170766203" lon="1.1032656559937712"><ele>92.0</ele><time>2026-03-22T13:53:25Z</time></trkpt><trkpt lat="44.13671834866736" lon="1.1032667453980465"><ele>92.0</ele><time>2026-03-22T13:53:26Z</time></trkpt><trkpt lat="44.13650921498204" lon="1.1032753866032186"><ele>92.0</ele><time>2026-03-22T13:53:27Z</time></trkpt><trkpt lat="44.13630345937965" lon="1.1032726816165666"><ele>91.66666666666667</ele><time>2026-03-22T13:53:28Z</time></trkpt><trkpt lat="44.136102460273065" lon="1.1032724348310707"><ele>91.33333333333333</ele><time>2026-03-22T13:53:29Z</time></trkpt><trkpt lat="44.135904823344006" lon="1.1032640712875614"><ele>91.0</ele><time>2026-03-22T13:53:30Z</time></trkpt><trkpt lat="44.13570441908041" lon="1.1032692280312795"><ele>90.66666666666666</ele><time>2026-03-22T13:53:31Z</time></trkpt><trkpt lat="44.135497881220495" lon="1.103275589930025"><ele>90.33333333333333</ele><time>2026-03-22T13:53:32Z</time></trkpt><trkpt lat="44.13529081700102" lon="1.1032838676903831"><ele>90.0</ele><time>2026-03-22T13:53:33Z</time></trkpt><trkpt lat="44.13509198871933" lon="1.103294893573736"><ele>90.0</ele><time>2026-03-22T13:53:34Z</time></trkpt><trkpt lat="44.13490549575456" lon="1.1033000263195973"><ele>90.0</ele><time>2026-03-22T13:53:35Z</time></trkpt><trkpt lat="44.134713554732734" lon="1.1032796705397396"><ele>90.0</ele><time>2026-03-22T13:53:36Z</time></trkpt><trkpt lat="44.13452048564387" lon="1.103306619505339"><ele>89.33333333333333</ele><time>2026-03-22T13:53:37Z</time></trkpt><trkpt lat="44.13432358448001" lon="1.1033037471991156"><ele>88.66666666666666</ele><time>2026-03-22T13:53:38Z</time></trkpt><trkpt lat="44.13412413711986" lon="1.1032982358465224"><ele>88.0</ele><time>2026-03-22T13:53:39Z</time></trkpt><trkpt lat="44.13392450005429" lon="1.1033086559747738"><ele>87.66666666666666</ele><time>2026-03-22T13:53:40Z</time></trkpt><trkpt lat="44.13373122318103" lon="1.1033226137132006"><ele>87.33333333333333</ele><time>2026-03-22T13:53:41Z</time></trkpt><trkpt lat="44.13355104677593" lon="1.103334850586316"><ele>87.0</ele><time>2026-03-22T13:53:42Z</time></trkpt><trkpt lat="44.13337972986448" lon="1.1033531334428393"><ele>87.0</ele><time>2026-03-22T13:53:43Z</time></trkpt><trkpt lat="44.13322312585585" lon="1.1033711989481296"><ele>87.0</ele><time>2026-03-22T13:53:44Z</time></trkpt><trkpt lat="44.13308274022021" lon="1.1033940994667626"><ele>87.0</ele><time>2026-03-22T13:53:45Z</time></trkpt><trkpt lat="44.1329637825901" lon="1.1034147929658882"><ele>87.0</ele><time>2026-03-22T13:53:46Z</time></trkpt><trkpt lat="44.132863304905094" lon="1.1034348859145802"><ele>86.8</ele><time>2026-03-22T13:53:47Z</time></trkpt><trkpt lat="44.13278051301522" lon="1.103449377107376"><ele>86.6</ele><time>2026-03-22T13:53:48Z</time></trkpt><trkpt lat="44.13271731593349" lon="1.1034755457450869"><ele>86.39999999999999</ele><time>2026-03-22T13:53:49Z</time></trkpt><trkpt lat="44.132670460586894" lon="1.1035972232754871"><ele>86.19999999999999</ele><time>2026-03-22T13:53:51Z</time></trkpt><trkpt lat="44.1326829775216" lon="1.1037835928708526"><ele>86.0</ele><time>2026-03-22T13:53:53Z</time></trkpt><trkpt lat="44.13270243613539" lon="1.1039230404473395"><ele>85.75</ele><time>2026-03-22T13:53:54Z</time></trkpt><trkpt lat="44.13271921540241" lon="1.1041092439901627"><ele>85.5</ele><time>2026-03-22T13:53:55Z</time></trkpt><trkpt lat="44.13272994783628" lon="1.1043155651333796"><ele>85.25</ele><time>2026-03-22T13:53:56Z</time></trkpt><trkpt lat="44.13273653807656" lon="1.1045419873538846"><ele>85.0</ele><time>2026-03-22T13:53:57Z</time></trkpt><trkpt lat="44.132747193993964" lon="1.1047735451604572"><ele>86.0</ele><time>2026-03-22T13:53:58Z</time></trkpt><trkpt lat="44.132737703458204" lon="1.1049720158082608"><ele>87.0</ele><time>2026-03-22T13:53:59Z</time></trkpt><trkpt lat="44.13275362309022" lon="1.1051402362711942"><ele>88.0</ele><time>2026-03-22T13:54:00Z</time></trkpt><trkpt lat="44.13275770242738" lon="1.1052916036438498"><ele>89.0</ele><time>2026-03-22T13:54:01Z</time></trkpt><trkpt lat="44.132787216021256" lon="1.105421528367726"><ele>89.0</ele><time>2026-03-22T13:54:02Z</time></trkpt><trkpt lat="44.13285046947332" lon="1.1055413751088459"><ele>89.0</ele><time>2026-03-22T13:54:03Z</time></trkpt><trkpt lat="44.132937814849676" lon="1.105649548146803"><ele>89.0</ele><time>2026-03-22T13:54:04Z</time></trkpt><trkpt lat="44.1329904038048" lon="1.1057752130712721"><ele>89.0</ele><time>2026-03-22T13:54:05Z</time></trkpt><trkpt lat="44.132969550822104" lon="1.105938900738498"><ele>89.0</ele><time>2026-03-22T13:54:06Z</time></trkpt><trkpt lat="44.13293597498023" lon="1.1061267156665964"><ele>91.0</ele><time>2026-03-22T13:54:07Z</time></trkpt><trkpt lat="44.13291126102015" lon="1.1063630535370959"><ele>93.0</ele><time>2026-03-22T13:54:08Z</time></trkpt><trkpt lat="44.13290099833792" lon="1.1066357900650712"><ele>95.0</ele><time>2026-03-22T13:54:09Z</time></trkpt><trkpt lat="44.13287605820998" lon="1.1069234508444772"><ele>97.66666666666667</ele><time>2026-03-22T13:54:10Z</time></trkpt><trkpt lat="44.13284822135896" lon="1.1072264564015128"><ele>100.33333333333334</ele><time>2026-03-22T13:54:11Z</time></trkpt><trkpt lat="44.13277025633448" lon="1.1075147169208766"><ele>103.0</ele><time>2026-03-22T13:54:12Z</time></trkpt><trkpt lat="44.13268865868979" lon="1.107812927724237"><ele>103.5</ele><time>2026-03-22T13:54:13Z</time></trkpt><trkpt lat="44.13260303571642" lon="1.1081190319853145"><ele>104.0</ele><time>2026-03-22T13:54:14Z</time></trkpt><trkpt lat="44.13254266252917" lon="1.1084565299432487"><ele>108.0</ele><time>2026-03-22T13:54:15Z</time></trkpt><trkpt lat="44.13246947753637" lon="1.1088055357485505"><ele>112.0</ele><time>2026-03-22T13:54:16Z</time></trkpt><trkpt lat="44.132405806518356" lon="1.1091385711221964"><ele>116.33333333333334</ele><time>2026-03-22T13:54:17Z</time></trkpt><trkpt lat="44.132319904638734" lon="1.109409534220742"><ele>120.66666666666666</ele><time>2026-03-22T13:54:18Z</time></trkpt><trkpt lat="44.13226246248963" lon="1.1096654241020192"><ele>125.0</ele><time>2026-03-22T13:54:19Z</time></trkpt><trkpt lat="44.132195903650484" lon="1.1098766144546557"><ele>127.0</ele><time>2026-03-22T13:54:20Z</time></trkpt><trkpt lat="44.132145550168055" lon="1.1100758024123796"><ele>129.0</ele><time>2026-03-22T13:54:21Z</time></trkpt><trkpt lat="44.13210391062178" lon="1.1102495469646656"><ele>131.0</ele><time>2026-03-22T13:54:22Z</time></trkpt><trkpt lat="44.13206624969567" lon="1.110394428802054"><ele>133.0</ele><time>2026-03-22T13:54:23Z</time></trkpt><trkpt lat="44.132036766909415" lon="1.1105083274223062"><ele>133.0</ele><time>2026-03-22T13:54:24Z</time></trkpt><trkpt lat="44.13202408547749" lon="1.1105966796928965"><ele>133.0</ele><time>2026-03-22T13:54:25Z</time></trkpt><trkpt lat="44.1319748076932" lon="1.1107154095989025"><ele>133.0</ele><time>2026-03-22T13:54:27Z</time></trkpt><trkpt lat="44.131828510854625" lon="1.1106927615137607"><ele>133.0</ele><time>2026-03-22T13:54:29Z</time></trkpt><trkpt lat="44.13172727775719" lon="1.11067613847326"><ele>133.0</ele><time>2026-03-22T13:54:30Z</time></trkpt><trkpt lat="44.13160506474134" lon="1.1106474990590731"><ele>136.0</ele><time>2026-03-22T13:54:31Z</time></trkpt><trkpt lat="44.131467396469716" lon="1.1106090400086455"><ele>139.0</ele><time>2026-03-22T13:54:31.999Z</time></trkpt><trkpt lat="44.13131375462851" lon="1.1105622538046425"><ele>142.0</ele><time>2026-03-22T13:54:32.999Z</time></trkpt><trkpt lat="44.13114206317205" lon="1.1105080280958113"><ele>142.0</ele><time>2026-03-22T13:54:33.999Z</time></trkpt><trkpt lat="44.13098333908963" lon="1.1104340031071673"><ele>142.0</ele><time>2026-03-22T13:54:34.999Z</time></trkpt><trkpt lat="44.13083639455578" lon="1.1103427119733653"><ele>142.0</ele><time>2026-03-22T13:54:35.999Z</time></trkpt><trkpt lat="44.130689855124785" lon="1.1102332995560718"><ele>143.33333333333334</ele><time>2026-03-22T13:54:36.999Z</time></trkpt><trkpt lat="44.13054333220022" lon="1.110078701847755"><ele>144.66666666666666</ele><time>2026-03-22T13:54:37.999Z</time></trkpt><trkpt lat="44.1303988322586" lon="1.1099536978276432"><ele>146.0</ele><time>2026-03-22T13:54:38.999Z</time></trkpt><trkpt lat="44.130269889188604" lon="1.1098565385642796"><ele>146.0</ele><time>2026-03-22T13:54:39.999Z</time></trkpt><trkpt lat="44.13015191684058" lon="1.1098292754105241"><ele>146.0</ele><time>2026-03-22T13:54:40.999Z</time></trkpt><trkpt lat="44.13005215129529" lon="1.1098244720994155"><ele>146.0</ele><time>2026-03-22T13:54:41.999Z</time></trkpt><trkpt lat="44.12994857616049" lon="1.1098594736382958"><ele>146.0</ele><time>2026-03-22T13:54:42.999Z</time></trkpt><trkpt lat="44.12984678801102" lon="1.1099193861156569"><ele>146.0</ele><time>2026-03-22T13:54:43.999Z</time></trkpt><trkpt lat="44.12973355531663" lon="1.1099999626313335"><ele>145.75</ele><time>2026-03-22T13:54:44.999Z</time></trkpt><trkpt lat="44.12961123083477" lon="1.1100925342987424"><ele>145.5</ele><time>2026-03-22T13:54:45.999Z</time></trkpt><trkpt lat="44.12949851549546" lon="1.1101629844962557"><ele>145.25</ele><time>2026-03-22T13:54:46.999Z</time></trkpt><trkpt lat="44.12938537310637" lon="1.1101873028995346"><ele>145.0</ele><time>2026-03-22T13:54:47.999Z</time></trkpt><trkpt lat="44.12925599419073" lon="1.1102285938896905"><ele>145.0</ele><time>2026-03-22T13:54:48.999Z</time></trkpt><trkpt lat="44.129121950339226" lon="1.110290423974653"><ele>145.0</ele><time>2026-03-22T13:54:49.999Z</time></trkpt><trkpt lat="44.128969221802116" lon="1.110343766535402"><ele>145.0</ele><time>2026-03-22T13:54:50.999Z</time></trkpt><trkpt lat="44.12881614434883" lon="1.1103842827030976"><ele>139.66666666666669</ele><time>2026-03-22T13:54:51.999Z</time></trkpt><trkpt lat="44.12866518110471" lon="1.1104466120696757"><ele>134.33333333333334</ele><time>2026-03-22T13:54:52.999Z</time></trkpt><trkpt lat="44.12852119917592" lon="1.1105259997915529"><ele>129.0</ele><time>2026-03-22T13:54:53.999Z</time></trkpt><trkpt lat="44.1283867798939" lon="1.1106187733329445"><ele>129.0</ele><time>2026-03-22T13:54:54.999Z</time></trkpt><trkpt lat="44.128243919026325" lon="1.110732216672243"><ele>129.0</ele><time>2026-03-22T13:54:55.999Z</time></trkpt><trkpt lat="44.12808760092371" lon="1.1108577365069203"><ele>129.0</ele><time>2026-03-22T13:54:56.999Z</time></trkpt><trkpt lat="44.127932230685076" lon="1.1109936805052745"><ele>128.0</ele><time>2026-03-22T13:54:57.999Z</time></trkpt><trkpt lat="44.12777825756386" lon="1.1111476883272142"><ele>127.0</ele><time>2026-03-22T13:54:58.999Z</time></trkpt><trkpt lat="44.12762429454892" lon="1.1113088701109168"><ele>126.0</ele><time>2026-03-22T13:54:59.999Z</time></trkpt><trkpt lat="44.12747662515397" lon="1.1114483004363067"><ele>125.0</ele><time>2026-03-22T13:55:00.999Z</time></trkpt><trkpt lat="44.12733589815011" lon="1.1115657428243497"><ele>124.0</ele><time>2026-03-22T13:55:01.999Z</time></trkpt><trkpt lat="44.12719744407972" lon="1.1116636039047527"><ele>123.0</ele><time>2026-03-22T13:55:02.999Z</time></trkpt><trkpt lat="44.127061360691876" lon="1.111733939552472"><ele>125.25</ele><time>2026-03-22T13:55:03.999Z</time></trkpt><trkpt lat="44.1269185604008" lon="1.1117551063069346"><ele>127.5</ele><time>2026-03-22T13:55:04.999Z</time></trkpt><trkpt lat="44.12677904802861" lon="1.1117873330473498"><ele>129.75</ele><time>2026-03-22T13:55:05.999Z</time></trkpt><trkpt lat="44.1266478241129" lon="1.1117710870591802"><ele>132.0</ele><time>2026-03-22T13:55:06.999Z</time></trkpt><trkpt lat="44.126522405898015" lon="1.1117425835250003"><ele>133.5</ele><time>2026-03-22T13:55:07.999Z</time></trkpt><trkpt lat="44.126396970083356" lon="1.1117203193715184"><ele>135.0</ele><time>2026-03-22T13:55:08.999Z</time></trkpt><trkpt lat="44.12627710225077" lon="1.111694491728365"><ele>136.5</ele><time>2026-03-22T13:55:09.999Z</time></trkpt><trkpt lat="44.126157906009894" lon="1.1116637680816701"><ele>138.0</ele><time>2026-03-22T13:55:10.999Z</time></trkpt><trkpt lat="44.126038934441134" lon="1.1116231137246209"><ele>138.25</ele><time>2026-03-22T13:55:11.999Z</time></trkpt><trkpt lat="44.125919830350234" lon="1.1115735151055004"><ele>138.5</ele><time>2026-03-22T13:55:12.999Z</time></trkpt><trkpt lat="44.125794950919996" lon="1.1115230865609251"><ele>138.75</ele><time>2026-03-22T13:55:13.999Z</time></trkpt><trkpt lat="44.12567082456468" lon="1.111478454471503"><ele>139.0</ele><time>2026-03-22T13:55:14.999Z</time></trkpt><trkpt lat="44.12554589677766" lon="1.1114319540733344"><ele>141.5</ele><time>2026-03-22T13:55:15.999Z</time></trkpt><trkpt lat="44.12541882250984" lon="1.1113877902812062"><ele>144.0</ele><time>2026-03-22T13:55:16.999Z</time></trkpt><trkpt lat="44.1253013037472" lon="1.1113017141982517"><ele>146.5</ele><time>2026-03-22T13:55:17.999Z</time></trkpt><trkpt lat="44.125171241291504" lon="1.1112235447846783"><ele>149.0</ele><time>2026-03-22T13:55:18.999Z</time></trkpt><trkpt lat="44.12502585684152" lon="1.1111670921294667"><ele>148.4</ele><time>2026-03-22T13:55:19.999Z</time></trkpt><trkpt lat="44.12489539969085" lon="1.1110973109247788"><ele>147.8</ele><time>2026-03-22T13:55:20.999Z</time></trkpt><trkpt lat="44.124788944323534" lon="1.1110558121903495"><ele>147.2</ele><time>2026-03-22T13:55:21.999Z</time></trkpt><trkpt lat="44.12468720161219" lon="1.1110279643216274"><ele>146.6</ele><time>2026-03-22T13:55:22.999Z</time></trkpt><trkpt lat="44.12459559414026" lon="1.1109930176942977"><ele>146.0</ele><time>2026-03-22T13:55:23.999Z</time></trkpt><trkpt lat="44.12451799138952" lon="1.1109551436918168"><ele>146.0</ele><time>2026-03-22T13:55:24.999Z</time></trkpt><trkpt lat="44.124421510104455" lon="1.1109137775685993"><ele>146.0</ele><time>2026-03-22T13:55:26.999Z</time></trkpt><trkpt lat="44.12431534319536" lon="1.1111378338569309"><ele>146.0</ele><time>2026-03-22T13:55:29.999Z</time></trkpt><trkpt lat="44.124287515446724" lon="1.1112352855718566"><ele>146.0</ele><time>2026-03-22T13:55:31Z</time></trkpt><trkpt lat="44.12425287614913" lon="1.111358001286467"><ele>146.0</ele><time>2026-03-22T13:55:32Z</time></trkpt><trkpt lat="44.124207904017" lon="1.1115064497202711"><ele>146.0</ele><time>2026-03-22T13:55:33Z</time></trkpt><trkpt lat="44.1241549421229" lon="1.1116708199407836"><ele>146.0</ele><time>2026-03-22T13:55:34Z</time></trkpt><trkpt lat="44.12409597337041" lon="1.1118527824313484"><ele>146.0</ele><time>2026-03-22T13:55:35Z</time></trkpt><trkpt lat="44.12403907862276" lon="1.112042337944526"><ele>144.0</ele><time>2026-03-22T13:55:36Z</time></trkpt><trkpt lat="44.12398501914881" lon="1.112205573068509"><ele>142.0</ele><time>2026-03-22T13:55:37Z</time></trkpt><trkpt lat="44.12393887131302" lon="1.1123509029962964"><ele>140.0</ele><time>2026-03-22T13:55:38Z</time></trkpt><trkpt lat="44.12389649309276" lon="1.112485405888374"><ele>138.0</ele><time>2026-03-22T13:55:39Z</time></trkpt><trkpt lat="44.12384504479499" lon="1.1126018078265518"><ele>136.0</ele><time>2026-03-22T13:55:40Z</time></trkpt><trkpt lat="44.1237745464049" lon="1.1126829780002876"><ele>135.5</ele><time>2026-03-22T13:55:41Z</time></trkpt><trkpt lat="44.12370784816456" lon="1.1127682989372547"><ele>135.0</ele><time>2026-03-22T13:55:42Z</time></trkpt><trkpt lat="44.123626078851665" lon="1.1128315023055266"><ele>134.5</ele><time>2026-03-22T13:55:43Z</time></trkpt><trkpt lat="44.123546782716964" lon="1.1128833939147484"><ele>134.0</ele><time>2026-03-22T13:55:44Z</time></trkpt><trkpt lat="44.123477050956566" lon="1.1129434974334245"><ele>133.5</ele><time>2026-03-22T13:55:45Z</time></trkpt><trkpt lat="44.12342549580753" lon="1.1130205509863769"><ele>133.0</ele><time>2026-03-22T13:55:46Z</time></trkpt><trkpt lat="44.12336233734064" lon="1.1131055703270274"><ele>133.0</ele><time>2026-03-22T13:55:47Z</time></trkpt><trkpt lat="44.12334113558014" lon="1.1132048075113121"><ele>133.0</ele><time>2026-03-22T13:55:48Z</time></trkpt><trkpt lat="44.12333748244173" lon="1.1134032214589287"><ele>133.0</ele><time>2026-03-22T13:55:50Z</time></trkpt><trkpt lat="44.12331907252434" lon="1.1135815979477408"><ele>133.0</ele><time>2026-03-22T13:55:51Z</time></trkpt><trkpt lat="44.123273995275014" lon="1.1137773798566408"><ele>132.4</ele><time>2026-03-22T13:55:52Z</time></trkpt><trkpt lat="44.12323198816672" lon="1.1139161099135186"><ele>131.8</ele><time>2026-03-22T13:55:53Z</time></trkpt><trkpt lat="44.12319760749802" lon="1.1140530154150958"><ele>131.2</ele><time>2026-03-22T13:55:54Z</time></trkpt><trkpt lat="44.12317361610466" lon="1.1142008168745925"><ele>130.6</ele><time>2026-03-22T13:55:55Z</time></trkpt><trkpt lat="44.123179830172546" lon="1.1143625955682488"><ele>130.0</ele><time>2026-03-22T13:55:56Z</time></trkpt><trkpt lat="44.12319426364603" lon="1.1145157037862128"><ele>127.2</ele><time>2026-03-22T13:55:57Z</time></trkpt><trkpt lat="44.12321531394037" lon="1.114661444342483"><ele>124.4</ele><time>2026-03-22T13:55:58Z</time></trkpt><trkpt lat="44.12322292604812" lon="1.11479023085909"><ele>121.6</ele><time>2026-03-22T13:55:59Z</time></trkpt><trkpt lat="44.12323525020982" lon="1.1149133784599068"><ele>118.8</ele><time>2026-03-22T13:56:00Z</time></trkpt><trkpt lat="44.123231365562724" lon="1.1150462942570638"><ele>116.0</ele><time>2026-03-22T13:56:01Z</time></trkpt><trkpt lat="44.12321239338666" lon="1.1151982487273764"><ele>114.25</ele><time>2026-03-22T13:56:02Z</time></trkpt><trkpt lat="44.12317277907468" lon="1.115353135632985"><ele>112.5</ele><time>2026-03-22T13:56:03Z</time></trkpt><trkpt lat="44.123148813457036" lon="1.1155223578416316"><ele>110.75</ele><time>2026-03-22T13:56:04Z</time></trkpt><trkpt lat="44.12309918039427" lon="1.1156790749988015"><ele>109.0</ele><time>2026-03-22T13:56:05Z</time></trkpt><trkpt lat="44.12306872811816" lon="1.1158397235588937"><ele>107.66666666666667</ele><time>2026-03-22T13:56:06Z</time></trkpt><trkpt lat="44.12304834023608" lon="1.1159841904831274"><ele>106.33333333333334</ele><time>2026-03-22T13:56:07Z</time></trkpt><trkpt lat="44.12304166873247" lon="1.1160978175061453"><ele>105.0</ele><time>2026-03-22T13:56:08Z</time></trkpt><trkpt lat="44.123044388571586" lon="1.1162134120196991"><ele>103.66666666666666</ele><time>2026-03-22T13:56:09Z</time></trkpt><trkpt lat="44.12305749563926" lon="1.1163355171434044"><ele>102.33333333333333</ele><time>2026-03-22T13:56:10Z</time></trkpt><trkpt lat="44.12307576809039" lon="1.1164528734564598"><ele>101.0</ele><time>2026-03-22T13:56:11Z</time></trkpt><trkpt lat="44.123097350817794" lon="1.1165721535010353"><ele>99.83333333333333</ele><time>2026-03-22T13:56:12Z</time></trkpt><trkpt lat="44.12312227134199" lon="1.1166905755994951"><ele>98.66666666666666</ele><time>2026-03-22T13:56:13Z</time></trkpt><trkpt lat="44.12314380693577" lon="1.1168118432851952"><ele>97.5</ele><time>2026-03-22T13:56:14Z</time></trkpt><trkpt lat="44.12315971753991" lon="1.1169333907108068"><ele>96.33333333333333</ele><time>2026-03-22T13:56:15Z</time></trkpt><trkpt lat="44.12315055077359" lon="1.1170614065254039"><ele>95.16666666666666</ele><time>2026-03-22T13:56:16Z</time></trkpt><trkpt lat="44.12313301971428" lon="1.117184100359716"><ele>94.0</ele><time>2026-03-22T13:56:17Z</time></trkpt><trkpt lat="44.12309901029983" lon="1.1173109571735982"><ele>92.6</ele><time>2026-03-22T13:56:18Z</time></trkpt><trkpt lat="44.12304183467544" lon="1.1174399858704214"><ele>91.2</ele><time>2026-03-22T13:56:19Z</time></trkpt><trkpt lat="44.12299116547609" lon="1.117556317678457"><ele>89.8</ele><time>2026-03-22T13:56:20Z</time></trkpt><trkpt lat="44.12295135467545" lon="1.1176461837302885"><ele>88.39999999999999</ele><time>2026-03-22T13:56:21Z</time></trkpt><trkpt lat="44.122908297087584" lon="1.1177885020596896"><ele>87.0</ele><time>2026-03-22T13:56:23Z</time></trkpt><trkpt lat="44.1229199498074" lon="1.1178761666532093"><ele>87.0</ele><time>2026-03-22T13:56:24Z</time></trkpt><trkpt lat="44.1229686605215" lon="1.1179856012329767"><ele>87.0</ele><time>2026-03-22T13:56:26Z</time></trkpt><trkpt lat="44.12296322088596" lon="1.1181109374061267"><ele>87.0</ele><time>2026-03-22T13:56:28Z</time></trkpt><trkpt lat="44.12276731541443" lon="1.1181740381605672"><ele>87.0</ele><time>2026-03-22T13:56:29Z</time></trkpt><trkpt lat="44.12264123925993" lon="1.1182773280666707"><ele>86.66666666666667</ele><time>2026-03-22T13:56:30Z</time></trkpt><trkpt lat="44.122479743000355" lon="1.1183873027913396"><ele>86.33333333333334</ele><time>2026-03-22T13:56:31Z</time></trkpt><trkpt lat="44.12229967831118" lon="1.1185087355880294"><ele>86.0</ele><time>2026-03-22T13:56:32Z</time></trkpt><trkpt lat="44.122124489728485" lon="1.1186280683027499"><ele>86.0</ele><time>2026-03-22T13:56:33Z</time></trkpt><trkpt lat="44.12196955619073" lon="1.1187248645567989"><ele>86.0</ele><time>2026-03-22T13:56:34Z</time></trkpt><trkpt lat="44.12183419989117" lon="1.11882248719837"><ele>86.0</ele><time>2026-03-22T13:56:35Z</time></trkpt><trkpt lat="44.12171081716354" lon="1.1189477223613455"><ele>86.0</ele><time>2026-03-22T13:56:36Z</time></trkpt><trkpt lat="44.121586676429914" lon="1.1190577869688199"><ele>86.0</ele><time>2026-03-22T13:56:37Z</time></trkpt><trkpt lat="44.12147268372084" lon="1.1191432558526266"><ele>86.0</ele><time>2026-03-22T13:56:38Z</time></trkpt><trkpt lat="44.12137962861749" lon="1.1192607313647598"><ele>86.0</ele><time>2026-03-22T13:56:38.999Z</time></trkpt><trkpt lat="44.12130592352786" lon="1.1194079146047258"><ele>85.19999999999999</ele><time>2026-03-22T13:56:39.999Z</time></trkpt><trkpt lat="44.121230214707204" lon="1.1195402445247442"><ele>84.39999999999999</ele><time>2026-03-22T13:56:40.999Z</time></trkpt><trkpt lat="44.12115174230828" lon="1.1196272864958157"><ele>83.6</ele><time>2026-03-22T13:56:41.999Z</time></trkpt><trkpt lat="44.12105780757598" lon="1.1196873094114548"><ele>82.8</ele><time>2026-03-22T13:56:42.999Z</time></trkpt><trkpt lat="44.12094940819139" lon="1.1197572560452915"><ele>82.0</ele><time>2026-03-22T13:56:43.999Z</time></trkpt><trkpt lat="44.12082875215026" lon="1.119840523005304"><ele>80.75</ele><time>2026-03-22T13:56:44.999Z</time></trkpt><trkpt lat="44.120707189168805" lon="1.1199607822165896"><ele>79.5</ele><time>2026-03-22T13:56:45.999Z</time></trkpt><trkpt lat="44.1206165927291" lon="1.1200895381608642"><ele>78.25</ele><time>2026-03-22T13:56:46.999Z</time></trkpt><trkpt lat="44.12056330011984" lon="1.1202085990473116"><ele>77.0</ele><time>2026-03-22T13:56:47.999Z</time></trkpt><trkpt lat="44.12050780356493" lon="1.120277617782596"><ele>77.0</ele><time>2026-03-22T13:56:49.999Z</time></trkpt><trkpt lat="44.12038261986595" lon="1.1202095586916005"><ele>77.0</ele><time>2026-03-22T13:56:51.999Z</time></trkpt><trkpt lat="44.12025557223904" lon="1.1201579509819544"><ele>77.0</ele><time>2026-03-22T13:56:52.999Z</time></trkpt><trkpt lat="44.12011935928467" lon="1.1201192235289972"><ele>77.0</ele><time>2026-03-22T13:56:53.999Z</time></trkpt><trkpt lat="44.12002493783434" lon="1.1200576280527668"><ele>77.0</ele><time>2026-03-22T13:56:54.999Z</time></trkpt><trkpt lat="44.119943954285816" lon="1.1200354395024565"><ele>77.0</ele><time>2026-03-22T13:56:55.999Z</time></trkpt><trkpt lat="44.11987946711642" lon="1.120010081143222"><ele>77.0</ele><time>2026-03-22T13:56:56.999Z</time></trkpt><trkpt lat="44.119793914191476" lon="1.1199764450962992"><ele>77.0</ele><time>2026-03-22T13:56:58.999Z</time></trkpt><trkpt lat="44.11968429340762" lon="1.120312306257759"><ele>77.0</ele><time>2026-03-22T13:57:00.999Z</time></trkpt><trkpt lat="44.11958560524174" lon="1.1203456434809085"><ele>77.0</ele><time>2026-03-22T13:57:02.999Z</time></trkpt><trkpt lat="44.119509836446085" lon="1.1203982859921202"><ele>77.0</ele><time>2026-03-22T13:57:04.999Z</time></trkpt><trkpt lat="44.11946190897331" lon="1.1204656320440651"><ele>77.0</ele><time>2026-03-22T14:00:04Z</time></trkpt><trkpt lat="44.11941093212749" lon="1.1205403242078298"><ele>77.0</ele><time>2026-03-22T14:00:33Z</time></trkpt><trkpt lat="44.11943092807671" lon="1.1206614486410937"><ele>77.0</ele><time>2026-03-22T14:00:36Z</time></trkpt><trkpt lat="44.11950698297046" lon="1.1207496491151898"><ele>77.0</ele><time>2026-03-22T14:00:38Z</time></trkpt><trkpt lat="44.119578865182845" lon="1.1208133889765142"><ele>77.0</ele><time>2026-03-22T14:00:40Z</time></trkpt><trkpt lat="44.11964118905638" lon="1.120887929240208"><ele>77.0</ele><time>2026-03-22T14:00:42Z</time></trkpt><trkpt lat="44.11971101978048" lon="1.1208791246117473"><ele>77.0</ele><time>2026-03-22T14:00:44Z</time></trkpt><trkpt lat="44.119791372809914" lon="1.1205378091509806"><ele>77.0</ele><time>2026-03-22T14:00:48Z</time></trkpt><trkpt lat="44.11977120795041" lon="1.120412589410716"><ele>77.0</ele><time>2026-03-22T14:00:49Z</time></trkpt><trkpt lat="44.119747448761935" lon="1.120330910813882"><ele>77.0</ele><time>2026-03-22T14:00:50Z</time></trkpt><trkpt lat="44.11976409972955" lon="1.120180298477022"><ele>77.0</ele><time>2026-03-22T14:00:52Z</time></trkpt><trkpt lat="44.11976336475955" lon="1.120088004466243"><ele>77.0</ele><time>2026-03-22T14:00:54.999Z</time></trkpt><trkpt lat="44.119734777563075" lon="1.1199939762631537"><ele>77.0</ele><time>2026-03-22T14:00:56.999Z</time></trkpt><trkpt lat="44.11966910351557" lon="1.1199362121147025"><ele>76.75</ele><time>2026-03-22T14:00:57.999Z</time></trkpt><trkpt lat="44.11956508859012" lon="1.1198934597904964"><ele>76.5</ele><time>2026-03-22T14:00:58.999Z</time></trkpt><trkpt lat="44.119457609437156" lon="1.1198556954477121"><ele>76.25</ele><time>2026-03-22T14:00:59.999Z</time></trkpt><trkpt lat="44.11933504222969" lon="1.119817245312867"><ele>76.0</ele><time>2026-03-22T14:01:00.999Z</time></trkpt><trkpt lat="44.11921809422203" lon="1.1197875370275854"><ele>76.0</ele><time>2026-03-22T14:01:01.999Z</time></trkpt><trkpt lat="44.11911634745525" lon="1.1197469578925738"><ele>76.0</ele><time>2026-03-22T14:01:02.999Z</time></trkpt><trkpt lat="44.119020518618676" lon="1.119695307167982"><ele>76.0</ele><time>2026-03-22T14:01:03.999Z</time></trkpt><trkpt lat="44.118927909737614" lon="1.119664866659796"><ele>76.0</ele><time>2026-03-22T14:01:04.999Z</time></trkpt><trkpt lat="44.11887058310424" lon="1.1194896584678578"><ele>76.0</ele><time>2026-03-22T14:01:05.999Z</time></trkpt><trkpt lat="44.11881009532852" lon="1.119312926187045"><ele>76.33333333333333</ele><time>2026-03-22T14:01:06.999Z</time></trkpt><trkpt lat="44.11873087660369" lon="1.1191106593154727"><ele>76.66666666666667</ele><time>2026-03-22T14:01:07.999Z</time></trkpt><trkpt lat="44.11862339328444" lon="1.1189145426116613"><ele>77.0</ele><time>2026-03-22T14:01:08.999Z</time></trkpt><trkpt lat="44.11850962405282" lon="1.118692529561029"><ele>77.0</ele><time>2026-03-22T14:01:09.999Z</time></trkpt><trkpt lat="44.11838850671912" lon="1.11845375062232"><ele>77.0</ele><time>2026-03-22T14:01:10.999Z</time></trkpt><trkpt lat="44.11827198025498" lon="1.1182578790770177"><ele>77.0</ele><time>2026-03-22T14:01:11.999Z</time></trkpt><trkpt lat="44.11816320995435" lon="1.1180788455464055"><ele>77.0</ele><time>2026-03-22T14:01:12.999Z</time></trkpt><trkpt lat="44.118061744425496" lon="1.1179015728004384"><ele>77.0</ele><time>2026-03-22T14:01:13.999Z</time></trkpt><trkpt lat="44.11795828594247" lon="1.117723579197762"><ele>77.0</ele><time>2026-03-22T14:01:14.999Z</time></trkpt><trkpt lat="44.11785317281069" lon="1.1175439909387574"><ele>76.66666666666667</ele><time>2026-03-22T14:01:15.999Z</time></trkpt><trkpt lat="44.117804765765605" lon="1.1173015235646468"><ele>76.33333333333333</ele><time>2026-03-22T14:01:16.999Z</time></trkpt><trkpt lat="44.11765164481899" lon="1.1171869257555"><ele>76.0</ele><time>2026-03-22T14:01:17.999Z</time></trkpt><trkpt lat="44.11755247639206" lon="1.1170106452622264"><ele>76.0</ele><time>2026-03-22T14:01:18.999Z</time></trkpt><trkpt lat="44.1174573147831" lon="1.1168372665651303"><ele>76.0</ele><time>2026-03-22T14:01:19.999Z</time></trkpt><trkpt lat="44.11736189595745" lon="1.1166665727612852"><ele>76.0</ele><time>2026-03-22T14:01:20.999Z</time></trkpt><trkpt lat="44.11726248182981" lon="1.1164992074155542"><ele>75.33333333333333</ele><time>2026-03-22T14:01:21.999Z</time></trkpt><trkpt lat="44.117162716947114" lon="1.1163278077899623"><ele>74.66666666666667</ele><time>2026-03-22T14:01:22.999Z</time></trkpt><trkpt lat="44.11706377067015" lon="1.1161595960161141"><ele>74.0</ele><time>2026-03-22T14:01:23.999Z</time></trkpt><trkpt lat="44.116970518185994" lon="1.1159882065099218"><ele>74.0</ele><time>2026-03-22T14:01:24.999Z</time></trkpt><trkpt lat="44.11687863030186" lon="1.115817580685954"><ele>74.0</ele><time>2026-03-22T14:01:25.999Z</time></trkpt><trkpt lat="44.11678199100524" lon="1.1156527723840928"><ele>74.0</ele><time>2026-03-22T14:01:26.999Z</time></trkpt><trkpt lat="44.11668436905228" lon="1.1154840463967932"><ele>74.0</ele><time>2026-03-22T14:01:27.999Z</time></trkpt><trkpt lat="44.116579374764164" lon="1.1153092531481004"><ele>74.0</ele><time>2026-03-22T14:01:28.999Z</time></trkpt><trkpt lat="44.11647655611905" lon="1.115135806184769"><ele>74.0</ele><time>2026-03-22T14:01:29.999Z</time></trkpt><trkpt lat="44.11637803974899" lon="1.1149622405088444"><ele>74.33333333333334</ele><time>2026-03-22T14:01:30.999Z</time></trkpt><trkpt lat="44.11627844846793" lon="1.11478642835333"><ele>74.66666666666667</ele><time>2026-03-22T14:01:31.999Z</time></trkpt><trkpt lat="44.116181331941455" lon="1.1146091373619116"><ele>75.0</ele><time>2026-03-22T14:01:32.999Z</time></trkpt><trkpt lat="44.11608181356141" lon="1.114432225209093"><ele>75.0</ele><time>2026-03-22T14:01:33.999Z</time></trkpt><trkpt lat="44.11598385268665" lon="1.1142561826930457"><ele>75.0</ele><time>2026-03-22T14:01:34.999Z</time></trkpt><trkpt lat="44.11588246259004" lon="1.114082059774304"><ele>75.0</ele><time>2026-03-22T14:01:35.999Z</time></trkpt><trkpt lat="44.11577968264172" lon="1.113909189719484"><ele>75.25</ele><time>2026-03-22T14:01:36.999Z</time></trkpt><trkpt lat="44.115678661562136" lon="1.1137408532752373"><ele>75.5</ele><time>2026-03-22T14:01:37.999Z</time></trkpt><trkpt lat="44.115585912391296" lon="1.113587164461396"><ele>75.75</ele><time>2026-03-22T14:01:38.999Z</time></trkpt><trkpt lat="44.115498654835875" lon="1.1134412300456829"><ele>76.0</ele><time>2026-03-22T14:01:39.999Z</time></trkpt><trkpt lat="44.11542118326942" lon="1.1133079155407464"><ele>76.0</ele><time>2026-03-22T14:01:40.999Z</time></trkpt><trkpt lat="44.11534933287218" lon="1.1131780678660201"><ele>76.0</ele><time>2026-03-22T14:01:41.999Z</time></trkpt><trkpt lat="44.115278774139114" lon="1.113050529717123"><ele>76.0</ele><time>2026-03-22T14:01:42.999Z</time></trkpt><trkpt lat="44.1152061063464" lon="1.1129222690865987"><ele>76.0</ele><time>2026-03-22T14:01:43.999Z</time></trkpt><trkpt lat="44.115138321084174" lon="1.1128006363645788"><ele>76.0</ele><time>2026-03-22T14:01:44.999Z</time></trkpt><trkpt lat="44.115074484116995" lon="1.1126850087603073"><ele>76.0</ele><time>2026-03-22T14:01:45.999Z</time></trkpt><trkpt lat="44.11501828370849" lon="1.11258244297531"><ele>76.0</ele><time>2026-03-22T14:01:46.999Z</time></trkpt><trkpt lat="44.11497456641321" lon="1.1124868653839948"><ele>76.0</ele><time>2026-03-22T14:01:47.999Z</time></trkpt><trkpt lat="44.11493859127137" lon="1.1123979341759047"><ele>76.0</ele><time>2026-03-22T14:01:49Z</time></trkpt><trkpt lat="44.11490411814688" lon="1.1123055817801795"><ele>76.0</ele><time>2026-03-22T14:01:50Z</time></trkpt><trkpt lat="44.11488888744651" lon="1.1121992426957843"><ele>76.39999999999999</ele><time>2026-03-22T14:01:51Z</time></trkpt><trkpt lat="44.11483475914698" lon="1.1121153221312752"><ele>76.8</ele><time>2026-03-22T14:01:52Z</time></trkpt><trkpt lat="44.11475806263387" lon="1.1120263772178969"><ele>77.19999999999999</ele><time>2026-03-22T14:01:53Z</time></trkpt><trkpt lat="44.114665831434344" lon="1.1119241029747104"><ele>77.6</ele><time>2026-03-22T14:01:54Z</time></trkpt><trkpt lat="44.11455565759288" lon="1.111786827216361"><ele>78.0</ele><time>2026-03-22T14:01:55Z</time></trkpt><trkpt lat="44.11445281733891" lon="1.111623293838834"><ele>77.33333333333333</ele><time>2026-03-22T14:01:56Z</time></trkpt><trkpt lat="44.11436106606037" lon="1.1114549677881587"><ele>76.66666666666666</ele><time>2026-03-22T14:01:57Z</time></trkpt><trkpt lat="44.11427429150524" lon="1.1112822522454522"><ele>76.0</ele><time>2026-03-22T14:01:58Z</time></trkpt><trkpt lat="44.11418643371275" lon="1.1111120795086198"><ele>76.0</ele><time>2026-03-22T14:01:59Z</time></trkpt><trkpt lat="44.114100231680254" lon="1.110939870490015"><ele>76.0</ele><time>2026-03-22T14:02:00Z</time></trkpt><trkpt lat="44.114010755479505" lon="1.1107652231691982"><ele>76.0</ele><time>2026-03-22T14:02:01Z</time></trkpt><trkpt lat="44.11391804301362" lon="1.1105905096850284"><ele>76.0</ele><time>2026-03-22T14:02:02Z</time></trkpt><trkpt lat="44.11382552994071" lon="1.110412777995936"><ele>76.0</ele><time>2026-03-22T14:02:03Z</time></trkpt><trkpt lat="44.11373429364109" lon="1.110235828839419"><ele>76.0</ele><time>2026-03-22T14:02:04Z</time></trkpt><trkpt lat="44.11364163988968" lon="1.110059280185395"><ele>76.0</ele><time>2026-03-22T14:02:05Z</time></trkpt><trkpt lat="44.11355087229142" lon="1.1098774369387063"><ele>76.0</ele><time>2026-03-22T14:02:06Z</time></trkpt><trkpt lat="44.113461321826655" lon="1.1096944846541679"><ele>76.0</ele><time>2026-03-22T14:02:07Z</time></trkpt><trkpt lat="44.113376674888706" lon="1.1095229951217036"><ele>76.0</ele><time>2026-03-22T14:02:08Z</time></trkpt><trkpt lat="44.11329675642625" lon="1.1093611398563095"><ele>76.0</ele><time>2026-03-22T14:02:09Z</time></trkpt><trkpt lat="44.11321840303884" lon="1.1092056328305464"><ele>76.0</ele><time>2026-03-22T14:02:10Z</time></trkpt><trkpt lat="44.113140880316934" lon="1.1090535628490157"><ele>76.0</ele><time>2026-03-22T14:02:11Z</time></trkpt><trkpt lat="44.11306269207786" lon="1.1089002726198365"><ele>76.0</ele><time>2026-03-22T14:02:12Z</time></trkpt><trkpt lat="44.11298133091074" lon="1.1087425895523724"><ele>76.0</ele><time>2026-03-22T14:02:13Z</time></trkpt><trkpt lat="44.112896805805974" lon="1.1085796253494853"><ele>76.0</ele><time>2026-03-22T14:02:14Z</time></trkpt><trkpt lat="44.11280913916452" lon="1.1084127548066343"><ele>76.0</ele><time>2026-03-22T14:02:15Z</time></trkpt><trkpt lat="44.112721032248835" lon="1.108240903986487"><ele>75.66666666666666</ele><time>2026-03-22T14:02:16Z</time></trkpt><trkpt lat="44.11263376105365" lon="1.1080636936418693"><ele>75.33333333333333</ele><time>2026-03-22T14:02:17Z</time></trkpt><trkpt lat="44.11254167067701" lon="1.1078853238259514"><ele>75.0</ele><time>2026-03-22T14:02:18Z</time></trkpt><trkpt lat="44.11244316053964" lon="1.1077028283472954"><ele>75.0</ele><time>2026-03-22T14:02:19Z</time></trkpt><trkpt lat="44.112345874769076" lon="1.107514643727894"><ele>75.0</ele><time>2026-03-22T14:02:20Z</time></trkpt><trkpt lat="44.11224910128106" lon="1.1073232937685022"><ele>75.0</ele><time>2026-03-22T14:02:21Z</time></trkpt><trkpt lat="44.112152594305506" lon="1.1071356422463647"><ele>75.0</ele><time>2026-03-22T14:02:22Z</time></trkpt><trkpt lat="44.11205932437642" lon="1.1069485414202531"><ele>75.0</ele><time>2026-03-22T14:02:23Z</time></trkpt><trkpt lat="44.11196621598127" lon="1.1067634020219332"><ele>75.0</ele><time>2026-03-22T14:02:24Z</time></trkpt><trkpt lat="44.111873808353394" lon="1.106579188495259"><ele>75.0</ele><time>2026-03-22T14:02:25Z</time></trkpt><trkpt lat="44.11178503347747" lon="1.1063973359023898"><ele>75.0</ele><time>2026-03-22T14:02:26Z</time></trkpt><trkpt lat="44.1116930056402" lon="1.1062193034009473"><ele>75.0</ele><time>2026-03-22T14:02:27Z</time></trkpt><trkpt lat="44.11160335493193" lon="1.1060440719096536"><ele>75.25</ele><time>2026-03-22T14:02:28Z</time></trkpt><trkpt lat="44.11151620253089" lon="1.1058771100831672"><ele>75.5</ele><time>2026-03-22T14:02:29Z</time></trkpt><trkpt lat="44.111435323652124" lon="1.1057172198221021"><ele>75.75</ele><time>2026-03-22T14:02:30Z</time></trkpt><trkpt lat="44.111366306842875" lon="1.1055707415917138"><ele>76.0</ele><time>2026-03-22T14:02:31Z</time></trkpt><trkpt lat="44.111304026500115" lon="1.1054319622547277"><ele>76.0</ele><time>2026-03-22T14:02:32Z</time></trkpt><trkpt lat="44.1112420782633" lon="1.105303706716381"><ele>76.0</ele><time>2026-03-22T14:02:33Z</time></trkpt><trkpt lat="44.111188394950666" lon="1.105191636702169"><ele>76.0</ele><time>2026-03-22T14:02:34Z</time></trkpt><trkpt lat="44.11114443834683" lon="1.1050867222091052"><ele>76.0</ele><time>2026-03-22T14:02:35Z</time></trkpt><trkpt lat="44.111113634148694" lon="1.1049795608391595"><ele>76.0</ele><time>2026-03-22T14:02:36Z</time></trkpt><trkpt lat="44.11109517840202" lon="1.104874225647001"><ele>75.8</ele><time>2026-03-22T14:02:37Z</time></trkpt><trkpt lat="44.11106926297328" lon="1.1047736207135124"><ele>75.6</ele><time>2026-03-22T14:02:38Z</time></trkpt><trkpt lat="44.11102147595229" lon="1.1046932341328375"><ele>75.4</ele><time>2026-03-22T14:02:39Z</time></trkpt><trkpt lat="44.11095180176657" lon="1.1046265350279478"><ele>75.2</ele><time>2026-03-22T14:02:40Z</time></trkpt><trkpt lat="44.11086898814267" lon="1.104542658168612"><ele>75.0</ele><time>2026-03-22T14:02:41Z</time></trkpt><trkpt lat="44.11078614065865" lon="1.1044181525959584"><ele>74.75</ele><time>2026-03-22T14:02:42Z</time></trkpt><trkpt lat="44.110707543231825" lon="1.1042644632247738"><ele>74.5</ele><time>2026-03-22T14:02:43Z</time></trkpt><trkpt lat="44.11063076137787" lon="1.1041083044837592"><ele>74.25</ele><time>2026-03-22T14:02:44Z</time></trkpt><trkpt lat="44.11054486130021" lon="1.1039443959729742"><ele>74.0</ele><time>2026-03-22T14:02:45Z</time></trkpt><trkpt lat="44.11045943329211" lon="1.1037834273783647"><ele>73.75</ele><time>2026-03-22T14:02:46Z</time></trkpt><trkpt lat="44.11037312986652" lon="1.1036250423052014"><ele>73.5</ele><time>2026-03-22T14:02:47Z</time></trkpt><trkpt lat="44.11028625189227" lon="1.1034582093708187"><ele>73.25</ele><time>2026-03-22T14:02:48Z</time></trkpt><trkpt lat="44.11019744143983" lon="1.103286090954336"><ele>73.0</ele><time>2026-03-22T14:02:49Z</time></trkpt><trkpt lat="44.11010693644768" lon="1.1031096002698821"><ele>73.0</ele><time>2026-03-22T14:02:50Z</time></trkpt><trkpt lat="44.110014199080744" lon="1.1029387457901794"><ele>73.0</ele><time>2026-03-22T14:02:51Z</time></trkpt><trkpt lat="44.109927723752996" lon="1.1027777059187098"><ele>73.0</ele><time>2026-03-22T14:02:52Z</time></trkpt><trkpt lat="44.10984381279436" lon="1.1026185893421057"><ele>73.0</ele><time>2026-03-22T14:02:53Z</time></trkpt><trkpt lat="44.10976523110998" lon="1.1024618607521643"><ele>73.0</ele><time>2026-03-22T14:02:54Z</time></trkpt><trkpt lat="44.1096879811336" lon="1.102304335011075"><ele>73.0</ele><time>2026-03-22T14:02:55Z</time></trkpt><trkpt lat="44.109624137583516" lon="1.1021654304308346"><ele>73.0</ele><time>2026-03-22T14:02:56Z</time></trkpt><trkpt lat="44.10956478976839" lon="1.1020511986363275"><ele>73.0</ele><time>2026-03-22T14:02:57Z</time></trkpt><trkpt lat="44.10951783503296" lon="1.1019623347471488"><ele>73.0</ele><time>2026-03-22T14:02:58Z</time></trkpt><trkpt lat="44.10947470586148" lon="1.101882030763294"><ele>73.0</ele><time>2026-03-22T14:02:59Z</time></trkpt><trkpt lat="44.10944008538485" lon="1.10180697676578"><ele>73.0</ele><time>2026-03-22T14:02:59.999Z</time></trkpt><trkpt lat="44.10937718763105" lon="1.1016775441610895"><ele>73.0</ele><time>2026-03-22T14:03:01.999Z</time></trkpt><trkpt lat="44.10932925990691" lon="1.1015833588998494"><ele>73.0</ele><time>2026-03-22T14:03:02.999Z</time></trkpt><trkpt lat="44.10926633223703" lon="1.1014539709766453"><ele>73.0</ele><time>2026-03-22T14:03:03.999Z</time></trkpt><trkpt lat="44.1091987527971" lon="1.1013146481915028"><ele>73.0</ele><time>2026-03-22T14:03:04.999Z</time></trkpt><trkpt lat="44.10911398332131" lon="1.1011507024699876"><ele>73.0</ele><time>2026-03-22T14:03:05.999Z</time></trkpt><trkpt lat="44.10902005899513" lon="1.100970675243475"><ele>73.0</ele><time>2026-03-22T14:03:06.999Z</time></trkpt><trkpt lat="44.10893109900163" lon="1.1007975232654479"><ele>73.33333333333333</ele><time>2026-03-22T14:03:07.999Z</time></trkpt><trkpt lat="44.108839632610064" lon="1.1006208810073277"><ele>73.66666666666667</ele><time>2026-03-22T14:03:08.999Z</time></trkpt><trkpt lat="44.108746331039754" lon="1.1004441109554741"><ele>74.0</ele><time>2026-03-22T14:03:09.999Z</time></trkpt><trkpt lat="44.10865646629639" lon="1.1002699838682022"><ele>74.0</ele><time>2026-03-22T14:03:10.999Z</time></trkpt><trkpt lat="44.108571012263205" lon="1.1001073181507464"><ele>74.0</ele><time>2026-03-22T14:03:11.999Z</time></trkpt><trkpt lat="44.10848691962526" lon="1.0999475351062817"><ele>74.0</ele><time>2026-03-22T14:03:12.999Z</time></trkpt><trkpt lat="44.10840395487788" lon="1.0997909247657964"><ele>74.0</ele><time>2026-03-22T14:03:13.999Z</time></trkpt><trkpt lat="44.10832536987853" lon="1.0996341290663727"><ele>74.0</ele><time>2026-03-22T14:03:14.999Z</time></trkpt><trkpt lat="44.10825115154143" lon="1.0994758185001925"><ele>74.0</ele><time>2026-03-22T14:03:15.999Z</time></trkpt><trkpt lat="44.108180856211675" lon="1.0993227500555627"><ele>74.0</ele><time>2026-03-22T14:03:16.999Z</time></trkpt><trkpt lat="44.10811064078999" lon="1.099171440925677"><ele>74.0</ele><time>2026-03-22T14:03:17.999Z</time></trkpt><trkpt lat="44.108043098024076" lon="1.099012524246603"><ele>74.0</ele><time>2026-03-22T14:03:18.999Z</time></trkpt><trkpt lat="44.10797862543649" lon="1.098843279413206"><ele>74.0</ele><time>2026-03-22T14:03:19.999Z</time></trkpt><trkpt lat="44.107919411917266" lon="1.0986668118030196"><ele>74.0</ele><time>2026-03-22T14:03:20.999Z</time></trkpt><trkpt lat="44.10785877577615" lon="1.0984854563701818"><ele>74.0</ele><time>2026-03-22T14:03:21.999Z</time></trkpt><trkpt lat="44.10779761614655" lon="1.0983061818200848"><ele>74.5</ele><time>2026-03-22T14:03:22.999Z</time></trkpt><trkpt lat="44.107741218774336" lon="1.0981349386162902"><ele>75.0</ele><time>2026-03-22T14:03:23.999Z</time></trkpt><trkpt lat="44.107680685263865" lon="1.0979717370669184"><ele>75.5</ele><time>2026-03-22T14:03:24.999Z</time></trkpt><trkpt lat="44.10763178668152" lon="1.097810119173906"><ele>76.0</ele><time>2026-03-22T14:03:25.999Z</time></trkpt><trkpt lat="44.107579262389145" lon="1.097651863972808"><ele>76.0</ele><time>2026-03-22T14:03:26.999Z</time></trkpt><trkpt lat="44.1075275236278" lon="1.0974829396714632"><ele>76.0</ele><time>2026-03-22T14:03:27.999Z</time></trkpt><trkpt lat="44.10746867145013" lon="1.097307337173372"><ele>76.0</ele><time>2026-03-22T14:03:28.999Z</time></trkpt><trkpt lat="44.10741281582366" lon="1.097130032325779"><ele>76.0</ele><time>2026-03-22T14:03:29.999Z</time></trkpt><trkpt lat="44.107356195163305" lon="1.0969510155698525"><ele>75.25</ele><time>2026-03-22T14:03:30.999Z</time></trkpt><trkpt lat="44.107296772168304" lon="1.0967724919293291"><ele>74.5</ele><time>2026-03-22T14:03:31.999Z</time></trkpt><trkpt lat="44.10724569787417" lon="1.0965916965994384"><ele>73.75</ele><time>2026-03-22T14:03:32.999Z</time></trkpt><trkpt lat="44.10718615490984" lon="1.0964035813585253"><ele>73.0</ele><time>2026-03-22T14:03:33.999Z</time></trkpt><trkpt lat="44.10712906205376" lon="1.096222548708728"><ele>73.0</ele><time>2026-03-22T14:03:34.999Z</time></trkpt><trkpt lat="44.10707210464075" lon="1.0960377243384367"><ele>73.0</ele><time>2026-03-22T14:03:35.999Z</time></trkpt><trkpt lat="44.10701280035742" lon="1.0958672518897554"><ele>73.0</ele><time>2026-03-22T14:03:36.999Z</time></trkpt><trkpt lat="44.10694652137996" lon="1.095712133191309"><ele>73.0</ele><time>2026-03-22T14:03:37.999Z</time></trkpt><trkpt lat="44.106851984150694" lon="1.0955795643548456"><ele>72.75</ele><time>2026-03-22T14:03:38.999Z</time></trkpt><trkpt lat="44.106731652837446" lon="1.0954568230145731"><ele>72.5</ele><time>2026-03-22T14:03:39.999Z</time></trkpt><trkpt lat="44.106602320258546" lon="1.095353126377397"><ele>72.25</ele><time>2026-03-22T14:03:40.999Z</time></trkpt><trkpt lat="44.10647102669073" lon="1.0952517143987497"><ele>72.0</ele><time>2026-03-22T14:03:41.999Z</time></trkpt><trkpt lat="44.106359682031155" lon="1.0951384806888755"><ele>72.0</ele><time>2026-03-22T14:03:42.999Z</time></trkpt><trkpt lat="44.10626435891738" lon="1.0950177864873178"><ele>72.0</ele><time>2026-03-22T14:03:43.999Z</time></trkpt><trkpt lat="44.106209767264986" lon="1.0948892074565095"><ele>72.0</ele><time>2026-03-22T14:03:44.999Z</time></trkpt><trkpt lat="44.106180599105166" lon="1.0947421728525286"><ele>72.0</ele><time>2026-03-22T14:03:45.999Z</time></trkpt><trkpt lat="44.10617476807292" lon="1.0945739404040786"><ele>72.0</ele><time>2026-03-22T14:03:46.999Z</time></trkpt><trkpt lat="44.106193995315216" lon="1.0943792984059777"><ele>72.0</ele><time>2026-03-22T14:03:47.999Z</time></trkpt><trkpt lat="44.10623072165603" lon="1.0941561590180615"><ele>72.0</ele><time>2026-03-22T14:03:48.999Z</time></trkpt><trkpt lat="44.10626832871587" lon="1.093927359957204"><ele>72.0</ele><time>2026-03-22T14:03:49.999Z</time></trkpt><trkpt lat="44.106273060406345" lon="1.0937266831318677"><ele>72.0</ele><time>2026-03-22T14:03:50.999Z</time></trkpt><trkpt lat="44.10625577357362" lon="1.093535192963458"><ele>72.0</ele><time>2026-03-22T14:03:51.999Z</time></trkpt><trkpt lat="44.106228049660295" lon="1.0933685839034442"><ele>72.0</ele><time>2026-03-22T14:03:52.999Z</time></trkpt><trkpt lat="44.10619504293262" lon="1.0932254169440359"><ele>72.33333333333333</ele><time>2026-03-22T14:03:53.999Z</time></trkpt><trkpt lat="44.106161261349264" lon="1.09310423167309"><ele>72.66666666666667</ele><time>2026-03-22T14:03:55Z</time></trkpt><trkpt lat="44.106127238923584" lon="1.092996191513446"><ele>73.0</ele><time>2026-03-22T14:03:56Z</time></trkpt><trkpt lat="44.106096825175484" lon="1.092904758235247"><ele>73.33333333333334</ele><time>2026-03-22T14:03:57Z</time></trkpt><trkpt lat="44.106071867350906" lon="1.0928116381945647"><ele>73.66666666666667</ele><time>2026-03-22T14:03:58Z</time></trkpt><trkpt lat="44.10604046123502" lon="1.0927020406392032"><ele>74.0</ele><time>2026-03-22T14:03:59Z</time></trkpt><trkpt lat="44.1060067900341" lon="1.0925854019030796"><ele>74.0</ele><time>2026-03-22T14:04:00Z</time></trkpt><trkpt lat="44.10596651719898" lon="1.0924614717751937"><ele>74.0</ele><time>2026-03-22T14:04:01Z</time></trkpt><trkpt lat="44.10592262045662" lon="1.0923390119114953"><ele>74.0</ele><time>2026-03-22T14:04:02Z</time></trkpt><trkpt lat="44.10588209153021" lon="1.0922134471036105"><ele>74.0</ele><time>2026-03-22T14:04:03Z</time></trkpt><trkpt lat="44.10584582611123" lon="1.0920917427383718"><ele>74.0</ele><time>2026-03-22T14:04:04Z</time></trkpt><trkpt lat="44.105820385697896" lon="1.0919764802666767"><ele>74.0</ele><time>2026-03-22T14:04:05Z</time></trkpt><trkpt lat="44.10578625419021" lon="1.091864247621"><ele>74.0</ele><time>2026-03-22T14:04:06Z</time></trkpt><trkpt lat="44.10575177901584" lon="1.091752751442213"><ele>74.0</ele><time>2026-03-22T14:04:07Z</time></trkpt><trkpt lat="44.10571602020854" lon="1.091634438377967"><ele>74.0</ele><time>2026-03-22T14:04:08Z</time></trkpt><trkpt lat="44.10567353958848" lon="1.0915058541131752"><ele>74.0</ele><time>2026-03-22T14:04:09Z</time></trkpt><trkpt lat="44.10563216090154" lon="1.0913610009821682"><ele>73.5</ele><time>2026-03-22T14:04:10Z</time></trkpt><trkpt lat="44.10558298096517" lon="1.091215257157225"><ele>73.0</ele><time>2026-03-22T14:04:11Z</time></trkpt><trkpt lat="44.10553479600583" lon="1.0910670821141721"><ele>72.5</ele><time>2026-03-22T14:04:12Z</time></trkpt><trkpt lat="44.10549081026073" lon="1.090923946139599"><ele>72.0</ele><time>2026-03-22T14:04:13Z</time></trkpt><trkpt lat="44.10545085846666" lon="1.0907852721969438"><ele>72.2</ele><time>2026-03-22T14:04:14Z</time></trkpt><trkpt lat="44.10540786678046" lon="1.0906525388519255"><ele>72.4</ele><time>2026-03-22T14:04:15Z</time></trkpt><trkpt lat="44.10536796200877" lon="1.090529063108223"><ele>72.6</ele><time>2026-03-22T14:04:16Z</time></trkpt><trkpt lat="44.105328667766706" lon="1.090420424753957"><ele>72.8</ele><time>2026-03-22T14:04:17Z</time></trkpt><trkpt lat="44.105303640596716" lon="1.0903179100718197"><ele>73.0</ele><time>2026-03-22T14:04:18Z</time></trkpt><trkpt lat="44.105263630265156" lon="1.0902141064439728"><ele>73.0</ele><time>2026-03-22T14:04:19Z</time></trkpt><trkpt lat="44.10522300567444" lon="1.0901087771318958"><ele>73.0</ele><time>2026-03-22T14:04:20Z</time></trkpt><trkpt lat="44.105181054622754" lon="1.0900124932442143"><ele>73.0</ele><time>2026-03-22T14:04:21Z</time></trkpt><trkpt lat="44.10514213938207" lon="1.0899168810624906"><ele>73.0</ele><time>2026-03-22T14:04:22Z</time></trkpt><trkpt lat="44.105100735337956" lon="1.0898202444618652"><ele>73.0</ele><time>2026-03-22T14:04:23Z</time></trkpt><trkpt lat="44.10505921129443" lon="1.0897177320570037"><ele>73.0</ele><time>2026-03-22T14:04:24Z</time></trkpt><trkpt lat="44.105010022981" lon="1.0896158046693558"><ele>73.0</ele><time>2026-03-22T14:04:25Z</time></trkpt><trkpt lat="44.104957225201645" lon="1.089515092462702"><ele>73.0</ele><time>2026-03-22T14:04:26Z</time></trkpt><trkpt lat="44.104896142986405" lon="1.0894074882411908"><ele>73.0</ele><time>2026-03-22T14:04:27Z</time></trkpt><trkpt lat="44.10483163569425" lon="1.089297211140632"><ele>73.0</ele><time>2026-03-22T14:04:28Z</time></trkpt><trkpt lat="44.10477343056062" lon="1.0891830946417795"><ele>73.0</ele><time>2026-03-22T14:04:29Z</time></trkpt><trkpt lat="44.10471964856691" lon="1.0890753257794308"><ele>73.33333333333333</ele><time>2026-03-22T14:04:30Z</time></trkpt><trkpt lat="44.10466634712134" lon="1.0889786304035087"><ele>73.66666666666666</ele><time>2026-03-22T14:04:31Z</time></trkpt><trkpt lat="44.104618816934355" lon="1.0888837360135353"><ele>74.0</ele><time>2026-03-22T14:04:32Z</time></trkpt><trkpt lat="44.104571199358965" lon="1.088793267403144"><ele>74.33333333333333</ele><time>2026-03-22T14:04:33Z</time></trkpt><trkpt lat="44.104524234194834" lon="1.0887002846176281"><ele>74.66666666666667</ele><time>2026-03-22T14:04:34Z</time></trkpt><trkpt lat="44.1044781351799" lon="1.0886008871173014"><ele>75.0</ele><time>2026-03-22T14:04:35Z</time></trkpt><trkpt lat="44.10442845508369" lon="1.0885142910956946"><ele>75.0</ele><time>2026-03-22T14:04:36Z</time></trkpt><trkpt lat="44.10438692733018" lon="1.088428985717266"><ele>75.0</ele><time>2026-03-22T14:04:37Z</time></trkpt><trkpt lat="44.10434965834078" lon="1.0883438648051915"><ele>75.0</ele><time>2026-03-22T14:04:38Z</time></trkpt><trkpt lat="44.10429330793702" lon="1.0882074410437617"><ele>75.0</ele><time>2026-03-22T14:04:40Z</time></trkpt><trkpt lat="44.10425983125347" lon="1.0880881070288826"><ele>75.0</ele><time>2026-03-22T14:04:42Z</time></trkpt><trkpt lat="44.104263038834084" lon="1.0879639149267726"><ele>75.0</ele><time>2026-03-22T14:04:44Z</time></trkpt><trkpt lat="44.104209002351254" lon="1.0879178273837693"><ele>75.2</ele><time>2026-03-22T14:04:45Z</time></trkpt><trkpt lat="44.10411000672702" lon="1.0879037598125891"><ele>75.4</ele><time>2026-03-22T14:04:47Z</time></trkpt><trkpt lat="44.103983871358224" lon="1.0879311420477527"><ele>75.6</ele><time>2026-03-22T14:04:49Z</time></trkpt><trkpt lat="44.103891992239994" lon="1.0879178814461357"><ele>75.8</ele><time>2026-03-22T14:04:50Z</time></trkpt><trkpt lat="44.10380868107614" lon="1.0878839406318113"><ele>76.0</ele><time>2026-03-22T14:04:51Z</time></trkpt><trkpt lat="44.103737128876816" lon="1.0878337344877014"><ele>75.83333333333333</ele><time>2026-03-22T14:04:52Z</time></trkpt><trkpt lat="44.103679895782776" lon="1.0877520232791191"><ele>75.66666666666666</ele><time>2026-03-22T14:04:53Z</time></trkpt><trkpt lat="44.10362832483669" lon="1.0876853206686468"><ele>75.5</ele><time>2026-03-22T14:04:54Z</time></trkpt><trkpt lat="44.103574221949245" lon="1.0876115270600688"><ele>75.33333333333333</ele><time>2026-03-22T14:04:55Z</time></trkpt><trkpt lat="44.10351678142981" lon="1.087524995787667"><ele>75.16666666666667</ele><time>2026-03-22T14:04:56Z</time></trkpt><trkpt lat="44.10345607704194" lon="1.0874387077098542"><ele>75.0</ele><time>2026-03-22T14:04:57Z</time></trkpt><trkpt lat="44.10338517946614" lon="1.0873572766725348"><ele>75.0</ele><time>2026-03-22T14:04:58Z</time></trkpt><trkpt lat="44.10332160941516" lon="1.0872914728924117"><ele>75.0</ele><time>2026-03-22T14:04:59Z</time></trkpt><trkpt lat="44.10326685897217" lon="1.0872300870447864"><ele>75.0</ele><time>2026-03-22T14:05:00Z</time></trkpt><trkpt lat="44.10321164141946" lon="1.0871714016782905"><ele>75.0</ele><time>2026-03-22T14:05:01Z</time></trkpt><trkpt lat="44.10316311457179" lon="1.0871103902559816"><ele>75.0</ele><time>2026-03-22T14:05:02Z</time></trkpt><trkpt lat="44.10308013255956" lon="1.0870161334806694"><ele>75.0</ele><time>2026-03-22T14:05:04Z</time></trkpt><trkpt lat="44.10301887509626" lon="1.0869506534780145"><ele>74.8</ele><time>2026-03-22T14:05:06Z</time></trkpt><trkpt lat="44.10289950454317" lon="1.086859229201439"><ele>74.6</ele><time>2026-03-22T14:05:07.999Z</time></trkpt><trkpt lat="44.10281999930637" lon="1.0867992318797723"><ele>74.4</ele><time>2026-03-22T14:05:08.999Z</time></trkpt><trkpt lat="44.102730548281805" lon="1.0867496861577333"><ele>74.2</ele><time>2026-03-22T14:05:09.999Z</time></trkpt><trkpt lat="44.10264986809223" lon="1.0867154261949732"><ele>74.0</ele><time>2026-03-22T14:05:10.999Z</time></trkpt><trkpt lat="44.10257351306208" lon="1.0866774196047073"><ele>74.0</ele><time>2026-03-22T14:05:11.999Z</time></trkpt><trkpt lat="44.10251147357009" lon="1.0866353870913483"><ele>74.0</ele><time>2026-03-22T14:05:12.999Z</time></trkpt><trkpt lat="44.10241935234877" lon="1.08654597759556"><ele>74.0</ele><time>2026-03-22T14:05:14.999Z</time></trkpt><trkpt lat="44.10233460703244" lon="1.086433155457711"><ele>74.0</ele><time>2026-03-22T14:05:16.999Z</time></trkpt><trkpt lat="44.10224957582478" lon="1.0862966644113716"><ele>74.0</ele><time>2026-03-22T14:05:18.999Z</time></trkpt><trkpt lat="44.102214836746754" lon="1.0862061140402555"><ele>73.83333333333334</ele><time>2026-03-22T14:05:19.999Z</time></trkpt><trkpt lat="44.10219043515716" lon="1.0860982151217213"><ele>73.66666666666667</ele><time>2026-03-22T14:05:20.999Z</time></trkpt><trkpt lat="44.10216786410309" lon="1.0859863118023634"><ele>73.5</ele><time>2026-03-22T14:05:21.999Z</time></trkpt><trkpt lat="44.102144282902564" lon="1.0858832607953863"><ele>73.33333333333333</ele><time>2026-03-22T14:05:22.999Z</time></trkpt><trkpt lat="44.10212054539924" lon="1.0857801895674228"><ele>73.16666666666666</ele><time>2026-03-22T14:05:23.999Z</time></trkpt><trkpt lat="44.10209932677257" lon="1.0856739980701415"><ele>73.0</ele><time>2026-03-22T14:05:24.999Z</time></trkpt><trkpt lat="44.10207879256153" lon="1.0855595044017372"><ele>73.0</ele><time>2026-03-22T14:05:25.999Z</time></trkpt><trkpt lat="44.10207040721389" lon="1.0854290757474583"><ele>73.0</ele><time>2026-03-22T14:05:26.999Z</time></trkpt><trkpt lat="44.10207026989188" lon="1.0853004232814298"><ele>73.0</ele><time>2026-03-22T14:05:27.999Z</time></trkpt><trkpt lat="44.10208818526355" lon="1.0851803024478015"><ele>73.0</ele><time>2026-03-22T14:05:28.999Z</time></trkpt><trkpt lat="44.10211365135293" lon="1.0850587587106306"><ele>73.0</ele><time>2026-03-22T14:05:29.999Z</time></trkpt><trkpt lat="44.10214172393525" lon="1.084937024490017"><ele>72.66666666666666</ele><time>2026-03-22T14:05:30.999Z</time></trkpt><trkpt lat="44.1021810181056" lon="1.0848267752541294"><ele>72.33333333333333</ele><time>2026-03-22T14:05:31.999Z</time></trkpt><trkpt lat="44.10221269844535" lon="1.0847311407516715"><ele>72.0</ele><time>2026-03-22T14:05:32.999Z</time></trkpt><trkpt lat="44.10223949883601" lon="1.0846358439534367"><ele>71.66666666666667</ele><time>2026-03-22T14:05:33.999Z</time></trkpt><trkpt lat="44.10227493545705" lon="1.084540456996655"><ele>71.33333333333334</ele><time>2026-03-22T14:05:34.999Z</time></trkpt><trkpt lat="44.10231298000304" lon="1.084439097549859"><ele>71.0</ele><time>2026-03-22T14:05:35.999Z</time></trkpt><trkpt lat="44.102353265876054" lon="1.0843379795285009"><ele>71.0</ele><time>2026-03-22T14:05:36.999Z</time></trkpt><trkpt lat="44.102387913984565" lon="1.0842294848605376"><ele>71.0</ele><time>2026-03-22T14:05:37.999Z</time></trkpt><trkpt lat="44.102418050997905" lon="1.0841114379629386"><ele>71.0</ele><time>2026-03-22T14:05:38.999Z</time></trkpt><trkpt lat="44.10245895999207" lon="1.0839856107320596"><ele>71.0</ele><time>2026-03-22T14:05:39.999Z</time></trkpt><trkpt lat="44.102496715856674" lon="1.0838505026436622"><ele>71.0</ele><time>2026-03-22T14:05:40.999Z</time></trkpt><trkpt lat="44.10254064614774" lon="1.0837199381159373"><ele>71.5</ele><time>2026-03-22T14:05:41.999Z</time></trkpt><trkpt lat="44.102575880166874" lon="1.0835922489233833"><ele>72.0</ele><time>2026-03-22T14:05:42.999Z</time></trkpt><trkpt lat="44.10260750363214" lon="1.0834731240333586"><ele>72.5</ele><time>2026-03-22T14:05:43.999Z</time></trkpt><trkpt lat="44.10264894887432" lon="1.083362675189209"><ele>73.0</ele><time>2026-03-22T14:05:44.999Z</time></trkpt><trkpt lat="44.10267764441468" lon="1.0832623595033914"><ele>73.5</ele><time>2026-03-22T14:05:45.999Z</time></trkpt><trkpt lat="44.10269350446231" lon="1.0831647766238601"><ele>74.0</ele><time>2026-03-22T14:05:46.999Z</time></trkpt><trkpt lat="44.10270487880544" lon="1.0830437994916924"><ele>74.0</ele><time>2026-03-22T14:05:48.999Z</time></trkpt><trkpt lat="44.10268810644983" lon="1.0829038378008113"><ele>74.0</ele><time>2026-03-22T14:06:21Z</time></trkpt><trkpt lat="44.102693132145816" lon="1.0827640147296695"><ele>74.0</ele><time>2026-03-22T14:06:24Z</time></trkpt><trkpt lat="44.10270995651651" lon="1.082614548735672"><ele>74.0</ele><time>2026-03-22T14:06:26Z</time></trkpt><trkpt lat="44.10273795985643" lon="1.082473175400252"><ele>74.0</ele><time>2026-03-22T14:06:28Z</time></trkpt><trkpt lat="44.10281110899956" lon="1.0824819940588988"><ele>74.0</ele><time>2026-03-22T14:06:29Z</time></trkpt><trkpt lat="44.102920331503476" lon="1.0824159920936587"><ele>74.0</ele><time>2026-03-22T14:06:31Z</time></trkpt><trkpt lat="44.10298406476811" lon="1.0823750995010497"><ele>74.0</ele><time>2026-03-22T14:06:32Z</time></trkpt><trkpt lat="44.10306283156962" lon="1.0823245610530674"><ele>74.0</ele><time>2026-03-22T14:06:33Z</time></trkpt><trkpt lat="44.1031383610411" lon="1.0822759608805148"><ele>74.0</ele><time>2026-03-22T14:06:34Z</time></trkpt><trkpt lat="44.103214484838844" lon="1.0822269719624664"><ele>74.0</ele><time>2026-03-22T14:06:35Z</time></trkpt><trkpt lat="44.10329407539632" lon="1.0821757520348032"><ele>74.16666666666667</ele><time>2026-03-22T14:06:36Z</time></trkpt><trkpt lat="44.10337155429887" lon="1.082121825442353"><ele>74.33333333333334</ele><time>2026-03-22T14:06:37Z</time></trkpt><trkpt lat="44.10344316106731" lon="1.0820744199312327"><ele>74.5</ele><time>2026-03-22T14:06:38Z</time></trkpt><trkpt lat="44.10351437488586" lon="1.082031116050104"><ele>74.66666666666667</ele><time>2026-03-22T14:06:39Z</time></trkpt><trkpt lat="44.10358023876436" lon="1.0819909664094207"><ele>74.83333333333333</ele><time>2026-03-22T14:06:40Z</time></trkpt><trkpt lat="44.10363623001144" lon="1.0819447034625185"><ele>75.0</ele><time>2026-03-22T14:06:41Z</time></trkpt><trkpt lat="44.10367822031333" lon="1.081864271691557"><ele>75.0</ele><time>2026-03-22T14:06:42Z</time></trkpt><trkpt lat="44.1036682836197" lon="1.0817546788530432"><ele>75.0</ele><time>2026-03-22T14:06:43Z</time></trkpt><trkpt lat="44.103628687941544" lon="1.081664518834436"><ele>75.0</ele><time>2026-03-22T14:06:44Z</time></trkpt><trkpt lat="44.10357753547154" lon="1.081552527008686"><ele>75.0</ele><time>2026-03-22T14:06:45Z</time></trkpt><trkpt lat="44.103504971887865" lon="1.0814009113468166"><ele>75.0</ele><time>2026-03-22T14:06:46Z</time></trkpt><trkpt lat="44.10342996187285" lon="1.0812245158968627"><ele>75.0</ele><time>2026-03-22T14:06:47Z</time></trkpt><trkpt lat="44.10336809121016" lon="1.0810706477169596"><ele>75.0</ele><time>2026-03-22T14:06:48Z</time></trkpt><trkpt lat="44.103317379502236" lon="1.0809196703207438"><ele>75.0</ele><time>2026-03-22T14:06:49Z</time></trkpt><trkpt lat="44.10326488031892" lon="1.080759047210549"><ele>75.0</ele><time>2026-03-22T14:06:50Z</time></trkpt><trkpt lat="44.10320489072574" lon="1.0805944087374555"><ele>75.0</ele><time>2026-03-22T14:06:51Z</time></trkpt><trkpt lat="44.10314032521382" lon="1.0804198782000276"><ele>75.0</ele><time>2026-03-22T14:06:52Z</time></trkpt><trkpt lat="44.103077575144006" lon="1.0802368690395372"><ele>75.0</ele><time>2026-03-22T14:06:53Z</time></trkpt><trkpt lat="44.10301019201804" lon="1.0800577500218493"><ele>75.0</ele><time>2026-03-22T14:06:54Z</time></trkpt><trkpt lat="44.10294465991903" lon="1.0798823901294226"><ele>74.75</ele><time>2026-03-22T14:06:55Z</time></trkpt><trkpt lat="44.102886872259425" lon="1.0797121715633555"><ele>74.5</ele><time>2026-03-22T14:06:56Z</time></trkpt><trkpt lat="44.10282596029473" lon="1.0795428384066603"><ele>74.25</ele><time>2026-03-22T14:06:57Z</time></trkpt><trkpt lat="44.102767037785" lon="1.0793699950784208"><ele>74.0</ele><time>2026-03-22T14:06:58Z</time></trkpt><trkpt lat="44.102706538513516" lon="1.0791993167562866"><ele>74.5</ele><time>2026-03-22T14:06:59Z</time></trkpt><trkpt lat="44.10264433863577" lon="1.0790272049679068"><ele>75.0</ele><time>2026-03-22T14:07:00Z</time></trkpt><trkpt lat="44.10258412637906" lon="1.0788512104595698"><ele>75.5</ele><time>2026-03-22T14:07:01Z</time></trkpt><trkpt lat="44.10251959584756" lon="1.0786647642609792"><ele>76.0</ele><time>2026-03-22T14:07:02Z</time></trkpt><trkpt lat="44.10245513789355" lon="1.0784812330992635"><ele>75.5</ele><time>2026-03-22T14:07:03Z</time></trkpt><trkpt lat="44.102391357063524" lon="1.0783130016300335"><ele>75.0</ele><time>2026-03-22T14:07:04Z</time></trkpt><trkpt lat="44.10232844001992" lon="1.0781483603368651"><ele>74.5</ele><time>2026-03-22T14:07:05Z</time></trkpt><trkpt lat="44.102265827762906" lon="1.0780017683538459"><ele>74.0</ele><time>2026-03-22T14:07:06Z</time></trkpt><trkpt lat="44.10219971790702" lon="1.077885882803011"><ele>73.75</ele><time>2026-03-22T14:07:07Z</time></trkpt><trkpt lat="44.102113539767245" lon="1.077783936303684"><ele>73.5</ele><time>2026-03-22T14:07:08Z</time></trkpt><trkpt lat="44.10200927385788" lon="1.0777055612941833"><ele>73.25</ele><time>2026-03-22T14:07:09Z</time></trkpt><trkpt lat="44.101892066585485" lon="1.0776388936070702"><ele>73.0</ele><time>2026-03-22T14:07:10Z</time></trkpt><trkpt lat="44.10177083858854" lon="1.0775915640762253"><ele>73.0</ele><time>2026-03-22T14:07:11Z</time></trkpt><trkpt lat="44.10166329937629" lon="1.0775606383152048"><ele>73.0</ele><time>2026-03-22T14:07:12Z</time></trkpt><trkpt lat="44.10157179266044" lon="1.0775155962923477"><ele>73.0</ele><time>2026-03-22T14:07:12.999Z</time></trkpt><trkpt lat="44.10149309195343" lon="1.0774479158600914"><ele>73.0</ele><time>2026-03-22T14:07:13.999Z</time></trkpt><trkpt lat="44.10143656820942" lon="1.0773579850552162"><ele>73.0</ele><time>2026-03-22T14:07:14.999Z</time></trkpt><trkpt lat="44.10141871634831" lon="1.077230512177668"><ele>72.25</ele><time>2026-03-22T14:07:15.999Z</time></trkpt><trkpt lat="44.10138875345974" lon="1.0770924617193303"><ele>71.5</ele><time>2026-03-22T14:07:16.999Z</time></trkpt><trkpt lat="44.10138451935619" lon="1.0769159645140476"><ele>70.75</ele><time>2026-03-22T14:07:17.999Z</time></trkpt><trkpt lat="44.10141028986647" lon="1.0767097304580597"><ele>70.0</ele><time>2026-03-22T14:07:18.999Z</time></trkpt><trkpt lat="44.10141931922221" lon="1.0764834412205984"><ele>70.0</ele><time>2026-03-22T14:07:19.999Z</time></trkpt><trkpt lat="44.10144216470476" lon="1.0762681473546725"><ele>70.0</ele><time>2026-03-22T14:07:20.999Z</time></trkpt><trkpt lat="44.10146564923199" lon="1.0760583039601304"><ele>70.0</ele><time>2026-03-22T14:07:21.999Z</time></trkpt><trkpt lat="44.10148290483494" lon="1.075843985807738"><ele>70.0</ele><time>2026-03-22T14:07:22.999Z</time></trkpt><trkpt lat="44.10149948184099" lon="1.0756295530350046"><ele>70.0</ele><time>2026-03-22T14:07:23.999Z</time></trkpt><trkpt lat="44.10151007461192" lon="1.075414371853169"><ele>70.0</ele><time>2026-03-22T14:07:24.999Z</time></trkpt><trkpt lat="44.10151291258057" lon="1.0752042171452472"><ele>70.0</ele><time>2026-03-22T14:07:25.999Z</time></trkpt><trkpt lat="44.101503603850745" lon="1.0749868511635305"><ele>70.0</ele><time>2026-03-22T14:07:26.999Z</time></trkpt><trkpt lat="44.10148780328213" lon="1.0747584907660324"><ele>70.0</ele><time>2026-03-22T14:07:27.999Z</time></trkpt><trkpt lat="44.1014657059312" lon="1.0745133740515633"><ele>70.0</ele><time>2026-03-22T14:07:28.999Z</time></trkpt><trkpt lat="44.10144366902494" lon="1.0742631889197434"><ele>70.0</ele><time>2026-03-22T14:07:29.999Z</time></trkpt><trkpt lat="44.10142113904176" lon="1.0740072646551688"><ele>70.0</ele><time>2026-03-22T14:07:30.999Z</time></trkpt><trkpt lat="44.10141198191647" lon="1.0737539537413465"><ele>69.66666666666666</ele><time>2026-03-22T14:07:31.999Z</time></trkpt><trkpt lat="44.10139411030587" lon="1.073502478670101"><ele>69.33333333333333</ele><time>2026-03-22T14:07:32.999Z</time></trkpt><trkpt lat="44.101380369746394" lon="1.0732590615768036"><ele>69.0</ele><time>2026-03-22T14:07:33.999Z</time></trkpt><trkpt lat="44.10136297722522" lon="1.0730353989808783"><ele>69.66666666666667</ele><time>2026-03-22T14:07:34.999Z</time></trkpt><trkpt lat="44.101335358843656" lon="1.0728061775468238"><ele>70.33333333333334</ele><time>2026-03-22T14:07:35.999Z</time></trkpt><trkpt lat="44.10128653184101" lon="1.072561167816212"><ele>71.0</ele><time>2026-03-22T14:07:36.999Z</time></trkpt><trkpt lat="44.10120683281142" lon="1.0723097544452092"><ele>72.5</ele><time>2026-03-22T14:07:37.999Z</time></trkpt><trkpt lat="44.101101866062315" lon="1.0720493583826742"><ele>74.0</ele><time>2026-03-22T14:07:38.999Z</time></trkpt><trkpt lat="44.100970390595315" lon="1.0717576389150374"><ele>71.5</ele><time>2026-03-22T14:07:39.999Z</time></trkpt><trkpt lat="44.10083946238218" lon="1.0714082874778639"><ele>69.0</ele><time>2026-03-22T14:07:40.999Z</time></trkpt><trkpt lat="44.100685385406685" lon="1.0710526918869638"><ele>71.0</ele><time>2026-03-22T14:07:41.999Z</time></trkpt><trkpt lat="44.100545574893715" lon="1.0706517618055622"><ele>73.0</ele><time>2026-03-22T14:07:42.999Z</time></trkpt><trkpt lat="44.10040459283301" lon="1.0702320467684088"><ele>75.0</ele><time>2026-03-22T14:07:43.999Z</time></trkpt><trkpt lat="44.10024614784186" lon="1.0698020040293539"><ele>77.0</ele><time>2026-03-22T14:07:44.999Z</time></trkpt><trkpt lat="44.10007376950499" lon="1.0693566263115895"><ele>73.0</ele><time>2026-03-22T14:07:45.999Z</time></trkpt><trkpt lat="44.09989873488845" lon="1.0689071029316306"><ele>69.0</ele><time>2026-03-22T14:07:46.999Z</time></trkpt><trkpt lat="44.09972451920913" lon="1.0684706921064202"><ele>72.5</ele><time>2026-03-22T14:07:47.999Z</time></trkpt><trkpt lat="44.09956232781973" lon="1.068081261984738"><ele>76.0</ele><time>2026-03-22T14:07:48.999Z</time></trkpt><trkpt lat="44.0994059483896" lon="1.0677262110264116"><ele>73.5</ele><time>2026-03-22T14:07:49.999Z</time></trkpt><trkpt lat="44.09923989915156" lon="1.0673911310750235"><ele>71.0</ele><time>2026-03-22T14:07:50.999Z</time></trkpt><trkpt lat="44.099059893886746" lon="1.0670685028405156"><ele>71.0</ele><time>2026-03-22T14:07:51.999Z</time></trkpt><trkpt lat="44.09887399978804" lon="1.0667576645035923"><ele>71.0</ele><time>2026-03-22T14:07:52.999Z</time></trkpt><trkpt lat="44.098687697054174" lon="1.0664532973515832"><ele>73.5</ele><time>2026-03-22T14:07:53.999Z</time></trkpt><trkpt lat="44.0984986682762" lon="1.0661556126055753"><ele>76.0</ele><time>2026-03-22T14:07:54.999Z</time></trkpt><trkpt lat="44.09830544257743" lon="1.065871029822027"><ele>73.0</ele><time>2026-03-22T14:07:55.999Z</time></trkpt><trkpt lat="44.09811281742426" lon="1.0655874104835048"><ele>70.0</ele><time>2026-03-22T14:07:56.999Z</time></trkpt><trkpt lat="44.09791537898597" lon="1.0653008159866275"><ele>70.0</ele><time>2026-03-22T14:07:57.999Z</time></trkpt><trkpt lat="44.09771135874563" lon="1.0650056095361058"><ele>70.0</ele><time>2026-03-22T14:07:58.999Z</time></trkpt><trkpt lat="44.0975010444182" lon="1.0646997920449721"><ele>69.0</ele><time>2026-03-22T14:07:59.999Z</time></trkpt><trkpt lat="44.097304304218326" lon="1.0644130757347212"><ele>68.0</ele><time>2026-03-22T14:08:00.999Z</time></trkpt><trkpt lat="44.097124574629326" lon="1.0641527175754861"><ele>69.5</ele><time>2026-03-22T14:08:01.999Z</time></trkpt><trkpt lat="44.096950719845076" lon="1.0639030758601353"><ele>71.0</ele><time>2026-03-22T14:08:02.999Z</time></trkpt><trkpt lat="44.09678553342468" lon="1.063661380388572"><ele>71.0</ele><time>2026-03-22T14:08:03.999Z</time></trkpt><trkpt lat="44.09662522657001" lon="1.0634189009844794"><ele>71.0</ele><time>2026-03-22T14:08:04.999Z</time></trkpt><trkpt lat="44.09648288524845" lon="1.0631627081151611"><ele>70.66666666666667</ele><time>2026-03-22T14:08:05.999Z</time></trkpt><trkpt lat="44.09636160880308" lon="1.0628951234350656"><ele>70.33333333333333</ele><time>2026-03-22T14:08:07Z</time></trkpt><trkpt lat="44.09625252498376" lon="1.062630046727167"><ele>70.0</ele><time>2026-03-22T14:08:08Z</time></trkpt><trkpt lat="44.09615811449882" lon="1.0623717714453218"><ele>70.0</ele><time>2026-03-22T14:08:09Z</time></trkpt><trkpt lat="44.096076750397714" lon="1.0621233110553354"><ele>70.0</ele><time>2026-03-22T14:08:10Z</time></trkpt><trkpt lat="44.096008090145624" lon="1.0618775607065016"><ele>70.0</ele><time>2026-03-22T14:08:11Z</time></trkpt><trkpt lat="44.09595241538842" lon="1.0616310538395999"><ele>70.0</ele><time>2026-03-22T14:08:12Z</time></trkpt><trkpt lat="44.095908629953826" lon="1.061392656342899"><ele>70.0</ele><time>2026-03-22T14:08:13Z</time></trkpt><trkpt lat="44.09587451581867" lon="1.0611658418833536"><ele>70.0</ele><time>2026-03-22T14:08:14Z</time></trkpt><trkpt lat="44.09584982018429" lon="1.0609490788510474"><ele>70.66666666666666</ele><time>2026-03-22T14:08:15Z</time></trkpt><trkpt lat="44.095852228897705" lon="1.0607462565947756"><ele>71.33333333333333</ele><time>2026-03-22T14:08:16Z</time></trkpt><trkpt lat="44.09589030418974" lon="1.060545192909303"><ele>72.0</ele><time>2026-03-22T14:08:17Z</time></trkpt><trkpt lat="44.095963290859224" lon="1.0603484866329187"><ele>72.0</ele><time>2026-03-22T14:08:18Z</time></trkpt><trkpt lat="44.096088909329275" lon="1.06018361231545"><ele>72.0</ele><time>2026-03-22T14:08:19Z</time></trkpt><trkpt lat="44.096221194358016" lon="1.0600149956624905"><ele>72.0</ele><time>2026-03-22T14:08:20Z</time></trkpt><trkpt lat="44.09633312579209" lon="1.059845050953276"><ele>71.33333333333333</ele><time>2026-03-22T14:08:21Z</time></trkpt><trkpt lat="44.09639965820574" lon="1.0596537187729955"><ele>70.66666666666666</ele><time>2026-03-22T14:08:22Z</time></trkpt><trkpt lat="44.096451142648554" lon="1.0594433420276468"><ele>70.0</ele><time>2026-03-22T14:08:23Z</time></trkpt><trkpt lat="44.09647844424175" lon="1.0591970882335133"><ele>69.66666666666666</ele><time>2026-03-22T14:08:24Z</time></trkpt><trkpt lat="44.09648175000942" lon="1.0589254377040498"><ele>69.33333333333333</ele><time>2026-03-22T14:08:25Z</time></trkpt><trkpt lat="44.09646555256806" lon="1.0586220812646105"><ele>69.0</ele><time>2026-03-22T14:08:26Z</time></trkpt><trkpt lat="44.096427945002425" lon="1.058295775955625"><ele>69.33333333333333</ele><time>2026-03-22T14:08:27Z</time></trkpt><trkpt lat="44.096396701936925" lon="1.0579997957279175"><ele>69.66666666666666</ele><time>2026-03-22T14:08:28Z</time></trkpt><trkpt lat="44.09636805851508" lon="1.057703467734348"><ele>70.0</ele><time>2026-03-22T14:08:29Z</time></trkpt><trkpt lat="44.09633710637402" lon="1.0573867417682963"><ele>70.0</ele><time>2026-03-22T14:08:30Z</time></trkpt><trkpt lat="44.09630535337727" lon="1.0570725414905893"><ele>70.0</ele><time>2026-03-22T14:08:31Z</time></trkpt><trkpt lat="44.096278673480654" lon="1.0567752238418275"><ele>70.0</ele><time>2026-03-22T14:08:32Z</time></trkpt><trkpt lat="44.09624752556" lon="1.0565007082088238"><ele>70.0</ele><time>2026-03-22T14:08:33Z</time></trkpt><trkpt lat="44.096210649002806" lon="1.0562270298875875"><ele>70.0</ele><time>2026-03-22T14:08:34Z</time></trkpt><trkpt lat="44.09616409808022" lon="1.0559594610482714"><ele>70.0</ele><time>2026-03-22T14:08:35Z</time></trkpt><trkpt lat="44.096109305843655" lon="1.0557016014257803"><ele>70.0</ele><time>2026-03-22T14:08:36Z</time></trkpt><trkpt lat="44.096041544102164" lon="1.0554329821776447"><ele>70.0</ele><time>2026-03-22T14:08:37Z</time></trkpt><trkpt lat="44.09595164944519" lon="1.0551272425278075"><ele>70.0</ele><time>2026-03-22T14:08:38Z</time></trkpt><trkpt lat="44.095836829262524" lon="1.0547826996952927"><ele>70.5</ele><time>2026-03-22T14:08:39Z</time></trkpt><trkpt lat="44.095718323212076" lon="1.0544197632072942"><ele>71.0</ele><time>2026-03-22T14:08:40Z</time></trkpt><trkpt lat="44.09558515253107" lon="1.0540612145542911"><ele>71.0</ele><time>2026-03-22T14:08:41Z</time></trkpt><trkpt lat="44.095429545492216" lon="1.0537085162569284"><ele>71.0</ele><time>2026-03-22T14:08:42Z</time></trkpt><trkpt lat="44.09526008291088" lon="1.0533625175240031"><ele>71.5</ele><time>2026-03-22T14:08:43Z</time></trkpt><trkpt lat="44.095082323489834" lon="1.0530235026235957"><ele>72.0</ele><time>2026-03-22T14:08:44Z</time></trkpt><trkpt lat="44.09489178164085" lon="1.0526780935040854"><ele>74.5</ele><time>2026-03-22T14:08:45Z</time></trkpt><trkpt lat="44.09469478417061" lon="1.0523191819949864"><ele>77.0</ele><time>2026-03-22T14:08:46Z</time></trkpt><trkpt lat="44.09449436318681" lon="1.0519617577715739"><ele>77.0</ele><time>2026-03-22T14:08:47Z</time></trkpt><trkpt lat="44.09431274382371" lon="1.0516288127070594"><ele>77.0</ele><time>2026-03-22T14:08:48Z</time></trkpt><trkpt lat="44.09415166827603" lon="1.0513229045441812"><ele>78.5</ele><time>2026-03-22T14:08:49Z</time></trkpt><trkpt lat="44.094007435095726" lon="1.0510331630426852"><ele>80.0</ele><time>2026-03-22T14:08:50Z</time></trkpt><trkpt lat="44.09386945984393" lon="1.0507425039428464"><ele>80.0</ele><time>2026-03-22T14:08:51Z</time></trkpt><trkpt lat="44.09372879115995" lon="1.0504589493349166"><ele>80.0</ele><time>2026-03-22T14:08:52Z</time></trkpt><trkpt lat="44.0935797982873" lon="1.0501641842424878"><ele>78.0</ele><time>2026-03-22T14:08:53Z</time></trkpt><trkpt lat="44.0934076321523" lon="1.0498631562479723"><ele>76.0</ele><time>2026-03-22T14:08:54Z</time></trkpt><trkpt lat="44.0932195590234" lon="1.0495467349680567"><ele>76.0</ele><time>2026-03-22T14:08:55Z</time></trkpt><trkpt lat="44.09302412860276" lon="1.04921497908574"><ele>76.0</ele><time>2026-03-22T14:08:56Z</time></trkpt><trkpt lat="44.092824650833364" lon="1.0488648622564503"><ele>79.0</ele><time>2026-03-22T14:08:57Z</time></trkpt><trkpt lat="44.092625230451816" lon="1.0484938024850032"><ele>82.0</ele><time>2026-03-22T14:08:58Z</time></trkpt><trkpt lat="44.09243898829386" lon="1.0481051341019005"><ele>82.5</ele><time>2026-03-22T14:08:59Z</time></trkpt><trkpt lat="44.09226939256689" lon="1.0477125569965973"><ele>83.0</ele><time>2026-03-22T14:09:00Z</time></trkpt><trkpt lat="44.09211346020163" lon="1.0473016746807482"><ele>83.0</ele><time>2026-03-22T14:09:01Z</time></trkpt><trkpt lat="44.09197089330974" lon="1.0469226364394142"><ele>83.0</ele><time>2026-03-22T14:09:02Z</time></trkpt><trkpt lat="44.09182788033654" lon="1.0465890805570295"><ele>77.5</ele><time>2026-03-22T14:09:03Z</time></trkpt><trkpt lat="44.09168016927111" lon="1.0462880745513254"><ele>72.0</ele><time>2026-03-22T14:09:04Z</time></trkpt><trkpt lat="44.09154381922789" lon="1.0459940389834133"><ele>73.5</ele><time>2026-03-22T14:09:05Z</time></trkpt><trkpt lat="44.09143346110843" lon="1.0457005815576532"><ele>75.0</ele><time>2026-03-22T14:09:06Z</time></trkpt><trkpt lat="44.091348352464685" lon="1.0453982838443945"><ele>75.0</ele><time>2026-03-22T14:09:07Z</time></trkpt><trkpt lat="44.09129376287762" lon="1.0450820965323242"><ele>75.0</ele><time>2026-03-22T14:09:08Z</time></trkpt><trkpt lat="44.091263255112516" lon="1.0447434901638384"><ele>75.5</ele><time>2026-03-22T14:09:09Z</time></trkpt><trkpt lat="44.09125361947868" lon="1.0443723775854763"><ele>76.0</ele><time>2026-03-22T14:09:10Z</time></trkpt><trkpt lat="44.091256332883006" lon="1.0439850151936838"><ele>76.0</ele><time>2026-03-22T14:09:11Z</time></trkpt><trkpt lat="44.09127120962865" lon="1.0436170761174437"><ele>76.0</ele><time>2026-03-22T14:09:12Z</time></trkpt><trkpt lat="44.09126642342208" lon="1.0432834768816732"><ele>77.0</ele><time>2026-03-22T14:09:13Z</time></trkpt><trkpt lat="44.09123443168031" lon="1.0429499337585293"><ele>78.0</ele><time>2026-03-22T14:09:14Z</time></trkpt><trkpt lat="44.091180991686066" lon="1.042645971323154"><ele>78.33333333333333</ele><time>2026-03-22T14:09:14.999Z</time></trkpt><trkpt lat="44.09113638379765" lon="1.042368951174281"><ele>78.66666666666666</ele><time>2026-03-22T14:09:15.999Z</time></trkpt><trkpt lat="44.09112975117991" lon="1.0421008063478372"><ele>79.0</ele><time>2026-03-22T14:09:16.999Z</time></trkpt><trkpt lat="44.09116035121108" lon="1.0418137482401355"><ele>78.5</ele><time>2026-03-22T14:09:17.999Z</time></trkpt><trkpt lat="44.09123539381887" lon="1.0414988628747073"><ele>78.0</ele><time>2026-03-22T14:09:18.999Z</time></trkpt><trkpt lat="44.09130260321798" lon="1.0411509883062775"><ele>78.0</ele><time>2026-03-22T14:09:19.999Z</time></trkpt><trkpt lat="44.091394287683826" lon="1.040824408997611"><ele>78.0</ele><time>2026-03-22T14:09:20.999Z</time></trkpt><trkpt lat="44.091469983136825" lon="1.0405399433848417"><ele>77.0</ele><time>2026-03-22T14:09:21.999Z</time></trkpt><trkpt lat="44.09151114910051" lon="1.0402711591903242"><ele>76.0</ele><time>2026-03-22T14:09:22.999Z</time></trkpt><trkpt lat="44.09151860329753" lon="1.0400057806800584"><ele>75.0</ele><time>2026-03-22T14:09:23.999Z</time></trkpt><trkpt lat="44.09150376059756" lon="1.0397561979513876"><ele>75.0</ele><time>2026-03-22T14:09:24.999Z</time></trkpt><trkpt lat="44.091493463717335" lon="1.0395197461352497"><ele>75.0</ele><time>2026-03-22T14:09:25.999Z</time></trkpt><trkpt lat="44.091526716511694" lon="1.0392935675710169"><ele>75.0</ele><time>2026-03-22T14:09:26.999Z</time></trkpt><trkpt lat="44.09162629717848" lon="1.0390966525282648"><ele>76.33333333333333</ele><time>2026-03-22T14:09:27.999Z</time></trkpt><trkpt lat="44.091737349187405" lon="1.0389235513321027"><ele>77.66666666666666</ele><time>2026-03-22T14:09:28.999Z</time></trkpt><trkpt lat="44.09189315376712" lon="1.0387362221792737"><ele>79.0</ele><time>2026-03-22T14:09:29.999Z</time></trkpt><trkpt lat="44.09208485563836" lon="1.0385625347849257"><ele>79.0</ele><time>2026-03-22T14:09:30.999Z</time></trkpt><trkpt lat="44.09227727521241" lon="1.0383577063568383"><ele>79.0</ele><time>2026-03-22T14:09:31.999Z</time></trkpt><trkpt lat="44.09245987495581" lon="1.0381630488494102"><ele>81.0</ele><time>2026-03-22T14:09:32.999Z</time></trkpt><trkpt lat="44.092648998600914" lon="1.0379214861390607"><ele>83.0</ele><time>2026-03-22T14:09:33.999Z</time></trkpt><trkpt lat="44.09283897350365" lon="1.0376522145797518"><ele>79.0</ele><time>2026-03-22T14:09:34.999Z</time></trkpt><trkpt lat="44.09300618875223" lon="1.0373904390917281"><ele>75.0</ele><time>2026-03-22T14:09:35.999Z</time></trkpt><trkpt lat="44.09315801148559" lon="1.0371083112676502"><ele>80.5</ele><time>2026-03-22T14:09:36.999Z</time></trkpt><trkpt lat="44.0932934455817" lon="1.0367803251353438"><ele>86.0</ele><time>2026-03-22T14:09:37.999Z</time></trkpt><trkpt lat="44.09341587483998" lon="1.0364135236550003"><ele>86.0</ele><time>2026-03-22T14:09:38.999Z</time></trkpt><trkpt lat="44.093520531816864" lon="1.036088989534691"><ele>86.0</ele><time>2026-03-22T14:09:39.999Z</time></trkpt><trkpt lat="44.09360473661069" lon="1.035830916749233"><ele>85.33333333333334</ele><time>2026-03-22T14:09:40.999Z</time></trkpt><trkpt lat="44.09366505521766" lon="1.035592484373695"><ele>84.66666666666667</ele><time>2026-03-22T14:09:41.999Z</time></trkpt><trkpt lat="44.093695685817785" lon="1.035333859949983"><ele>84.0</ele><time>2026-03-22T14:09:42.999Z</time></trkpt><trkpt lat="44.093686204819264" lon="1.0350550774518867"><ele>83.33333333333333</ele><time>2026-03-22T14:09:43.999Z</time></trkpt><trkpt lat="44.093655645786306" lon="1.0347637540572228"><ele>82.66666666666666</ele><time>2026-03-22T14:09:44.999Z</time></trkpt><trkpt lat="44.09364013852178" lon="1.034498486331176"><ele>82.0</ele><time>2026-03-22T14:09:45.999Z</time></trkpt><trkpt lat="44.09367172294355" lon="1.034245683647722"><ele>81.5</ele><time>2026-03-22T14:09:46.999Z</time></trkpt><trkpt lat="44.09376994524815" lon="1.0339791389432613"><ele>81.0</ele><time>2026-03-22T14:09:47.999Z</time></trkpt><trkpt lat="44.09386560377776" lon="1.0336665242499405"><ele>81.0</ele><time>2026-03-22T14:09:48.999Z</time></trkpt><trkpt lat="44.09394535592274" lon="1.0333949744392166"><ele>81.0</ele><time>2026-03-22T14:09:49.999Z</time></trkpt><trkpt lat="44.09397654771218" lon="1.0331254068299134"><ele>81.0</ele><time>2026-03-22T14:09:50.999Z</time></trkpt><trkpt lat="44.09397411134982" lon="1.0328180631487494"><ele>82.5</ele><time>2026-03-22T14:09:51.999Z</time></trkpt><trkpt lat="44.093947163181205" lon="1.0324717359750366"><ele>84.0</ele><time>2026-03-22T14:09:52.999Z</time></trkpt><trkpt lat="44.093892697985574" lon="1.032105344215807"><ele>84.0</ele><time>2026-03-22T14:09:53.999Z</time></trkpt><trkpt lat="44.093824650316336" lon="1.0317120104867152"><ele>84.0</ele><time>2026-03-22T14:09:54.999Z</time></trkpt><trkpt lat="44.09377708211643" lon="1.0313069840457498"><ele>81.5</ele><time>2026-03-22T14:09:55.999Z</time></trkpt><trkpt lat="44.09376590773883" lon="1.0308669779110717"><ele>79.0</ele><time>2026-03-22T14:09:56.999Z</time></trkpt><trkpt lat="44.09377065021114" lon="1.0304630039127527"><ele>77.5</ele><time>2026-03-22T14:09:57.999Z</time></trkpt><trkpt lat="44.09377641496699" lon="1.0301072417084876"><ele>76.0</ele><time>2026-03-22T14:09:58.999Z</time></trkpt><trkpt lat="44.093784461236325" lon="1.0297751709266432"><ele>74.33333333333333</ele><time>2026-03-22T14:09:59.999Z</time></trkpt><trkpt lat="44.09380526807321" lon="1.0294707009577082"><ele>72.66666666666667</ele><time>2026-03-22T14:10:00.999Z</time></trkpt><trkpt lat="44.09385838877734" lon="1.029176691624601"><ele>71.0</ele><time>2026-03-22T14:10:01.999Z</time></trkpt><trkpt lat="44.093977364349676" lon="1.0288951025638813"><ele>76.0</ele><time>2026-03-22T14:10:02.999Z</time></trkpt><trkpt lat="44.09409587325829" lon="1.0285804674291512"><ele>81.0</ele><time>2026-03-22T14:10:03.999Z</time></trkpt><trkpt lat="44.09422563281629" lon="1.028233391264508"><ele>81.0</ele><time>2026-03-22T14:10:04.999Z</time></trkpt><trkpt lat="44.09438624239118" lon="1.0278832056125555"><ele>81.0</ele><time>2026-03-22T14:10:05.999Z</time></trkpt><trkpt lat="44.0945269602005" lon="1.0275661502425029"><ele>77.0</ele><time>2026-03-22T14:10:06.999Z</time></trkpt><trkpt lat="44.09464032271396" lon="1.0272656867884686"><ele>73.0</ele><time>2026-03-22T14:10:07.999Z</time></trkpt><trkpt lat="44.094728231481064" lon="1.0269535679151884"><ele>71.0</ele><time>2026-03-22T14:10:08.999Z</time></trkpt><trkpt lat="44.09479312913998" lon="1.0266177820646518"><ele>69.0</ele><time>2026-03-22T14:10:09.999Z</time></trkpt><trkpt lat="44.09483549477271" lon="1.0262720003268546"><ele>69.0</ele><time>2026-03-22T14:10:10.999Z</time></trkpt><trkpt lat="44.09486533024589" lon="1.0259411845144422"><ele>69.0</ele><time>2026-03-22T14:10:11.999Z</time></trkpt><trkpt lat="44.094893962479674" lon="1.0256425039130161"><ele>71.0</ele><time>2026-03-22T14:10:13Z</time></trkpt><trkpt lat="44.09495358495103" lon="1.0253526880702255"><ele>73.0</ele><time>2026-03-22T14:10:14Z</time></trkpt><trkpt lat="44.09503131990549" lon="1.0251004108804065"><ele>75.0</ele><time>2026-03-22T14:10:15Z</time></trkpt><trkpt lat="44.0951124702083" lon="1.0248764908752384"><ele>75.0</ele><time>2026-03-22T14:10:16Z</time></trkpt><trkpt lat="44.09520310000604" lon="1.0246751078335654"><ele>75.0</ele><time>2026-03-22T14:10:17Z</time></trkpt><trkpt lat="44.09528361450519" lon="1.024480350827656"><ele>75.0</ele><time>2026-03-22T14:10:18Z</time></trkpt><trkpt lat="44.095337456576566" lon="1.0242521743445592"><ele>76.0</ele><time>2026-03-22T14:10:19Z</time></trkpt><trkpt lat="44.09535737700561" lon="1.0239737354417018"><ele>77.0</ele><time>2026-03-22T14:10:20Z</time></trkpt><trkpt lat="44.095334978440086" lon="1.023647619709589"><ele>78.0</ele><time>2026-03-22T14:10:21Z</time></trkpt><trkpt lat="44.0953344493355" lon="1.0232772135439903"><ele>82.0</ele><time>2026-03-22T14:10:22Z</time></trkpt><trkpt lat="44.095328993978725" lon="1.0228711720058423"><ele>86.0</ele><time>2026-03-22T14:10:23Z</time></trkpt><trkpt lat="44.095141543130836" lon="1.022465753186707"><ele>90.0</ele><time>2026-03-22T14:10:24Z</time></trkpt><trkpt lat="44.095035704515475" lon="1.022049775927396"><ele>94.0</ele><time>2026-03-22T14:10:25Z</time></trkpt><trkpt lat="44.09492005462538" lon="1.0216847560219728"><ele>86.5</ele><time>2026-03-22T14:10:26Z</time></trkpt><trkpt lat="44.09480802571274" lon="1.0213687536940492"><ele>79.0</ele><time>2026-03-22T14:10:27Z</time></trkpt><trkpt lat="44.09470013845918" lon="1.0210828532295866"><ele>83.5</ele><time>2026-03-22T14:10:28Z</time></trkpt><trkpt lat="44.094568140618705" lon="1.0208084624064973"><ele>88.0</ele><time>2026-03-22T14:10:29Z</time></trkpt><trkpt lat="44.094416833153055" lon="1.020552792163888"><ele>88.0</ele><time>2026-03-22T14:10:30Z</time></trkpt><trkpt lat="44.09429357469367" lon="1.0202718801325812"><ele>88.0</ele><time>2026-03-22T14:10:31Z</time></trkpt><trkpt lat="44.09420612789238" lon="1.0199254414955898"><ele>86.0</ele><time>2026-03-22T14:10:32Z</time></trkpt><trkpt lat="44.09412711898233" lon="1.019515575053463"><ele>84.0</ele><time>2026-03-22T14:10:33Z</time></trkpt><trkpt lat="44.094051117262865" lon="1.0190681172983989"><ele>84.0</ele><time>2026-03-22T14:10:34Z</time></trkpt><trkpt lat="44.093971580703055" lon="1.0186444952923883"><ele>84.0</ele><time>2026-03-22T14:10:35Z</time></trkpt><trkpt lat="44.0938964385258" lon="1.0182799076636613"><ele>88.0</ele><time>2026-03-22T14:10:36Z</time></trkpt><trkpt lat="44.09382233919798" lon="1.0179392479599518"><ele>92.0</ele><time>2026-03-22T14:10:37Z</time></trkpt><trkpt lat="44.09373813503062" lon="1.0175966161772938"><ele>96.0</ele><time>2026-03-22T14:10:38Z</time></trkpt><trkpt lat="44.09363084273544" lon="1.0172516661734126"><ele>100.0</ele><time>2026-03-22T14:10:39Z</time></trkpt><trkpt lat="44.093515616899275" lon="1.0169501698903833"><ele>100.0</ele><time>2026-03-22T14:10:40Z</time></trkpt><trkpt lat="44.09340522322127" lon="1.0166954628881828"><ele>100.0</ele><time>2026-03-22T14:10:41Z</time></trkpt><trkpt lat="44.09329947318694" lon="1.0164722791436098"><ele>100.0</ele><time>2026-03-22T14:10:42Z</time></trkpt><trkpt lat="44.09318451724416" lon="1.0162701390160647"><ele>97.0</ele><time>2026-03-22T14:10:43Z</time></trkpt><trkpt lat="44.09303893451339" lon="1.0160904290337072"><ele>94.0</ele><time>2026-03-22T14:10:44Z</time></trkpt><trkpt lat="44.0928760778513" lon="1.0159437742225763"><ele>91.0</ele><time>2026-03-22T14:10:45Z</time></trkpt><trkpt lat="44.0927303153209" lon="1.015818446944569"><ele>91.0</ele><time>2026-03-22T14:10:46Z</time></trkpt><trkpt lat="44.09260765342418" lon="1.0156814642647878"><ele>91.0</ele><time>2026-03-22T14:10:47Z</time></trkpt><trkpt lat="44.09251828376112" lon="1.0154880888055584"><ele>91.0</ele><time>2026-03-22T14:10:48Z</time></trkpt><trkpt lat="44.09245956900614" lon="1.0152623668856462"><ele>84.66666666666666</ele><time>2026-03-22T14:10:49Z</time></trkpt><trkpt lat="44.09242185392918" lon="1.015007123387891"><ele>78.33333333333333</ele><time>2026-03-22T14:10:50Z</time></trkpt><trkpt lat="44.09240742628769" lon="1.0147361949548286"><ele>72.0</ele><time>2026-03-22T14:10:51Z</time></trkpt><trkpt lat="44.092399637891056" lon="1.0144891798649895"><ele>72.0</ele><time>2026-03-22T14:10:52Z</time></trkpt><trkpt lat="44.09239999283203" lon="1.0142661048406993"><ele>72.0</ele><time>2026-03-22T14:10:53Z</time></trkpt><trkpt lat="44.092391690510844" lon="1.0140485819262797"><ele>72.0</ele><time>2026-03-22T14:10:54Z</time></trkpt><trkpt lat="44.092381140831904" lon="1.013826198738548"><ele>71.0</ele><time>2026-03-22T14:10:55Z</time></trkpt><trkpt lat="44.092372412576296" lon="1.013603194611706"><ele>70.0</ele><time>2026-03-22T14:10:56Z</time></trkpt><trkpt lat="44.092360905473946" lon="1.0133856374983872"><ele>69.0</ele><time>2026-03-22T14:10:57Z</time></trkpt><trkpt lat="44.092350365916204" lon="1.0131721473492359"><ele>69.0</ele><time>2026-03-22T14:10:58Z</time></trkpt><trkpt lat="44.092339411758374" lon="1.012953985728397"><ele>69.0</ele><time>2026-03-22T14:10:59Z</time></trkpt><trkpt lat="44.092325884170414" lon="1.0127250918415263"><ele>69.0</ele><time>2026-03-22T14:11:00Z</time></trkpt><trkpt lat="44.092313280440244" lon="1.0124949857272485"><ele>68.66666666666667</ele><time>2026-03-22T14:11:01Z</time></trkpt><trkpt lat="44.09230036757751" lon="1.0122601617722133"><ele>68.33333333333334</ele><time>2026-03-22T14:11:02Z</time></trkpt><trkpt lat="44.09229164323298" lon="1.0120285971789276"><ele>68.0</ele><time>2026-03-22T14:11:03Z</time></trkpt><trkpt lat="44.09227620847213" lon="1.0117970789185913"><ele>68.33333333333334</ele><time>2026-03-22T14:11:04Z</time></trkpt><trkpt lat="44.09226351060758" lon="1.0115600046529856"><ele>68.66666666666667</ele><time>2026-03-22T14:11:05Z</time></trkpt><trkpt lat="44.09225020184256" lon="1.0113174666481302"><ele>69.0</ele><time>2026-03-22T14:11:06Z</time></trkpt><trkpt lat="44.09223879425352" lon="1.011022555624352"><ele>70.0</ele><time>2026-03-22T14:11:07Z</time></trkpt><trkpt lat="44.092217635266415" lon="1.010680529679101"><ele>71.0</ele><time>2026-03-22T14:11:08Z</time></trkpt><trkpt lat="44.092204732892235" lon="1.0102902253980788"><ele>70.5</ele><time>2026-03-22T14:11:09Z</time></trkpt><trkpt lat="44.09219338209497" lon="1.0098601616095926"><ele>70.0</ele><time>2026-03-22T14:11:10Z</time></trkpt><trkpt lat="44.092178281577226" lon="1.0094227748914422"><ele>71.0</ele><time>2026-03-22T14:11:11Z</time></trkpt><trkpt lat="44.0921641683242" lon="1.0090028288807895"><ele>72.0</ele><time>2026-03-22T14:11:12Z</time></trkpt><trkpt lat="44.09214815229016" lon="1.0086011701046973"><ele>71.5</ele><time>2026-03-22T14:11:13Z</time></trkpt><trkpt lat="44.092133368839" lon="1.0082026135268878"><ele>71.0</ele><time>2026-03-22T14:11:14Z</time></trkpt><trkpt lat="44.09212057390434" lon="1.0078182464961452"><ele>70.5</ele><time>2026-03-22T14:11:15Z</time></trkpt><trkpt lat="44.092107304422335" lon="1.0074626885874034"><ele>70.0</ele><time>2026-03-22T14:11:16Z</time></trkpt><trkpt lat="44.09209832129181" lon="1.0071262119331625"><ele>70.0</ele><time>2026-03-22T14:11:17Z</time></trkpt><trkpt lat="44.092110664700535" lon="1.006781643910707"><ele>70.0</ele><time>2026-03-22T14:11:18Z</time></trkpt><trkpt lat="44.092149594893456" lon="1.006410554021601"><ele>70.5</ele><time>2026-03-22T14:11:19Z</time></trkpt><trkpt lat="44.09220830845602" lon="1.0060275590013712"><ele>71.0</ele><time>2026-03-22T14:11:20Z</time></trkpt><trkpt lat="44.09227234888014" lon="1.0056635544797925"><ele>71.0</ele><time>2026-03-22T14:11:21Z</time></trkpt><trkpt lat="44.0923388963564" lon="1.0053092973391116"><ele>71.0</ele><time>2026-03-22T14:11:21.999Z</time></trkpt><trkpt lat="44.09240502197215" lon="1.0049603760594925"><ele>72.0</ele><time>2026-03-22T14:11:22.999Z</time></trkpt><trkpt lat="44.09246895157593" lon="1.00461022226178"><ele>73.0</ele><time>2026-03-22T14:11:23.999Z</time></trkpt><trkpt lat="44.09252384893969" lon="1.0042493515234763"><ele>72.66666666666666</ele><time>2026-03-22T14:11:24.999Z</time></trkpt><trkpt lat="44.09255749568868" lon="1.0039059362863765"><ele>72.33333333333333</ele><time>2026-03-22T14:11:25.999Z</time></trkpt><trkpt lat="44.09257725729634" lon="1.0036347526306253"><ele>72.0</ele><time>2026-03-22T14:11:26.999Z</time></trkpt><trkpt lat="44.09258784894566" lon="1.0033738260086384"><ele>70.66666666666667</ele><time>2026-03-22T14:11:27.999Z</time></trkpt><trkpt lat="44.0925986158758" lon="1.0031075532727642"><ele>69.33333333333334</ele><time>2026-03-22T14:11:28.999Z</time></trkpt><trkpt lat="44.092609317873986" lon="1.002835562368045"><ele>68.0</ele><time>2026-03-22T14:11:29.999Z</time></trkpt><trkpt lat="44.092620403025144" lon="1.0025578524223313"><ele>68.0</ele><time>2026-03-22T14:11:30.999Z</time></trkpt><trkpt lat="44.09263438157685" lon="1.0022798624717653"><ele>68.0</ele><time>2026-03-22T14:11:31.999Z</time></trkpt><trkpt lat="44.092650350593374" lon="1.0019991979786906"><ele>68.0</ele><time>2026-03-22T14:11:32.999Z</time></trkpt><trkpt lat="44.09266486104995" lon="1.0017218672696726"><ele>68.33333333333334</ele><time>2026-03-22T14:11:33.999Z</time></trkpt><trkpt lat="44.0926806032347" lon="1.0014406095172357"><ele>68.66666666666667</ele><time>2026-03-22T14:11:34.999Z</time></trkpt><trkpt lat="44.09269645111802" lon="1.0011641054254883"><ele>69.0</ele><time>2026-03-22T14:11:35.999Z</time></trkpt><trkpt lat="44.09271281564798" lon="1.0008847896525572"><ele>69.33333333333333</ele><time>2026-03-22T14:11:36.999Z</time></trkpt><trkpt lat="44.092728901916466" lon="1.0006046155955346"><ele>69.66666666666666</ele><time>2026-03-22T14:11:37.999Z</time></trkpt><trkpt lat="44.092745186121" lon="1.000324555767584"><ele>70.0</ele><time>2026-03-22T14:11:38.999Z</time></trkpt><trkpt lat="44.092760370349396" lon="1.0000462666432428"><ele>70.0</ele><time>2026-03-22T14:11:39.999Z</time></trkpt><trkpt lat="44.092774135474954" lon="0.9997639165874056"><ele>70.0</ele><time>2026-03-22T14:11:40.999Z</time></trkpt><trkpt lat="44.09278735892709" lon="0.9994836924170998"><ele>70.0</ele><time>2026-03-22T14:11:41.999Z</time></trkpt><trkpt lat="44.09280076512235" lon="0.9992071097551491"><ele>69.66666666666666</ele><time>2026-03-22T14:11:42.999Z</time></trkpt><trkpt lat="44.09281697936227" lon="0.9989313167285514"><ele>69.33333333333333</ele><time>2026-03-22T14:11:43.999Z</time></trkpt><trkpt lat="44.092834334961395" lon="0.9986568945017591"><ele>69.0</ele><time>2026-03-22T14:11:44.999Z</time></trkpt><trkpt lat="44.09284788264927" lon="0.9983883101330975"><ele>68.33333333333333</ele><time>2026-03-22T14:11:45.999Z</time></trkpt><trkpt lat="44.092862248264616" lon="0.9981339855575496"><ele>67.66666666666666</ele><time>2026-03-22T14:11:46.999Z</time></trkpt><trkpt lat="44.09287986934709" lon="0.997887329552738"><ele>67.0</ele><time>2026-03-22T14:11:47.999Z</time></trkpt><trkpt lat="44.09290298280915" lon="0.9976340093664483"><ele>67.33333333333333</ele><time>2026-03-22T14:11:48.999Z</time></trkpt><trkpt lat="44.09292159933538" lon="0.9973511034650409"><ele>67.66666666666667</ele><time>2026-03-22T14:11:49.999Z</time></trkpt><trkpt lat="44.09293420268243" lon="0.9970553914007504"><ele>68.0</ele><time>2026-03-22T14:11:50.999Z</time></trkpt><trkpt lat="44.092923109933054" lon="0.9967402135085384"><ele>68.66666666666667</ele><time>2026-03-22T14:11:51.999Z</time></trkpt><trkpt lat="44.09288389794875" lon="0.9964486877256745"><ele>69.33333333333333</ele><time>2026-03-22T14:11:52.999Z</time></trkpt><trkpt lat="44.09281212341638" lon="0.9961398438833935"><ele>70.0</ele><time>2026-03-22T14:11:53.999Z</time></trkpt><trkpt lat="44.092722326509005" lon="0.995830519079196"><ele>73.0</ele><time>2026-03-22T14:11:54.999Z</time></trkpt><trkpt lat="44.09261052707826" lon="0.9955256285753241"><ele>76.0</ele><time>2026-03-22T14:11:55.999Z</time></trkpt><trkpt lat="44.092478646069125" lon="0.9952310602697292"><ele>72.0</ele><time>2026-03-22T14:11:56.999Z</time></trkpt><trkpt lat="44.092333380357" lon="0.9949685896929681"><ele>68.0</ele><time>2026-03-22T14:11:57.999Z</time></trkpt><trkpt lat="44.09218003368422" lon="0.9947043923146102"><ele>68.0</ele><time>2026-03-22T14:11:58.999Z</time></trkpt><trkpt lat="44.09203030466619" lon="0.9944324815702734"><ele>68.0</ele><time>2026-03-22T14:11:59.999Z</time></trkpt><trkpt lat="44.09188324056399" lon="0.994157048631965"><ele>70.0</ele><time>2026-03-22T14:12:00.999Z</time></trkpt><trkpt lat="44.09174327801079" lon="0.9938846971081741"><ele>72.0</ele><time>2026-03-22T14:12:01.999Z</time></trkpt><trkpt lat="44.09160436607026" lon="0.9936068707302946"><ele>70.5</ele><time>2026-03-22T14:12:02.999Z</time></trkpt><trkpt lat="44.09146386384181" lon="0.9933203796475846"><ele>69.0</ele><time>2026-03-22T14:12:03.999Z</time></trkpt><trkpt lat="44.091316216256814" lon="0.9930357544433921"><ele>69.0</ele><time>2026-03-22T14:12:04.999Z</time></trkpt><trkpt lat="44.091172275850006" lon="0.9927512688123021"><ele>69.0</ele><time>2026-03-22T14:12:05.999Z</time></trkpt><trkpt lat="44.09103515042273" lon="0.9924846239346315"><ele>71.5</ele><time>2026-03-22T14:12:06.999Z</time></trkpt><trkpt lat="44.09090102244779" lon="0.9922130577651593"><ele>74.0</ele><time>2026-03-22T14:12:07.999Z</time></trkpt><trkpt lat="44.090762087846336" lon="0.991936306478301"><ele>72.0</ele><time>2026-03-22T14:12:08.999Z</time></trkpt><trkpt lat="44.0906185619809" lon="0.9916581819444679"><ele>70.0</ele><time>2026-03-22T14:12:09.999Z</time></trkpt><trkpt lat="44.090473853629504" lon="0.9913755176834871"><ele>70.0</ele><time>2026-03-22T14:12:10.999Z</time></trkpt><trkpt lat="44.09033311677521" lon="0.9910948413993649"><ele>70.0</ele><time>2026-03-22T14:12:11.999Z</time></trkpt><trkpt lat="44.09019307866461" lon="0.9908116825615234"><ele>71.0</ele><time>2026-03-22T14:12:12.999Z</time></trkpt><trkpt lat="44.09004890040159" lon="0.9905241920686679"><ele>72.0</ele><time>2026-03-22T14:12:13.999Z</time></trkpt><trkpt lat="44.089898663844394" lon="0.9902304414588704"><ele>71.0</ele><time>2026-03-22T14:12:14.999Z</time></trkpt><trkpt lat="44.089738706142796" lon="0.9899371358523537"><ele>70.0</ele><time>2026-03-22T14:12:15.999Z</time></trkpt><trkpt lat="44.08956387079052" lon="0.9896563668784183"><ele>70.0</ele><time>2026-03-22T14:12:16.999Z</time></trkpt><trkpt lat="44.08936714375636" lon="0.9893748108756482"><ele>70.0</ele><time>2026-03-22T14:12:17.999Z</time></trkpt><trkpt lat="44.089141976394345" lon="0.9890919363828821"><ele>69.0</ele><time>2026-03-22T14:12:19Z</time></trkpt><trkpt lat="44.08889394723068" lon="0.9888165742610003"><ele>68.0</ele><time>2026-03-22T14:12:20Z</time></trkpt><trkpt lat="44.08861910178406" lon="0.9885595947028167"><ele>67.5</ele><time>2026-03-22T14:12:21Z</time></trkpt><trkpt lat="44.08836030346746" lon="0.9883283880818909"><ele>67.0</ele><time>2026-03-22T14:12:22Z</time></trkpt><trkpt lat="44.08812396832632" lon="0.9881127999277384"><ele>67.0</ele><time>2026-03-22T14:12:23Z</time></trkpt><trkpt lat="44.08790750690403" lon="0.9878884013580447"><ele>67.0</ele><time>2026-03-22T14:12:24Z</time></trkpt><trkpt lat="44.08770081657744" lon="0.9876457445011293"><ele>68.0</ele><time>2026-03-22T14:12:25Z</time></trkpt><trkpt lat="44.08750550030729" lon="0.9873972169206328"><ele>69.0</ele><time>2026-03-22T14:12:26Z</time></trkpt><trkpt lat="44.08733428239535" lon="0.987154258011063"><ele>69.0</ele><time>2026-03-22T14:12:27Z</time></trkpt><trkpt lat="44.087181706330874" lon="0.9869170941162938"><ele>69.0</ele><time>2026-03-22T14:12:28Z</time></trkpt><trkpt lat="44.08703338225942" lon="0.9866993197646585"><ele>69.0</ele><time>2026-03-22T14:12:29Z</time></trkpt><trkpt lat="44.086898085702636" lon="0.9864809474873462"><ele>69.33333333333333</ele><time>2026-03-22T14:12:30Z</time></trkpt><trkpt lat="44.08677310586552" lon="0.9862725805389425"><ele>69.66666666666666</ele><time>2026-03-22T14:12:31Z</time></trkpt><trkpt lat="44.08665449471488" lon="0.9860734825877353"><ele>70.0</ele><time>2026-03-22T14:12:32Z</time></trkpt><trkpt lat="44.08654291364483" lon="0.9858903354549533"><ele>70.0</ele><time>2026-03-22T14:12:33Z</time></trkpt><trkpt lat="44.08643236226425" lon="0.9857270796756773"><ele>70.0</ele><time>2026-03-22T14:12:34Z</time></trkpt><trkpt lat="44.086330103683906" lon="0.9855930945428483"><ele>70.0</ele><time>2026-03-22T14:12:35Z</time></trkpt><trkpt lat="44.086241643834526" lon="0.985452471110317"><ele>70.0</ele><time>2026-03-22T14:12:36Z</time></trkpt><trkpt lat="44.086157302920924" lon="0.9853184396447475"><ele>70.0</ele><time>2026-03-22T14:12:37Z</time></trkpt><trkpt lat="44.08607958316136" lon="0.9852080167361591"><ele>70.0</ele><time>2026-03-22T14:12:38Z</time></trkpt><trkpt lat="44.08601298621919" lon="0.9851130543398693"><ele>70.0</ele><time>2026-03-22T14:12:39Z</time></trkpt><trkpt lat="44.08595632057812" lon="0.985027715592574"><ele>70.0</ele><time>2026-03-22T14:12:40Z</time></trkpt><trkpt lat="44.085904039239466" lon="0.9849615421131344"><ele>70.0</ele><time>2026-03-22T14:12:41Z</time></trkpt><trkpt lat="44.08583559714454" lon="0.9849363879529183"><ele>70.0</ele><time>2026-03-22T14:12:42Z</time></trkpt><trkpt lat="44.085757580546655" lon="0.98495345117802"><ele>69.0</ele><time>2026-03-22T14:12:43Z</time></trkpt><trkpt lat="44.08568605682573" lon="0.9850177667509933"><ele>68.0</ele><time>2026-03-22T14:12:44Z</time></trkpt><trkpt lat="44.08561830937134" lon="0.9851210222837509"><ele>67.0</ele><time>2026-03-22T14:12:45Z</time></trkpt><trkpt lat="44.08555295609201" lon="0.9852580857120568"><ele>66.0</ele><time>2026-03-22T14:12:46Z</time></trkpt><trkpt lat="44.08545830275445" lon="0.9854283366194427"><ele>66.0</ele><time>2026-03-22T14:12:47Z</time></trkpt><trkpt lat="44.08531748515838" lon="0.9855928166348022"><ele>66.0</ele><time>2026-03-22T14:12:48Z</time></trkpt><trkpt lat="44.08517669293735" lon="0.9858004610432083"><ele>66.0</ele><time>2026-03-22T14:12:49Z</time></trkpt><trkpt lat="44.085010361530784" lon="0.9860138877256861"><ele>64.0</ele><time>2026-03-22T14:12:50Z</time></trkpt><trkpt lat="44.08482323458638" lon="0.9862636196821749"><ele>62.0</ele><time>2026-03-22T14:12:51Z</time></trkpt><trkpt lat="44.084624192429274" lon="0.9865311562097572"><ele>62.0</ele><time>2026-03-22T14:12:52Z</time></trkpt><trkpt lat="44.08440774727636" lon="0.9868099068272864"><ele>62.0</ele><time>2026-03-22T14:12:53Z</time></trkpt><trkpt lat="44.08419208925178" lon="0.9870889345098353"><ele>63.0</ele><time>2026-03-22T14:12:54Z</time></trkpt><trkpt lat="44.08397008618707" lon="0.9873897507593523"><ele>64.0</ele><time>2026-03-22T14:12:55Z</time></trkpt><trkpt lat="44.083741720790606" lon="0.9876946853766314"><ele>64.0</ele><time>2026-03-22T14:12:56Z</time></trkpt><trkpt lat="44.083498325053206" lon="0.9880170728967923"><ele>64.0</ele><time>2026-03-22T14:12:57Z</time></trkpt><trkpt lat="44.083240326854565" lon="0.9883570552643146"><ele>64.0</ele><time>2026-03-22T14:12:58Z</time></trkpt><trkpt lat="44.08297118348788" lon="0.9887133783509686"><ele>64.0</ele><time>2026-03-22T14:12:59Z</time></trkpt><trkpt lat="44.08268931834641" lon="0.9890896035991198"><ele>63.0</ele><time>2026-03-22T14:13:00Z</time></trkpt><trkpt lat="44.082386705153716" lon="0.9894609023272642"><ele>62.0</ele><time>2026-03-22T14:13:01Z</time></trkpt><trkpt lat="44.08209570648959" lon="0.9898781018109793"><ele>61.5</ele><time>2026-03-22T14:13:02Z</time></trkpt><trkpt lat="44.081798214181845" lon="0.9902378059976072"><ele>61.0</ele><time>2026-03-22T14:13:03Z</time></trkpt><trkpt lat="44.08153670933341" lon="0.9905834196640535"><ele>62.5</ele><time>2026-03-22T14:13:04Z</time></trkpt><trkpt lat="44.08128896316024" lon="0.9909115791081907"><ele>64.0</ele><time>2026-03-22T14:13:05Z</time></trkpt><trkpt lat="44.08104591730216" lon="0.9912305590768072"><ele>64.0</ele><time>2026-03-22T14:13:06Z</time></trkpt><trkpt lat="44.08080281163637" lon="0.9915313464152538"><ele>64.0</ele><time>2026-03-22T14:13:07Z</time></trkpt><trkpt lat="44.080556798694445" lon="0.9918191687012183"><ele>63.5</ele><time>2026-03-22T14:13:08Z</time></trkpt><trkpt lat="44.08031170390394" lon="0.9920983372093135"><ele>63.0</ele><time>2026-03-22T14:13:09Z</time></trkpt><trkpt lat="44.080072479790466" lon="0.9923509910752213"><ele>63.0</ele><time>2026-03-22T14:13:10Z</time></trkpt><trkpt lat="44.079845366866664" lon="0.9925818044482237"><ele>63.0</ele><time>2026-03-22T14:13:11Z</time></trkpt><trkpt lat="44.07962511898649" lon="0.9927963260931063"><ele>63.0</ele><time>2026-03-22T14:13:12Z</time></trkpt><trkpt lat="44.079403366665446" lon="0.9930001321726313"><ele>63.0</ele><time>2026-03-22T14:13:13Z</time></trkpt><trkpt lat="44.07918352708272" lon="0.9932115925236079"><ele>63.0</ele><time>2026-03-22T14:13:14Z</time></trkpt><trkpt lat="44.07895189686682" lon="0.9934056283402242"><ele>63.0</ele><time>2026-03-22T14:13:15Z</time></trkpt><trkpt lat="44.07871729934677" lon="0.9935985795544512"><ele>63.0</ele><time>2026-03-22T14:13:16Z</time></trkpt><trkpt lat="44.07847888042185" lon="0.9937875284430988"><ele>63.0</ele><time>2026-03-22T14:13:17Z</time></trkpt><trkpt lat="44.07822844195876" lon="0.993944384496215"><ele>62.5</ele><time>2026-03-22T14:13:18Z</time></trkpt><trkpt lat="44.07797807734138" lon="0.9941177482934188"><ele>62.0</ele><time>2026-03-22T14:13:19Z</time></trkpt><trkpt lat="44.0777252482012" lon="0.9942816301899216"><ele>62.0</ele><time>2026-03-22T14:13:20Z</time></trkpt><trkpt lat="44.077479996609675" lon="0.9944520668570245"><ele>62.0</ele><time>2026-03-22T14:13:21Z</time></trkpt><trkpt lat="44.07724119477505" lon="0.9945855171457296"><ele>62.0</ele><time>2026-03-22T14:13:22Z</time></trkpt><trkpt lat="44.077020309493804" lon="0.9947040276312624"><ele>62.0</ele><time>2026-03-22T14:13:23Z</time></trkpt><trkpt lat="44.0768112491483" lon="0.99481216829265"><ele>62.0</ele><time>2026-03-22T14:13:24Z</time></trkpt><trkpt lat="44.07661126788558" lon="0.9949125256875115"><ele>62.0</ele><time>2026-03-22T14:13:25Z</time></trkpt><trkpt lat="44.07642608651676" lon="0.9949953451603303"><ele>62.0</ele><time>2026-03-22T14:13:26Z</time></trkpt><trkpt lat="44.07625390392385" lon="0.9950693100548167"><ele>62.25</ele><time>2026-03-22T14:13:27Z</time></trkpt><trkpt lat="44.0760986561195" lon="0.9951325960216237"><ele>62.5</ele><time>2026-03-22T14:13:28Z</time></trkpt><trkpt lat="44.07596094555841" lon="0.9951884698941114"><ele>62.75</ele><time>2026-03-22T14:13:29Z</time></trkpt><trkpt lat="44.07583605181912" lon="0.9952316433500555"><ele>63.0</ele><time>2026-03-22T14:13:30Z</time></trkpt><trkpt lat="44.075723550379315" lon="0.9952714582056552"><ele>63.0</ele><time>2026-03-22T14:13:31Z</time></trkpt><trkpt lat="44.075628013479374" lon="0.9953400024195365"><ele>63.0</ele><time>2026-03-22T14:13:32Z</time></trkpt><trkpt lat="44.075554710280656" lon="0.9954457953776954"><ele>63.0</ele><time>2026-03-22T14:13:33Z</time></trkpt><trkpt lat="44.07549544892593" lon="0.9955829804301363"><ele>63.0</ele><time>2026-03-22T14:13:34Z</time></trkpt><trkpt lat="44.07545716636591" lon="0.995744915538504"><ele>63.33333333333333</ele><time>2026-03-22T14:13:35Z</time></trkpt><trkpt lat="44.07544088918674" lon="0.9959365710872207"><ele>63.666666666666664</ele><time>2026-03-22T14:13:36Z</time></trkpt><trkpt lat="44.07544309301192" lon="0.9961788244434586"><ele>64.0</ele><time>2026-03-22T14:13:36.999Z</time></trkpt><trkpt lat="44.07543269568977" lon="0.9964778577828751"><ele>63.5</ele><time>2026-03-22T14:13:37.999Z</time></trkpt><trkpt lat="44.075430728913126" lon="0.9968352781854687"><ele>63.0</ele><time>2026-03-22T14:13:38.999Z</time></trkpt><trkpt lat="44.075428118786846" lon="0.9972209918038932"><ele>63.5</ele><time>2026-03-22T14:13:39.999Z</time></trkpt><trkpt lat="44.07542257645375" lon="0.9976169495737358"><ele>64.0</ele><time>2026-03-22T14:13:40.999Z</time></trkpt><trkpt lat="44.07539777614083" lon="0.9979604314158861"><ele>64.0</ele><time>2026-03-22T14:13:41.999Z</time></trkpt><trkpt lat="44.07535157546468" lon="0.9982954023764404"><ele>64.0</ele><time>2026-03-22T14:13:42.999Z</time></trkpt><trkpt lat="44.075279697481704" lon="0.9986339845820458"><ele>64.5</ele><time>2026-03-22T14:13:43.999Z</time></trkpt><trkpt lat="44.075187563291884" lon="0.9989574891478255"><ele>65.0</ele><time>2026-03-22T14:13:44.999Z</time></trkpt><trkpt lat="44.07507849187729" lon="0.9992619130849033"><ele>65.0</ele><time>2026-03-22T14:13:45.999Z</time></trkpt><trkpt lat="44.0749440135668" lon="0.9995574633604094"><ele>65.0</ele><time>2026-03-22T14:13:46.999Z</time></trkpt><trkpt lat="44.07477994495598" lon="0.9998718537875091"><ele>64.5</ele><time>2026-03-22T14:13:47.999Z</time></trkpt><trkpt lat="44.074610047031804" lon="1.0001825201235388"><ele>64.0</ele><time>2026-03-22T14:13:48.999Z</time></trkpt><trkpt lat="44.074445657398805" lon="1.0004658905010957"><ele>64.0</ele><time>2026-03-22T14:13:49.999Z</time></trkpt><trkpt lat="44.07428099774214" lon="1.0007130973616665"><ele>64.0</ele><time>2026-03-22T14:13:50.999Z</time></trkpt><trkpt lat="44.074094456212734" lon="1.0009312589633796"><ele>63.5</ele><time>2026-03-22T14:13:51.999Z</time></trkpt><trkpt lat="44.073894738331866" lon="1.0011251445984515"><ele>63.0</ele><time>2026-03-22T14:13:52.999Z</time></trkpt><trkpt lat="44.07371618277769" lon="1.0013150948613554"><ele>63.0</ele><time>2026-03-22T14:13:53.999Z</time></trkpt><trkpt lat="44.073539174117236" lon="1.0014831149536039"><ele>63.0</ele><time>2026-03-22T14:13:54.999Z</time></trkpt><trkpt lat="44.07338468891438" lon="1.001687134651891"><ele>63.0</ele><time>2026-03-22T14:13:55.999Z</time></trkpt><trkpt lat="44.07325058781474" lon="1.001920873285317"><ele>63.0</ele><time>2026-03-22T14:13:56.999Z</time></trkpt><trkpt lat="44.07313585341833" lon="1.0021682837334829"><ele>63.0</ele><time>2026-03-22T14:13:57.999Z</time></trkpt><trkpt lat="44.073015931997745" lon="1.00239976711956"><ele>63.0</ele><time>2026-03-22T14:13:58.999Z</time></trkpt><trkpt lat="44.07290909528387" lon="1.0026362552630486"><ele>63.33333333333333</ele><time>2026-03-22T14:13:59.999Z</time></trkpt><trkpt lat="44.07280951797655" lon="1.002858305204642"><ele>63.666666666666664</ele><time>2026-03-22T14:14:00.999Z</time></trkpt><trkpt lat="44.07271285003912" lon="1.0030609747360717"><ele>64.0</ele><time>2026-03-22T14:14:01.999Z</time></trkpt><trkpt lat="44.072614490057056" lon="1.0032475007955641"><ele>64.66666666666666</ele><time>2026-03-22T14:14:02.999Z</time></trkpt><trkpt lat="44.072499016291204" lon="1.0034144634013002"><ele>65.33333333333333</ele><time>2026-03-22T14:14:03.999Z</time></trkpt><trkpt lat="44.07237479488384" lon="1.0035681151916291"><ele>66.0</ele><time>2026-03-22T14:14:04.999Z</time></trkpt><trkpt lat="44.072245564055734" lon="1.003724435953107"><ele>66.0</ele><time>2026-03-22T14:14:05.999Z</time></trkpt><trkpt lat="44.072122938989914" lon="1.003893106057228"><ele>66.0</ele><time>2026-03-22T14:14:06.999Z</time></trkpt><trkpt lat="44.07199044914036" lon="1.0040386359033813"><ele>66.0</ele><time>2026-03-22T14:14:07.999Z</time></trkpt><trkpt lat="44.07185581620985" lon="1.0041808263963217"><ele>66.0</ele><time>2026-03-22T14:14:08.999Z</time></trkpt><trkpt lat="44.07171299270141" lon="1.0042876479455172"><ele>66.0</ele><time>2026-03-22T14:14:09.999Z</time></trkpt><trkpt lat="44.07157751634881" lon="1.0044061733318062"><ele>66.0</ele><time>2026-03-22T14:14:10.999Z</time></trkpt><trkpt lat="44.07144453184128" lon="1.0045395695200796"><ele>66.0</ele><time>2026-03-22T14:14:11.999Z</time></trkpt><trkpt lat="44.071323802715476" lon="1.00468714190886"><ele>66.0</ele><time>2026-03-22T14:14:12.999Z</time></trkpt><trkpt lat="44.07121193376902" lon="1.0048502423334125"><ele>66.0</ele><time>2026-03-22T14:14:13.999Z</time></trkpt><trkpt lat="44.07110482902993" lon="1.0050191289775436"><ele>66.66666666666667</ele><time>2026-03-22T14:14:14.999Z</time></trkpt><trkpt lat="44.07099750991473" lon="1.0051915429268965"><ele>67.33333333333334</ele><time>2026-03-22T14:14:15.999Z</time></trkpt><trkpt lat="44.070891016936386" lon="1.0053630284504262"><ele>68.0</ele><time>2026-03-22T14:14:16.999Z</time></trkpt><trkpt lat="44.07078246740628" lon="1.0055378255290108"><ele>67.33333333333334</ele><time>2026-03-22T14:14:17.999Z</time></trkpt><trkpt lat="44.07067373267441" lon="1.0057129193114662"><ele>66.66666666666667</ele><time>2026-03-22T14:14:18.999Z</time></trkpt><trkpt lat="44.07056642890144" lon="1.0058948290623577"><ele>66.0</ele><time>2026-03-22T14:14:19.999Z</time></trkpt><trkpt lat="44.07046491130284" lon="1.0060737630359957"><ele>66.0</ele><time>2026-03-22T14:14:20.999Z</time></trkpt><trkpt lat="44.07036447496401" lon="1.0062599760665591"><ele>66.0</ele><time>2026-03-22T14:14:21.999Z</time></trkpt><trkpt lat="44.07026976140424" lon="1.0064470082107122"><ele>66.0</ele><time>2026-03-22T14:14:22.999Z</time></trkpt><trkpt lat="44.07017909520053" lon="1.006635203785262"><ele>66.33333333333333</ele><time>2026-03-22T14:14:23.999Z</time></trkpt><trkpt lat="44.07009285594866" lon="1.0068250400820713"><ele>66.66666666666666</ele><time>2026-03-22T14:14:25Z</time></trkpt><trkpt lat="44.070009798588636" lon="1.0070191396349308"><ele>67.0</ele><time>2026-03-22T14:14:26Z</time></trkpt><trkpt lat="44.06993204285733" lon="1.0072142473390824"><ele>67.33333333333333</ele><time>2026-03-22T14:14:27Z</time></trkpt><trkpt lat="44.06986049610271" lon="1.0074058767688485"><ele>67.66666666666667</ele><time>2026-03-22T14:14:28Z</time></trkpt><trkpt lat="44.06979603609226" lon="1.0075967845819587"><ele>68.0</ele><time>2026-03-22T14:14:29Z</time></trkpt><trkpt lat="44.06973444164827" lon="1.00778757732783"><ele>68.0</ele><time>2026-03-22T14:14:30Z</time></trkpt><trkpt lat="44.06967329374242" lon="1.007978519222905"><ele>68.0</ele><time>2026-03-22T14:14:31Z</time></trkpt><trkpt lat="44.0696122929026" lon="1.008169732055205"><ele>68.0</ele><time>2026-03-22T14:14:32Z</time></trkpt><trkpt lat="44.06955186757163" lon="1.0083591408818438"><ele>68.0</ele><time>2026-03-22T14:14:33Z</time></trkpt><trkpt lat="44.06949364209699" lon="1.0085416540921934"><ele>67.5</ele><time>2026-03-22T14:14:34Z</time></trkpt><trkpt lat="44.06943543437922" lon="1.0087227693454273"><ele>67.0</ele><time>2026-03-22T14:14:35Z</time></trkpt><trkpt lat="44.06937839605798" lon="1.0088989445972052"><ele>66.5</ele><time>2026-03-22T14:14:36Z</time></trkpt><trkpt lat="44.06931415333915" lon="1.0090973722944063"><ele>66.0</ele><time>2026-03-22T14:14:37Z</time></trkpt><trkpt lat="44.06923439096367" lon="1.009343735810173"><ele>66.0</ele><time>2026-03-22T14:14:38Z</time></trkpt><trkpt lat="44.0691406001935" lon="1.0096334290285185"><ele>66.0</ele><time>2026-03-22T14:14:39Z</time></trkpt><trkpt lat="44.06904913206226" lon="1.0099189023947235"><ele>66.0</ele><time>2026-03-22T14:14:40Z</time></trkpt><trkpt lat="44.06896796867654" lon="1.010179104172883"><ele>66.0</ele><time>2026-03-22T14:14:41Z</time></trkpt><trkpt lat="44.068919094369434" lon="1.010449926536446"><ele>66.0</ele><time>2026-03-22T14:14:42Z</time></trkpt><trkpt lat="44.06884907109786" lon="1.0106862436051705"><ele>66.33333333333333</ele><time>2026-03-22T14:14:43Z</time></trkpt><trkpt lat="44.068785055607144" lon="1.0109276702051375"><ele>66.66666666666666</ele><time>2026-03-22T14:14:44Z</time></trkpt><trkpt lat="44.068737562744964" lon="1.011158242449747"><ele>67.0</ele><time>2026-03-22T14:14:45Z</time></trkpt><trkpt lat="44.068679933918595" lon="1.0113343341814562"><ele>67.0</ele><time>2026-03-22T14:14:46Z</time></trkpt><trkpt lat="44.06864758071442" lon="1.0114830570373767"><ele>67.0</ele><time>2026-03-22T14:14:47Z</time></trkpt><trkpt lat="44.06862082340168" lon="1.011606056322171"><ele>67.0</ele><time>2026-03-22T14:14:48Z</time></trkpt><trkpt lat="44.06859876743944" lon="1.011707444292948"><ele>67.0</ele><time>2026-03-22T14:14:49Z</time></trkpt><trkpt lat="44.06856687797765" lon="1.011854035245224"><ele>67.0</ele><time>2026-03-22T14:14:51Z</time></trkpt><trkpt lat="44.06850745774622" lon="1.011948782142335"><ele>66.75</ele><time>2026-03-22T14:14:53Z</time></trkpt><trkpt lat="44.06839872140361" lon="1.0118554726400169"><ele>66.5</ele><time>2026-03-22T14:14:55Z</time></trkpt><trkpt lat="44.06830770532522" lon="1.0118346659451132"><ele>66.25</ele><time>2026-03-22T14:14:56Z</time></trkpt><trkpt lat="44.0681983464529" lon="1.0117753557686724"><ele>66.0</ele><time>2026-03-22T14:14:57Z</time></trkpt><trkpt lat="44.068079149493194" lon="1.011721243260621"><ele>65.75</ele><time>2026-03-22T14:14:58Z</time></trkpt><trkpt lat="44.06794335026622" lon="1.0116762470490261"><ele>65.5</ele><time>2026-03-22T14:14:59Z</time></trkpt><trkpt lat="44.06779132688186" lon="1.0116338071223205"><ele>65.25</ele><time>2026-03-22T14:15:00Z</time></trkpt><trkpt lat="44.06764212528186" lon="1.011651950611684"><ele>65.0</ele><time>2026-03-22T14:15:01Z</time></trkpt><trkpt lat="44.06748986203075" lon="1.0116902023792713"><ele>65.66666666666667</ele><time>2026-03-22T14:15:02Z</time></trkpt><trkpt lat="44.06733601197533" lon="1.0117349423149449"><ele>66.33333333333333</ele><time>2026-03-22T14:15:03Z</time></trkpt><trkpt lat="44.06718443764238" lon="1.0117780139555606"><ele>67.0</ele><time>2026-03-22T14:15:04Z</time></trkpt><trkpt lat="44.067033841702624" lon="1.01181826947164"><ele>67.0</ele><time>2026-03-22T14:15:05Z</time></trkpt><trkpt lat="44.06688451090509" lon="1.0118581868720051"><ele>67.0</ele><time>2026-03-22T14:15:06Z</time></trkpt><trkpt lat="44.066735405756845" lon="1.0118980457989588"><ele>67.0</ele><time>2026-03-22T14:15:07Z</time></trkpt><trkpt lat="44.06658841775474" lon="1.0119370031718646"><ele>68.5</ele><time>2026-03-22T14:15:08Z</time></trkpt><trkpt lat="44.066455656491364" lon="1.0119683464057323"><ele>70.0</ele><time>2026-03-22T14:15:09Z</time></trkpt><trkpt lat="44.06632714434957" lon="1.0119846408605961"><ele>71.5</ele><time>2026-03-22T14:15:10Z</time></trkpt><trkpt lat="44.06620174088336" lon="1.0119891587977932"><ele>73.0</ele><time>2026-03-22T14:15:11Z</time></trkpt><trkpt lat="44.06608156817045" lon="1.011984543812407"><ele>73.0</ele><time>2026-03-22T14:15:12Z</time></trkpt><trkpt lat="44.06596805851355" lon="1.011996002373082"><ele>73.0</ele><time>2026-03-22T14:15:13Z</time></trkpt><trkpt lat="44.06586974329649" lon="1.0119826823302147"><ele>73.0</ele><time>2026-03-22T14:15:14Z</time></trkpt><trkpt lat="44.06578806503372" lon="1.011973012992135"><ele>73.0</ele><time>2026-03-22T14:15:15Z</time></trkpt><trkpt lat="44.06571344212236" lon="1.011967710259407"><ele>73.0</ele><time>2026-03-22T14:15:16Z</time></trkpt><trkpt lat="44.065649247096395" lon="1.01196225847391"><ele>73.0</ele><time>2026-03-22T14:15:17Z</time></trkpt><trkpt lat="44.065546454664414" lon="1.0119516712150056"><ele>73.5</ele><time>2026-03-22T14:15:19Z</time></trkpt><trkpt lat="44.06547202985578" lon="1.0119502490554948"><ele>74.0</ele><time>2026-03-22T14:15:21Z</time></trkpt><trkpt lat="44.065398774700014" lon="1.0119448960391588"><ele>74.5</ele><time>2026-03-22T14:15:24Z</time></trkpt><trkpt lat="44.06536296615761" lon="1.0121185375603055"><ele>75.0</ele><time>2026-03-22T14:15:28Z</time></trkpt><trkpt lat="44.06535921162489" lon="1.012223835158572"><ele>75.5</ele><time>2026-03-22T14:15:30Z</time></trkpt><trkpt lat="44.06535573305575" lon="1.0123213931775412"><ele>76.0</ele><time>2026-03-22T14:15:32Z</time></trkpt><trkpt lat="44.065349714653614" lon="1.0124519571535486"><ele>76.25</ele><time>2026-03-22T14:15:34Z</time></trkpt><trkpt lat="44.06533946767084" lon="1.012619581216391"><ele>76.5</ele><time>2026-03-22T14:15:36Z</time></trkpt><trkpt lat="44.06533210846877" lon="1.0127654534415345"><ele>76.75</ele><time>2026-03-22T14:15:38Z</time></trkpt><trkpt lat="44.06532819376566" lon="1.0129272568096657"><ele>77.0</ele><time>2026-03-22T14:15:40Z</time></trkpt><trkpt lat="44.06534120243465" lon="1.0130967977700567"><ele>77.0</ele><time>2026-03-22T14:15:41.999Z</time></trkpt><trkpt lat="44.0653875297109" lon="1.0131960739919121"><ele>77.0</ele><time>2026-03-22T14:15:42.999Z</time></trkpt><trkpt lat="44.0654467632701" lon="1.0132899013487144"><ele>77.0</ele><time>2026-03-22T14:15:43.999Z</time></trkpt><trkpt lat="44.065513332118634" lon="1.0133749058844759"><ele>77.0</ele><time>2026-03-22T14:15:44.999Z</time></trkpt><trkpt lat="44.06556515105237" lon="1.013463915563079"><ele>77.0</ele><time>2026-03-22T14:15:45.999Z</time></trkpt><trkpt lat="44.06558820478" lon="1.0135625296735633"><ele>77.0</ele><time>2026-03-22T14:15:46.999Z</time></trkpt><trkpt lat="44.065598654999924" lon="1.013652608982625"><ele>77.0</ele><time>2026-03-22T14:15:47.999Z</time></trkpt><trkpt lat="44.06560721680338" lon="1.0137943985159028"><ele>77.0</ele><time>2026-03-22T14:15:49.999Z</time></trkpt><trkpt lat="44.06562554118985" lon="1.0139277851585915"><ele>77.0</ele><time>2026-03-22T14:15:51.999Z</time></trkpt><trkpt lat="44.06562745468831" lon="1.0140690201560283"><ele>77.0</ele><time>2026-03-22T14:15:53.999Z</time></trkpt><trkpt lat="44.0656423873811" lon="1.0142214797222824"><ele>77.0</ele><time>2026-03-22T14:15:55.999Z</time></trkpt><trkpt lat="44.06565169063672" lon="1.0143172278287085"><ele>76.8</ele><time>2026-03-22T14:15:56.999Z</time></trkpt><trkpt lat="44.06566464162269" lon="1.0144260227923032"><ele>76.6</ele><time>2026-03-22T14:15:57.999Z</time></trkpt><trkpt lat="44.06568901852929" lon="1.0145419434154959"><ele>76.39999999999999</ele><time>2026-03-22T14:15:58.999Z</time></trkpt><trkpt lat="44.06571086435297" lon="1.0146766815515738"><ele>76.2</ele><time>2026-03-22T14:15:59.999Z</time></trkpt><trkpt lat="44.065728018049164" lon="1.0148245023738627"><ele>76.0</ele><time>2026-03-22T14:16:00.999Z</time></trkpt><trkpt lat="44.06574416281105" lon="1.0149960897381198"><ele>75.66666666666666</ele><time>2026-03-22T14:16:01.999Z</time></trkpt><trkpt lat="44.065757432481526" lon="1.0152152039020486"><ele>75.33333333333333</ele><time>2026-03-22T14:16:02.999Z</time></trkpt><trkpt lat="44.065749812044714" lon="1.0154994801417172"><ele>75.0</ele><time>2026-03-22T14:16:03.999Z</time></trkpt><trkpt lat="44.06576668235959" lon="1.0157794439069"><ele>74.75</ele><time>2026-03-22T14:16:04.999Z</time></trkpt><trkpt lat="44.06576732796788" lon="1.0160058328346449"><ele>74.5</ele><time>2026-03-22T14:16:05.999Z</time></trkpt><trkpt lat="44.06577224021659" lon="1.0162012531658706"><ele>74.25</ele><time>2026-03-22T14:16:06.999Z</time></trkpt><trkpt lat="44.06578325584307" lon="1.016372587244382"><ele>74.0</ele><time>2026-03-22T14:16:07.999Z</time></trkpt><trkpt lat="44.065807972767004" lon="1.0165336586237015"><ele>74.0</ele><time>2026-03-22T14:16:08.999Z</time></trkpt><trkpt lat="44.06584506872549" lon="1.0166900445305043"><ele>74.0</ele><time>2026-03-22T14:16:09.999Z</time></trkpt><trkpt lat="44.06586667111047" lon="1.0168570715118463"><ele>74.0</ele><time>2026-03-22T14:16:10.999Z</time></trkpt><trkpt lat="44.06589355415806" lon="1.017011951474724"><ele>74.0</ele><time>2026-03-22T14:16:11.999Z</time></trkpt><trkpt lat="44.065922948629385" lon="1.0171462066220096"><ele>74.0</ele><time>2026-03-22T14:16:12.999Z</time></trkpt><trkpt lat="44.06590994190192" lon="1.0172824204697826"><ele>74.0</ele><time>2026-03-22T14:16:13.999Z</time></trkpt><trkpt lat="44.06590070756478" lon="1.0173991474311983"><ele>74.0</ele><time>2026-03-22T14:16:14.999Z</time></trkpt><trkpt lat="44.065892286897174" lon="1.0175050767617662"><ele>74.0</ele><time>2026-03-22T14:16:15.999Z</time></trkpt><trkpt lat="44.06588367121527" lon="1.0175944309597924"><ele>74.0</ele><time>2026-03-22T14:16:16.999Z</time></trkpt><trkpt lat="44.06587866391884" lon="1.0177324842125035"><ele>74.0</ele><time>2026-03-22T14:16:18.999Z</time></trkpt><trkpt lat="44.06578617268227" lon="1.0177749603389208"><ele>74.4</ele><time>2026-03-22T14:16:20.999Z</time></trkpt><trkpt lat="44.065709811439895" lon="1.0177301715571678"><ele>74.80000000000001</ele><time>2026-03-22T14:16:21.999Z</time></trkpt><trkpt lat="44.06561287842881" lon="1.017711614299262"><ele>75.19999999999999</ele><time>2026-03-22T14:16:22.999Z</time></trkpt><trkpt lat="44.06550505917665" lon="1.0176909729263464"><ele>75.6</ele><time>2026-03-22T14:16:23.999Z</time></trkpt><trkpt lat="44.06537650904884" lon="1.0176878897383204"><ele>76.0</ele><time>2026-03-22T14:16:24.999Z</time></trkpt><trkpt lat="44.065243602809375" lon="1.0176408611999908"><ele>76.0</ele><time>2026-03-22T14:16:25.999Z</time></trkpt><trkpt lat="44.06510500101227" lon="1.0176217363290934"><ele>76.0</ele><time>2026-03-22T14:16:26.999Z</time></trkpt><trkpt lat="44.064958343443955" lon="1.0175953415244519"><ele>76.0</ele><time>2026-03-22T14:16:27.999Z</time></trkpt><trkpt lat="44.06480805125404" lon="1.0175641186119324"><ele>76.0</ele><time>2026-03-22T14:16:28.999Z</time></trkpt><trkpt lat="44.0646590222016" lon="1.0175322239859568"><ele>76.25</ele><time>2026-03-22T14:16:29.999Z</time></trkpt><trkpt lat="44.064514515995704" lon="1.0175006607305195"><ele>76.5</ele><time>2026-03-22T14:16:31Z</time></trkpt><trkpt lat="44.06438458234716" lon="1.017477316414903"><ele>76.75</ele><time>2026-03-22T14:16:32Z</time></trkpt><trkpt lat="44.06426458594287" lon="1.017460234442811"><ele>77.0</ele><time>2026-03-22T14:16:33Z</time></trkpt><trkpt lat="44.06414960171368" lon="1.017439045340586"><ele>77.2</ele><time>2026-03-22T14:16:34Z</time></trkpt><trkpt lat="44.06404062004307" lon="1.0174083333578952"><ele>77.4</ele><time>2026-03-22T14:16:35Z</time></trkpt><trkpt lat="44.063940588230714" lon="1.0173772632729166"><ele>77.6</ele><time>2026-03-22T14:16:36Z</time></trkpt><trkpt lat="44.063845691908675" lon="1.017346281605169"><ele>77.8</ele><time>2026-03-22T14:16:37Z</time></trkpt><trkpt lat="44.06375399292899" lon="1.0173011744694744"><ele>78.0</ele><time>2026-03-22T14:16:38Z</time></trkpt><trkpt lat="44.0636633219576" lon="1.0172886670638333"><ele>78.0</ele><time>2026-03-22T14:16:39Z</time></trkpt><trkpt lat="44.06359157164595" lon="1.0172544519297522"><ele>78.0</ele><time>2026-03-22T14:16:40Z</time></trkpt><trkpt lat="44.06348635027505" lon="1.0172551274950312"><ele>78.0</ele><time>2026-03-22T14:16:42Z</time></trkpt><trkpt lat="44.063425263168384" lon="1.0172860251308373"><ele>78.0</ele><time>2026-03-22T14:16:45Z</time></trkpt><trkpt lat="44.06340359192612" lon="1.0175551518902526"><ele>78.0</ele><time>2026-03-22T14:16:49Z</time></trkpt><trkpt lat="44.063427492717246" lon="1.0177044786059386"><ele>78.0</ele><time>2026-03-22T14:16:50Z</time></trkpt><trkpt lat="44.06345050884152" lon="1.0178578265291025"><ele>78.0</ele><time>2026-03-22T14:16:51Z</time></trkpt><trkpt lat="44.063476672186674" lon="1.0180343672766012"><ele>78.0</ele><time>2026-03-22T14:16:52Z</time></trkpt><trkpt lat="44.063498024279866" lon="1.018234833766032"><ele>78.0</ele><time>2026-03-22T14:16:53Z</time></trkpt><trkpt lat="44.06350578351102" lon="1.0184378596196322"><ele>77.5</ele><time>2026-03-22T14:16:54Z</time></trkpt><trkpt lat="44.06350549355143" lon="1.0186439147517428"><ele>77.0</ele><time>2026-03-22T14:16:55Z</time></trkpt><trkpt lat="44.06349943479166" lon="1.0188424062533958"><ele>76.5</ele><time>2026-03-22T14:16:56Z</time></trkpt><trkpt lat="44.06349014822796" lon="1.0190295810459693"><ele>76.0</ele><time>2026-03-22T14:16:57Z</time></trkpt><trkpt lat="44.06348229620446" lon="1.019192804221738"><ele>76.0</ele><time>2026-03-22T14:16:58Z</time></trkpt><trkpt lat="44.06347637404448" lon="1.0193419776063248"><ele>76.0</ele><time>2026-03-22T14:16:59Z</time></trkpt><trkpt lat="44.0634710324712" lon="1.0194765266334715"><ele>76.0</ele><time>2026-03-22T14:17:00Z</time></trkpt><trkpt lat="44.063466688163594" lon="1.0195859554097377"><ele>76.0</ele><time>2026-03-22T14:17:01Z</time></trkpt><trkpt lat="44.06347239423366" lon="1.019737040816717"><ele>76.0</ele><time>2026-03-22T14:17:03Z</time></trkpt><trkpt lat="44.06332533130779" lon="1.0197245419021823"><ele>76.0</ele><time>2026-03-22T14:17:06Z</time></trkpt><trkpt lat="44.06323102096952" lon="1.0197081482520305"><ele>76.0</ele><time>2026-03-22T14:17:07Z</time></trkpt><trkpt lat="44.0631188725649" lon="1.0196630324657698"><ele>76.0</ele><time>2026-03-22T14:17:08Z</time></trkpt><trkpt lat="44.06298741181336" lon="1.0196185919340748"><ele>76.0</ele><time>2026-03-22T14:17:09Z</time></trkpt><trkpt lat="44.06282514410057" lon="1.0195738982409321"><ele>76.0</ele><time>2026-03-22T14:17:10Z</time></trkpt><trkpt lat="44.06266142827246" lon="1.0195175066715139"><ele>76.0</ele><time>2026-03-22T14:17:11Z</time></trkpt><trkpt lat="44.062520022114015" lon="1.0194493965151552"><ele>76.0</ele><time>2026-03-22T14:17:12Z</time></trkpt><trkpt lat="44.0623854767054" lon="1.0193900459729843"><ele>76.0</ele><time>2026-03-22T14:17:13Z</time></trkpt><trkpt lat="44.062252961757004" lon="1.019319094560869"><ele>76.0</ele><time>2026-03-22T14:17:14Z</time></trkpt><trkpt lat="44.06210468038361" lon="1.019241935575689"><ele>76.0</ele><time>2026-03-22T14:17:15Z</time></trkpt><trkpt lat="44.061933655658414" lon="1.0191374752672098"><ele>76.0</ele><time>2026-03-22T14:17:16Z</time></trkpt><trkpt lat="44.061742355892136" lon="1.01902304858502"><ele>76.0</ele><time>2026-03-22T14:17:17Z</time></trkpt><trkpt lat="44.061543894009766" lon="1.0189171997981903"><ele>76.0</ele><time>2026-03-22T14:17:18Z</time></trkpt><trkpt lat="44.061366021097776" lon="1.0188233243122642"><ele>76.0</ele><time>2026-03-22T14:17:19Z</time></trkpt><trkpt lat="44.061206625111105" lon="1.0187289538604156"><ele>76.0</ele><time>2026-03-22T14:17:20Z</time></trkpt><trkpt lat="44.06106643837428" lon="1.0186287848419242"><ele>76.0</ele><time>2026-03-22T14:17:21Z</time></trkpt><trkpt lat="44.06093227623895" lon="1.0185120198401538"><ele>76.0</ele><time>2026-03-22T14:17:22Z</time></trkpt><trkpt lat="44.06079601383829" lon="1.0183671692326552"><ele>76.0</ele><time>2026-03-22T14:17:23Z</time></trkpt><trkpt lat="44.060648793270225" lon="1.0182020401347716"><ele>76.0</ele><time>2026-03-22T14:17:24Z</time></trkpt><trkpt lat="44.06048640701468" lon="1.0180248364926319"><ele>77.0</ele><time>2026-03-22T14:17:25Z</time></trkpt><trkpt lat="44.06030459089179" lon="1.017815854566377"><ele>78.0</ele><time>2026-03-22T14:17:26Z</time></trkpt><trkpt lat="44.060108435242775" lon="1.0175815483760473"><ele>78.0</ele><time>2026-03-22T14:17:27Z</time></trkpt><trkpt lat="44.059922179521884" lon="1.0173593075490452"><ele>78.0</ele><time>2026-03-22T14:17:28Z</time></trkpt><trkpt lat="44.05975751834962" lon="1.0171746047121084"><ele>78.0</ele><time>2026-03-22T14:17:29Z</time></trkpt><trkpt lat="44.059608495733656" lon="1.0170015708008093"><ele>78.0</ele><time>2026-03-22T14:17:30Z</time></trkpt><trkpt lat="44.05947162496142" lon="1.0168329816136938"><ele>78.0</ele><time>2026-03-22T14:17:31Z</time></trkpt><trkpt lat="44.059343023390156" lon="1.0166776416808747"><ele>78.0</ele><time>2026-03-22T14:17:32Z</time></trkpt><trkpt lat="44.05921659354597" lon="1.0165605070992692"><ele>78.0</ele><time>2026-03-22T14:17:33Z</time></trkpt><trkpt lat="44.059097667238085" lon="1.0164429211909516"><ele>78.0</ele><time>2026-03-22T14:17:34Z</time></trkpt><trkpt lat="44.05897449557298" lon="1.0163198989053062"><ele>78.0</ele><time>2026-03-22T14:17:35Z</time></trkpt><trkpt lat="44.058868516978" lon="1.0161195525791622"><ele>78.0</ele><time>2026-03-22T14:17:36Z</time></trkpt><trkpt lat="44.058738672259956" lon="1.015904315975733"><ele>78.0</ele><time>2026-03-22T14:17:37Z</time></trkpt><trkpt lat="44.05858558863945" lon="1.0156707858598775"><ele>78.0</ele><time>2026-03-22T14:17:38Z</time></trkpt><trkpt lat="44.05842545998752" lon="1.0154410033629124"><ele>78.33333333333333</ele><time>2026-03-22T14:17:39Z</time></trkpt><trkpt lat="44.058271129997564" lon="1.015228325621119"><ele>78.66666666666666</ele><time>2026-03-22T14:17:40Z</time></trkpt><trkpt lat="44.05811729314499" lon="1.015040643369401"><ele>79.0</ele><time>2026-03-22T14:17:41Z</time></trkpt><trkpt lat="44.05796036761247" lon="1.0148702427449414"><ele>79.33333333333333</ele><time>2026-03-22T14:17:42Z</time></trkpt><trkpt lat="44.057793772391676" lon="1.0147108479633318"><ele>79.66666666666667</ele><time>2026-03-22T14:17:42.999Z</time></trkpt><trkpt lat="44.05761689898289" lon="1.0145629539417425"><ele>80.0</ele><time>2026-03-22T14:17:43.999Z</time></trkpt><trkpt lat="44.05742935300539" lon="1.014402100873851"><ele>79.5</ele><time>2026-03-22T14:17:44.999Z</time></trkpt><trkpt lat="44.05722113235684" lon="1.0142441926351924"><ele>79.0</ele><time>2026-03-22T14:17:45.999Z</time></trkpt><trkpt lat="44.05701044448053" lon="1.0140940766670163"><ele>79.0</ele><time>2026-03-22T14:17:46.999Z</time></trkpt><trkpt lat="44.05679326812628" lon="1.0139447982522705"><ele>79.0</ele><time>2026-03-22T14:17:47.999Z</time></trkpt><trkpt lat="44.05657022926135" lon="1.0137962138197787"><ele>78.5</ele><time>2026-03-22T14:17:48.999Z</time></trkpt><trkpt lat="44.05634171682747" lon="1.0136500726471813"><ele>78.0</ele><time>2026-03-22T14:17:49.999Z</time></trkpt><trkpt lat="44.056105916543544" lon="1.0135046729212343"><ele>78.0</ele><time>2026-03-22T14:17:50.999Z</time></trkpt><trkpt lat="44.05587724469667" lon="1.013364680308556"><ele>78.0</ele><time>2026-03-22T14:17:51.999Z</time></trkpt><trkpt lat="44.055664110609726" lon="1.0132374022767159"><ele>77.66666666666667</ele><time>2026-03-22T14:17:52.999Z</time></trkpt><trkpt lat="44.05546656655477" lon="1.0131169182928585"><ele>77.33333333333334</ele><time>2026-03-22T14:17:53.999Z</time></trkpt><trkpt lat="44.05528251157126" lon="1.0130016546424405"><ele>77.0</ele><time>2026-03-22T14:17:54.999Z</time></trkpt><trkpt lat="44.055107851599786" lon="1.0128878263246772"><ele>77.0</ele><time>2026-03-22T14:17:55.999Z</time></trkpt><trkpt lat="44.05494650788863" lon="1.012779672367094"><ele>77.0</ele><time>2026-03-22T14:17:56.999Z</time></trkpt><trkpt lat="44.05479439175777" lon="1.0126726610715389"><ele>77.0</ele><time>2026-03-22T14:17:57.999Z</time></trkpt><trkpt lat="44.054654732013766" lon="1.0125592032792359"><ele>76.66666666666667</ele><time>2026-03-22T14:17:58.999Z</time></trkpt><trkpt lat="44.0545097960185" lon="1.0124691403906447"><ele>76.33333333333333</ele><time>2026-03-22T14:17:59.999Z</time></trkpt><trkpt lat="44.054381207993785" lon="1.012353497252409"><ele>76.0</ele><time>2026-03-22T14:18:00.999Z</time></trkpt><trkpt lat="44.054246133144595" lon="1.012247979901457"><ele>76.33333333333333</ele><time>2026-03-22T14:18:01.999Z</time></trkpt><trkpt lat="44.05410998146938" lon="1.0121488378208894"><ele>76.66666666666667</ele><time>2026-03-22T14:18:02.999Z</time></trkpt><trkpt lat="44.053971323344584" lon="1.0120506082666885"><ele>77.0</ele><time>2026-03-22T14:18:03.999Z</time></trkpt><trkpt lat="44.05383456484542" lon="1.0119537244659118"><ele>77.0</ele><time>2026-03-22T14:18:04.999Z</time></trkpt><trkpt lat="44.053706091329175" lon="1.0118616598949113"><ele>77.0</ele><time>2026-03-22T14:18:05.999Z</time></trkpt><trkpt lat="44.0535895395914" lon="1.0117806061246704"><ele>77.0</ele><time>2026-03-22T14:18:06.999Z</time></trkpt><trkpt lat="44.053478295543606" lon="1.0117071909984305"><ele>77.0</ele><time>2026-03-22T14:18:07.999Z</time></trkpt><trkpt lat="44.05337044310606" lon="1.0116360141354557"><ele>77.0</ele><time>2026-03-22T14:18:08.999Z</time></trkpt><trkpt lat="44.05326570504052" lon="1.011566892610152"><ele>77.0</ele><time>2026-03-22T14:18:09.999Z</time></trkpt><trkpt lat="44.05315980602291" lon="1.0115263667221486"><ele>77.0</ele><time>2026-03-22T14:18:10.999Z</time></trkpt><trkpt lat="44.05306284965722" lon="1.0114710862758396"><ele>77.0</ele><time>2026-03-22T14:18:11.999Z</time></trkpt><trkpt lat="44.05297243928305" lon="1.011410207555068"><ele>77.0</ele><time>2026-03-22T14:18:12.999Z</time></trkpt><trkpt lat="44.05289686632399" lon="1.0113269645173053"><ele>77.0</ele><time>2026-03-22T14:18:13.999Z</time></trkpt><trkpt lat="44.05281378966323" lon="1.0112718285377347"><ele>77.0</ele><time>2026-03-22T14:18:14.999Z</time></trkpt><trkpt lat="44.052734836823944" lon="1.0112094090283397"><ele>77.0</ele><time>2026-03-22T14:18:15.999Z</time></trkpt><trkpt lat="44.05265540401874" lon="1.0111398538437208"><ele>77.0</ele><time>2026-03-22T14:18:16.999Z</time></trkpt><trkpt lat="44.05257535629302" lon="1.0110649868436732"><ele>77.0</ele><time>2026-03-22T14:18:17.999Z</time></trkpt><trkpt lat="44.05249367728639" lon="1.0109787918885496"><ele>77.0</ele><time>2026-03-22T14:18:18.999Z</time></trkpt><trkpt lat="44.052406520111894" lon="1.0108863355728472"><ele>77.0</ele><time>2026-03-22T14:18:19.999Z</time></trkpt><trkpt lat="44.052318646626624" lon="1.0107949756739"><ele>77.0</ele><time>2026-03-22T14:18:20.999Z</time></trkpt><trkpt lat="44.05223417736699" lon="1.0107046319934703"><ele>77.0</ele><time>2026-03-22T14:18:21.999Z</time></trkpt><trkpt lat="44.05215773902155" lon="1.0106238166995518"><ele>77.0</ele><time>2026-03-22T14:18:22.999Z</time></trkpt><trkpt lat="44.05208645996847" lon="1.010537409436542"><ele>77.0</ele><time>2026-03-22T14:18:23.999Z</time></trkpt><trkpt lat="44.05202019266565" lon="1.0104481794349471"><ele>77.0</ele><time>2026-03-22T14:18:24.999Z</time></trkpt><trkpt lat="44.05195462203275" lon="1.010381956979542"><ele>77.0</ele><time>2026-03-22T14:18:25.999Z</time></trkpt><trkpt lat="44.051887006601405" lon="1.0103406085757005"><ele>77.0</ele><time>2026-03-22T14:18:26.999Z</time></trkpt><trkpt lat="44.051820209103106" lon="1.0103236849669694"><ele>77.0</ele><time>2026-03-22T14:18:27.999Z</time></trkpt><trkpt lat="44.051727943128775" lon="1.0102896694643577"><ele>77.0</ele><time>2026-03-22T14:18:29.999Z</time></trkpt></trkseg></trk></gpx>